[[{"header":{"parameterUnit":"m.s-1","parameterCategory":1,"la1":30.6,"la2":29.2853,"lo1":-89.7004,"lo2":-87.6739,"dy":0.0162,"dx":0.0183,"nx":112,"ny":82,"refTime":"2024-08-16T18:00:00:Z","depth":0,"parameterNumber":2,"parameterNumberName":"U-component_of_WINDS"},"data":[0.0,0.0,0.0,0.0,0.0,0.0,0.0,0.0,0.0,0.0,0.0,0.0,0.0,0.0,0.0,0.0,0.0,0.0,0.0,0.0,0.0,0.0,0.0,0.0,0.0,0.0,0.0,0.0,0.0,0.0,0.0,0.0,0.0,0.0,0.0,0.0,0.0,0.0,0.0,0.0,0.0,0.0,0.0,0.0,0.0,0.0,0.0,0.0,0.0,0.0,0.0,0.0,0.0,0.0,0.0,0.0,0.0,0.0,0.0,0.0,0.0,0.0,0.0,0.0,0.0,0.0,0.0,0.0,0.0,0.0,0.0,0.0,0.0,0.0,0.0,0.0,0.0,0.0,0.0,0.0,0.0,0.0,0.0,0.0,0.0,0.0,0.0,0.0,0.0,0.0,-3.3872,-3.8029,-4.218,-4.4572,-4.4572,-4.3864,-4.2088,-3.8824,0.0,0.0,0.0,0.0,0.0,0.0,0.0,0.0,0.0,0.0,0.0,0.0,0.0,0.0,0.0,0.0,0.0,0.0,0.0,0.0,0.0,0.0,0.0,0.0,0.0,0.0,0.0,0.0,0.0,0.0,0.0,0.0,0.0,0.0,0.0,0.0,0.0,0.0,0.0,0.0,0.0,0.0,0.0,0.0,0.0,0.0,0.0,0.0,0.0,0.0,0.0,0.0,0.0,0.0,0.0,0.0,0.0,0.0,0.0,0.0,0.0,0.0,0.0,0.0,0.0,0.0,0.0,0.0,0.0,0.0,0.0,0.0,0.0,0.0,0.0,0.0,0.0,0.0,0.0,0.0,0.0,0.0,0.0,0.0,0.0,0.0,0.0,0.0,0.0,0.0,0.0,0.0,0.0,0.0,0.0,0.0,0.0,0.0,0.0,0.0,0.0,0.0,0.0,0.0,-3.4407,-4.0424,-4.3202,-4.4572,-4.4572,-4.3448,-4.1469,-3.8345,0.0,0.0,0.0,0.0,0.0,0.0,0.0,0.0,0.0,0.0,0.0,0.0,0.0,0.0,0.0,0.0,0.0,0.0,0.0,0.0,0.0,0.0,0.0,0.0,0.0,0.0,0.0,0.0,0.0,0.0,0.0,0.0,0.0,0.0,0.0,0.0,0.0,0.0,0.0,0.0,0.0,0.0,0.0,0.0,0.0,0.0,0.0,0.0,0.0,0.0,0.0,0.0,0.0,0.0,0.0,0.0,0.0,0.0,0.0,0.0,0.0,0.0,0.0,0.0,0.0,0.0,0.0,0.0,0.0,0.0,0.0,0.0,0.0,0.0,0.0,0.0,0.0,0.0,0.0,0.0,0.0,0.0,0.0,0.0,0.0,0.0,0.0,0.0,0.0,0.0,0.0,0.0,0.0,0.0,0.0,0.0,0.0,0.0,0.0,0.0,0.0,0.0,0.0,-3.4273,-3.7113,-4.1694,-4.3378,-4.4205,-4.4064,-4.277,-4.0694,-3.7842,-3.5374,0.0,0.0,0.0,0.0,0.0,0.0,0.0,0.0,0.0,0.0,0.0,0.0,0.0,0.0,0.0,0.0,0.0,0.0,0.0,0.0,0.0,0.0,0.0,0.0,0.0,0.0,0.0,0.0,0.0,0.0,0.0,0.0,0.0,0.0,0.0,0.0,0.0,0.0,0.0,0.0,0.0,0.0,0.0,0.0,0.0,0.0,0.0,0.0,0.0,0.0,0.0,0.0,0.0,0.0,0.0,0.0,0.0,0.0,0.0,0.0,0.0,0.0,0.0,0.0,0.0,0.0,0.0,0.0,0.0,0.0,0.0,0.0,0.0,0.0,0.0,0.0,0.0,0.0,0.0,0.0,0.0,0.0,0.0,0.0,0.0,0.0,0.0,0.0,0.0,0.0,0.0,0.0,0.0,0.0,0.0,0.0,0.0,0.0,0.0,0.0,0.0,0.0,-3.7212,-3.9383,-4.2165,-4.297,-4.335,-4.3303,-4.1624,-3.9444,-3.693,-3.4254,0.0,0.0,0.0,0.0,0.0,0.0,0.0,0.0,0.0,0.0,0.0,0.0,0.0,0.0,0.0,0.0,0.0,0.0,0.0,0.0,0.0,0.0,0.0,0.0,0.0,0.0,0.0,0.0,0.0,0.0,0.0,0.0,0.0,0.0,0.0,0.0,0.0,0.0,0.0,0.0,0.0,0.0,0.0,0.0,0.0,0.0,0.0,0.0,0.0,0.0,0.0,0.0,0.0,0.0,0.0,0.0,0.0,0.0,0.0,0.0,0.0,0.0,0.0,0.0,0.0,0.0,0.0,0.0,0.0,0.0,0.0,0.0,0.0,0.0,0.0,0.0,0.0,0.0,0.0,0.0,0.0,0.0,0.0,0.0,0.0,0.0,0.0,0.0,0.0,0.0,0.0,0.0,0.0,0.0,0.0,0.0,0.0,0.0,0.0,0.0,0.0,0.0,-3.7014,-3.9662,-4.1726,-4.1716,-4.179,-4.2466,-3.9685,-3.7181,-3.5251,-3.2333,0.0,0.0,0.0,0.0,0.0,0.0,0.0,0.0,0.0,0.0,0.0,0.0,0.0,0.0,0.0,0.0,0.0,0.0,0.0,0.0,0.0,0.0,0.0,0.0,0.0,0.0,0.0,0.0,0.0,0.0,0.0,0.0,0.0,0.0,0.0,0.0,0.0,0.0,0.0,0.0,0.0,0.0,0.0,0.0,0.0,0.0,0.0,0.0,0.0,0.0,0.0,0.0,0.0,0.0,0.0,0.0,0.0,0.0,0.0,0.0,0.0,0.0,0.0,0.0,0.0,0.0,0.0,0.0,0.0,0.0,0.0,0.0,0.0,0.0,0.0,0.0,0.0,0.0,0.0,0.0,0.0,0.0,0.0,0.0,0.0,0.0,0.0,0.0,0.0,0.0,0.0,0.0,0.0,0.0,0.0,0.0,0.0,0.0,0.0,0.0,0.0,0.0,-3.5639,-3.8257,0.0,-4.1279,-4.123,-4.1728,-3.9461,-3.7054,-3.4867,0.0,0.0,0.0,0.0,0.0,0.0,0.0,0.0,0.0,0.0,0.0,0.0,0.0,0.0,0.0,0.0,0.0,0.0,0.0,0.0,0.0,0.0,0.0,0.0,0.0,0.0,0.0,0.0,0.0,0.0,0.0,0.0,0.0,0.0,0.0,0.0,0.0,0.0,0.0,0.0,0.0,0.0,0.0,0.0,0.0,0.0,0.0,0.0,0.0,0.0,0.0,0.0,0.0,0.0,0.0,0.0,0.0,0.0,0.0,0.0,0.0,0.0,0.0,0.0,0.0,0.0,0.0,0.0,0.0,0.0,0.0,0.0,0.0,0.0,0.0,0.0,0.0,0.0,0.0,0.0,0.0,0.0,0.0,0.0,0.0,0.0,0.0,0.0,0.0,0.0,0.0,0.0,0.0,0.0,0.0,0.0,0.0,0.0,0.0,0.0,0.0,0.0,-3.2746,-3.5008,-3.7434,0.0,-4.0347,-4.0062,-4.0366,-3.8341,-3.6073,-3.371,0.0,0.0,0.0,0.0,0.0,0.0,0.0,0.0,0.0,0.0,0.0,0.0,0.0,0.0,0.0,0.0,0.0,0.0,0.0,0.0,0.0,0.0,0.0,0.0,0.0,0.0,0.0,0.0,0.0,0.0,0.0,0.0,0.0,0.0,0.0,0.0,0.0,0.0,0.0,0.0,0.0,0.0,0.0,0.0,0.0,0.0,0.0,0.0,0.0,0.0,0.0,0.0,0.0,0.0,0.0,0.0,0.0,0.0,0.0,0.0,0.0,0.0,0.0,0.0,0.0,0.0,0.0,0.0,0.0,0.0,0.0,0.0,0.0,0.0,0.0,0.0,0.0,0.0,0.0,0.0,0.0,0.0,0.0,0.0,0.0,0.0,0.0,0.0,0.0,0.0,0.0,0.0,0.0,0.0,0.0,0.0,0.0,0.0,0.0,0.0,0.0,0.0,-3.308,-3.5444,-3.7531,-3.9593,-3.8821,-3.8202,-3.8217,-3.6006,-3.3704,0.0,0.0,0.0,0.0,0.0,0.0,0.0,0.0,0.0,0.0,0.0,0.0,0.0,0.0,0.0,0.0,0.0,0.0,0.0,0.0,0.0,0.0,0.0,0.0,0.0,0.0,0.0,0.0,0.0,0.0,0.0,0.0,0.0,0.0,0.0,0.0,0.0,0.0,0.0,0.0,0.0,0.0,0.0,0.0,0.0,0.0,0.0,0.0,0.0,0.0,0.0,0.0,0.0,0.0,0.0,0.0,0.0,0.0,0.0,0.0,0.0,0.0,0.0,0.0,0.0,0.0,0.0,0.0,0.0,0.0,0.0,0.0,0.0,0.0,0.0,0.0,0.0,0.0,0.0,0.0,0.0,0.0,0.0,0.0,0.0,0.0,0.0,0.0,0.0,0.0,0.0,0.0,0.0,0.0,0.0,0.0,0.0,0.0,0.0,0.0,0.0,0.0,0.0,-3.1833,-3.417,-3.6548,-3.9095,-3.8142,-3.7777,-3.8826,-3.7041,-3.4598,-3.1824,0.0,0.0,0.0,0.0,0.0,0.0,0.0,0.0,0.0,0.0,0.0,0.0,0.0,0.0,0.0,0.0,0.0,0.0,0.0,0.0,0.0,0.0,0.0,0.0,0.0,0.0,0.0,0.0,0.0,0.0,0.0,0.0,0.0,0.0,0.0,0.0,0.0,0.0,0.0,0.0,0.0,0.0,0.0,0.0,0.0,0.0,0.0,0.0,0.0,0.0,0.0,0.0,0.0,0.0,0.0,0.0,0.0,0.0,0.0,0.0,0.0,0.0,0.0,0.0,0.0,0.0,0.0,0.0,0.0,0.0,0.0,0.0,0.0,0.0,0.0,0.0,0.0,0.0,0.0,0.0,0.0,0.0,0.0,0.0,0.0,0.0,0.0,0.0,0.0,0.0,0.0,0.0,0.0,0.0,0.0,0.0,0.0,0.0,0.0,0.0,0.0,0.0,-3.134,-3.3694,-3.5969,-3.7854,-3.7287,-3.6953,-3.7622,-3.6591,-3.4592,-3.1435,0.0,0.0,0.0,0.0,0.0,0.0,0.0,0.0,0.0,0.0,0.0,0.0,0.0,0.0,0.0,0.0,0.0,0.0,0.0,0.0,0.0,0.0,0.0,0.0,0.0,0.0,0.0,0.0,0.0,0.0,0.0,0.0,0.0,0.0,0.0,0.0,0.0,0.0,0.0,0.0,0.0,0.0,0.0,0.0,0.0,0.0,0.0,0.0,0.0,0.0,0.0,0.0,0.0,0.0,0.0,0.0,0.0,0.0,0.0,0.0,0.0,0.0,0.0,0.0,0.0,0.0,0.0,0.0,0.0,0.0,0.0,0.0,0.0,0.0,0.0,0.0,0.0,0.0,0.0,0.0,0.0,0.0,0.0,0.0,0.0,0.0,0.0,0.0,0.0,0.0,0.0,0.0,0.0,0.0,0.0,0.0,0.0,0.0,0.0,0.0,0.0,0.0,-3.1329,-3.3754,-3.5546,-3.6228,-3.6257,-3.594,-3.5418,-3.5317,-3.393,-3.0712,0.0,0.0,0.0,0.0,0.0,0.0,0.0,0.0,0.0,0.0,0.0,0.0,0.0,0.0,0.0,0.0,0.0,0.0,0.0,0.0,0.0,0.0,0.0,0.0,0.0,0.0,0.0,0.0,0.0,0.0,0.0,0.0,0.0,0.0,0.0,0.0,0.0,0.0,0.0,0.0,0.0,0.0,0.0,0.0,0.0,0.0,0.0,0.0,0.0,0.0,0.0,0.0,0.0,0.0,0.0,0.0,0.0,0.0,0.0,0.0,-2.8719,0.0,0.0,0.0,0.0,0.0,0.0,0.0,0.0,0.0,0.0,0.0,0.0,0.0,0.0,0.0,0.0,0.0,0.0,0.0,0.0,0.0,0.0,0.0,0.0,0.0,0.0,0.0,0.0,0.0,0.0,0.0,0.0,0.0,0.0,0.0,0.0,0.0,0.0,0.0,0.0,0.0,-3.0729,-3.289,-3.49,-3.6185,-3.571,-3.5339,-3.525,-3.4767,-3.3255,-3.0446,-2.8915,0.0,0.0,0.0,0.0,0.0,0.0,0.0,0.0,0.0,0.0,0.0,0.0,0.0,0.0,0.0,0.0,0.0,0.0,0.0,0.0,0.0,0.0,0.0,0.0,0.0,0.0,0.0,0.0,0.0,0.0,0.0,0.0,0.0,0.0,0.0,0.0,0.0,0.0,0.0,0.0,0.0,0.0,0.0,0.0,0.0,0.0,0.0,0.0,0.0,0.0,0.0,0.0,0.0,0.0,0.0,0.0,0.0,0.0,0.0,0.0,-3.0505,0.0,0.0,0.0,0.0,0.0,0.0,0.0,0.0,0.0,0.0,0.0,0.0,0.0,0.0,0.0,0.0,0.0,0.0,0.0,0.0,0.0,0.0,0.0,0.0,0.0,0.0,0.0,0.0,0.0,0.0,0.0,0.0,0.0,0.0,0.0,0.0,0.0,0.0,0.0,0.0,-3.0916,-3.2585,-3.3998,-3.4711,-3.4129,-3.3702,-3.3734,-3.3398,-3.2321,-3.0264,-2.922,0.0,0.0,0.0,0.0,0.0,0.0,0.0,0.0,0.0,0.0,0.0,0.0,0.0,0.0,0.0,0.0,0.0,0.0,0.0,0.0,0.0,0.0,0.0,0.0,0.0,0.0,0.0,0.0,0.0,0.0,0.0,0.0,0.0,0.0,0.0,0.0,0.0,0.0,0.0,0.0,0.0,0.0,0.0,0.0,0.0,0.0,0.0,0.0,0.0,0.0,0.0,0.0,0.0,-3.5368,-3.6245,-3.6523,-3.74,-3.7908,-3.7877,-3.5045,-3.3937,-3.406,0.0,0.0,0.0,0.0,0.0,0.0,0.0,0.0,0.0,0.0,0.0,0.0,0.0,0.0,0.0,0.0,0.0,0.0,0.0,0.0,0.0,0.0,0.0,0.0,0.0,-3.0367,-2.9819,0.0,0.0,0.0,0.0,0.0,0.0,0.0,0.0,0.0,0.0,0.0,0.0,-3.0979,-3.221,-3.3003,-3.3003,-3.2434,-3.2074,-3.1928,-3.1856,-3.1362,-3.0194,-2.9693,-2.882,0.0,0.0,0.0,0.0,0.0,0.0,0.0,0.0,0.0,0.0,0.0,0.0,0.0,0.0,0.0,0.0,0.0,0.0,0.0,0.0,0.0,0.0,0.0,0.0,0.0,0.0,0.0,0.0,0.0,0.0,0.0,0.0,-2.3937,-2.376,0.0,0.0,0.0,0.0,0.0,0.0,0.0,0.0,0.0,0.0,0.0,0.0,0.0,-3.369,-3.5676,-3.6938,-3.8036,-3.9025,-3.8816,-3.9262,-4.0235,-3.9333,-3.9419,-4.0108,-3.9647,0.0,-3.6907,-3.623,0.0,0.0,0.0,0.0,0.0,0.0,0.0,0.0,0.0,0.0,0.0,0.0,0.0,0.0,0.0,0.0,0.0,0.0,0.0,0.0,0.0,0.0,-3.262,-3.1483,-3.1508,-3.1541,0.0,-2.8899,-2.75,-2.7669,-2.7628,0.0,0.0,0.0,0.0,0.0,0.0,0.0,-2.9558,-3.117,-3.2218,-3.2218,-3.2146,-3.1783,-3.1119,-3.1044,-3.0807,-3.0114,-2.9428,-2.8961,-2.8883,-2.8081,0.0,0.0,0.0,0.0,0.0,0.0,0.0,0.0,0.0,0.0,0.0,0.0,0.0,0.0,0.0,0.0,0.0,0.0,0.0,0.0,0.0,0.0,0.0,0.0,0.0,0.0,0.0,0.0,0.0,-2.2705,-2.4428,-2.5125,-2.6294,-2.704,0.0,0.0,0.0,0.0,0.0,0.0,0.0,0.0,0.0,-3.4881,-3.5416,-3.6445,-3.8023,-3.8703,-3.9585,-4.0701,-4.0876,-4.1357,-4.2088,-4.1961,-4.216,-4.2671,-4.2671,-4.1735,-4.0262,-3.88,-3.7615,-3.6614,0.0,0.0,0.0,0.0,-3.2678,-3.2361,-3.2214,-3.1976,0.0,0.0,0.0,0.0,0.0,0.0,0.0,0.0,0.0,0.0,0.0,0.0,0.0,-3.2432,-3.2508,-3.2592,-3.2424,-3.1297,-3.0176,0.0,-2.9461,-2.8882,-2.7605,0.0,0.0,0.0,0.0,-2.9957,-3.0282,-3.094,-3.1415,-3.1415,-3.1071,-3.0646,-3.0279,-3.0266,-3.0216,-2.9934,-2.963,-2.9555,-2.9833,-2.9129,-2.8479,0.0,0.0,0.0,0.0,0.0,0.0,0.0,0.0,0.0,0.0,0.0,0.0,0.0,0.0,0.0,0.0,0.0,0.0,0.0,0.0,0.0,0.0,0.0,0.0,0.0,0.0,0.0,0.0,-2.3851,-2.5654,-2.6832,-2.8,-2.8701,0.0,0.0,0.0,0.0,0.0,0.0,-3.4317,-3.5202,-3.6348,-3.7983,-3.8427,-3.9137,-4.0246,-4.0585,-4.1168,-4.2077,-4.2429,-4.289,-4.3396,-4.3731,-4.4037,-4.4343,-4.4174,-4.3622,-4.2709,-4.0832,-3.9539,-3.8754,-3.8356,-3.7812,-3.7114,-3.6285,-3.5323,-3.4437,-3.4244,-3.3878,-3.3471,-3.3173,0.0,-3.1762,-3.0634,0.0,0.0,0.0,0.0,-3.1485,-3.1776,-3.221,-3.2697,-3.3066,-3.3081,-3.3081,-3.3081,-3.2827,-3.2344,0.0,-3.0796,-3.0108,-2.8235,0.0,0.0,0.0,0.0,-3.0002,-3.0512,-3.0555,-3.062,-3.062,-3.0139,-2.9792,-2.9792,-2.9869,-2.9869,-2.9869,-2.9934,-3.0075,-3.0368,-3.0046,-2.9706,-2.9425,0.0,0.0,0.0,0.0,0.0,0.0,0.0,0.0,0.0,0.0,0.0,0.0,0.0,0.0,0.0,0.0,0.0,0.0,0.0,0.0,0.0,0.0,0.0,0.0,0.0,0.0,0.0,0.0,0.0,-2.9118,-3.1589,0.0,0.0,0.0,0.0,-3.2962,-3.4224,-3.5812,-3.7826,-3.8424,-3.9397,-4.0965,-4.1419,-4.2104,-4.3074,-4.3716,-4.4205,-4.4418,-4.3668,-4.3729,-4.451,-4.3684,-4.3821,-4.4541,-4.3895,-4.3571,-4.3417,-4.2048,-4.0693,-3.9333,-3.7971,-3.7001,-3.6214,-3.5522,-3.501,-3.4746,-3.4774,-3.4774,-3.4828,-3.5371,-3.451,-3.3125,-3.2067,-3.1876,0.0,0.0,-3.2345,-3.3475,-3.3139,-3.3335,-3.3518,-3.3142,-3.3081,-3.3081,-3.3081,-3.3056,-3.2855,0.0,-3.1461,-3.0631,-2.9767,0.0,-2.8662,-2.817,-2.8585,-2.8963,-2.9001,-2.9504,-2.9869,-2.9869,-2.9792,-2.9792,-2.9792,-3.0011,-3.0075,-3.0075,-3.0292,-3.0368,-3.0368,-3.0583,-3.0374,-2.9779,-2.8851,0.0,0.0,0.0,0.0,0.0,0.0,0.0,0.0,0.0,0.0,0.0,0.0,0.0,0.0,0.0,0.0,0.0,0.0,0.0,0.0,0.0,0.0,0.0,0.0,0.0,0.0,0.0,0.0,-3.0897,-3.3223,0.0,-3.3372,-3.4552,-3.5707,-3.6394,-3.7247,-3.8568,-4.0492,-4.0739,-4.1228,-4.2167,-4.256,-4.2953,-4.3273,-4.3668,-4.4081,-4.4435,-4.4113,-4.4052,-4.4205,-4.3884,-4.3976,-4.4419,-4.4174,-4.3896,-4.3525,-4.3063,-4.2571,-4.2068,-4.1399,-4.0755,-3.9948,-3.8147,-3.7214,-3.6716,-3.568,-3.5398,-3.5425,-3.5642,-3.5345,-3.4793,-3.4126,-3.4112,-3.4257,-3.3585,-3.4054,-3.4521,-3.377,-3.3683,-3.3682,-3.3242,-3.3081,-3.3081,-3.3081,-3.3081,-3.3018,-3.2805,-3.1946,-3.1027,-3.0419,-2.9854,-2.9289,-2.8712,-2.9415,-3.0018,-3.0018,-3.0482,-3.0821,-3.0821,-3.052,-3.0319,-3.0319,-3.007,-2.9705,-2.9328,-2.9517,-2.9667,-2.983,-2.998,-3.028,-3.0598,-2.9829,-2.866,0.0,0.0,0.0,0.0,0.0,0.0,0.0,0.0,0.0,0.0,0.0,0.0,0.0,0.0,0.0,0.0,0.0,0.0,0.0,0.0,0.0,0.0,0.0,0.0,0.0,0.0,-3.1766,-3.2962,-3.5124,-3.6352,-3.5983,-3.752,-3.876,-3.939,-3.9947,-4.0913,-4.253,-4.2622,-4.2758,-4.3243,-4.3396,-4.3548,-4.3624,-4.376,-4.4065,-4.4435,-4.4435,-4.4358,-4.4205,-4.4205,-4.4281,-4.4435,-4.4435,-4.425,-4.391,-4.391,-4.391,-4.3835,-4.2922,-4.2186,-4.1336,-3.9244,-3.8053,-3.7326,-3.6156,-3.571,-3.571,-3.571,-3.5859,-3.594,-3.5448,-3.5811,-3.62,-3.5308,-3.5324,-3.5412,-3.4628,-3.4173,-3.3859,-3.3671,-3.3345,-3.3131,-3.3319,-3.3056,-3.278,-3.278,-3.2026,-3.1286,-3.0934,-3.0281,-2.9666,-2.9277,-2.9854,-3.0407,-3.0595,-3.0922,-3.1198,-3.1373,-3.0922,-3.062,-3.062,-3.0007,-2.9491,-2.9303,-2.9223,-2.9333,-2.9879,-2.974,-2.9952,-3.0686,-2.9624,-2.8382,-2.7023,0.0,0.0,0.0,0.0,0.0,0.0,0.0,0.0,0.0,0.0,0.0,0.0,0.0,0.0,0.0,0.0,0.0,0.0,0.0,0.0,0.0,0.0,0.0,-3.01,-3.122,-3.2899,-3.549,-3.7448,-3.8862,-3.9524,-4.0232,-4.0974,-4.1908,-4.2251,-4.2831,-4.3912,-4.3988,-4.4065,-4.4281,-4.4127,-4.4143,-4.4281,-4.4281,-4.4435,-4.4572,-4.4572,-4.4572,-4.4572,-4.4572,-4.4572,-4.4572,-4.4572,-4.4572,-4.4572,-4.4572,-4.4572,-4.4373,-4.2077,-4.0698,-3.983,-3.8371,-3.7342,-3.651,-3.5927,-3.571,-3.571,-3.5737,-3.613,-3.6522,-3.6133,-3.685,-3.748,-3.6599,-3.6353,-3.6171,-3.5609,-3.4738,-3.4073,-3.4575,-3.3872,-3.3219,-3.3734,-3.2968,-3.219,-3.219,-3.1738,-3.1361,-3.1361,-3.0495,-2.9792,-2.9792,-2.9804,0.0,-3.0545,-3.0645,-3.0859,-3.1361,-3.0959,-3.0658,-3.0645,-2.9834,-2.9479,-2.9986,-2.9365,-2.9468,-3.0594,-2.9816,-2.9588,-3.0103,-2.8231,-2.6853,-2.6166,0.0,0.0,0.0,0.0,0.0,0.0,0.0,0.0,0.0,0.0,0.0,0.0,0.0,0.0,0.0,0.0,0.0,0.0,0.0,0.0,0.0,-2.8349,-2.9803,-3.1987,-3.36,-3.5326,-3.7443,-3.9508,-4.0731,-4.0729,-4.2406,-4.3543,-4.3609,-4.3731,-4.3899,-4.4189,-4.405,-4.4065,-4.4281,-4.4281,-4.4281,-4.4511,-4.4511,-4.4587,-4.4572,-4.4572,-4.4572,-4.4572,-4.4572,-4.4572,-4.4572,-4.4572,-4.4572,-4.4572,-4.4572,-4.4572,-4.4373,-4.255,-4.1405,-4.0553,-3.8866,-3.752,-3.651,-3.5927,-3.571,-3.5791,-3.6212,-3.6456,-3.6604,-3.6614,-3.7075,-3.733,-3.6384,-3.6404,-3.6522,-3.5673,-3.5196,-3.4926,-3.4274,-3.3583,-3.3006,-3.2742,-3.2114,-3.1612,-3.1612,-3.1185,-3.0834,-3.0834,-3.0244,-2.9792,-2.9792,-3.0131,0.0,-3.0595,-3.1461,-3.2086,-3.2237,-3.2275,-3.2115,-3.1733,-3.1019,-3.0203,-2.9154,-2.9014,-2.9132,-2.943,-2.9764,-3.0372,-3.1276,-3.01,-2.8756,0.0,0.0,0.0,0.0,0.0,0.0,0.0,0.0,0.0,0.0,0.0,0.0,0.0,0.0,0.0,0.0,0.0,0.0,0.0,0.0,0.0,0.0,-3.0029,-3.1857,-3.4215,-3.5082,-3.6454,-3.902,-4.0678,-4.173,-4.218,-4.3635,-4.4511,-4.4281,-4.4358,-4.4358,-4.4281,-4.4281,-4.4281,-4.4435,-4.4435,-4.4511,-4.4572,-4.4572,-4.4572,-4.4572,-4.4572,-4.4572,-4.4572,-4.4572,-4.4572,0.0,-4.4572,-4.4572,-4.4572,-4.4174,-4.4097,0.0,0.0,0.0,0.0,0.0,-3.7813,-3.6904,-3.6307,-3.609,-3.6103,-3.6198,-3.6388,-3.6577,-3.6676,-3.7057,-3.7358,-3.6571,-3.6629,-3.6714,-3.5955,-3.5578,-3.5378,-3.4738,-3.3985,-3.3269,-3.2692,-3.1951,-3.1323,-3.111,0.0,0.0,-3.0269,-3.0005,-2.9792,-2.9792,-3.0068,-3.0357,-3.0583,-3.1511,-3.2212,-3.2536,-3.2727,-3.2669,-3.2444,-3.1688,0.0,0.0,0.0,-2.9339,-2.947,-2.9722,0.0,0.0,0.0,0.0,0.0,0.0,0.0,0.0,-2.6551,-2.6867,0.0,0.0,0.0,0.0,0.0,0.0,0.0,0.0,0.0,0.0,0.0,0.0,0.0,0.0,0.0,0.0,-3.1984,-3.4548,-3.6438,-3.6047,-3.6773,-4.0086,-4.1232,-4.2171,-4.334,-4.4141,-4.4511,-4.4358,-4.4496,-4.4496,-4.4358,0.0,0.0,0.0,0.0,-4.4572,-4.4572,-4.4572,-4.4572,-4.4572,-4.4572,-4.4572,-4.4572,-4.4572,-4.4572,-4.4572,-4.4572,-4.4572,-4.4496,-4.3693,-4.3205,-4.2951,-4.214,-4.1825,-4.1406,-3.9219,-3.8084,0.0,0.0,0.0,0.0,-3.609,-3.628,-3.6769,-3.6619,-3.6985,-3.7348,-3.6895,-3.6862,-3.6791,-3.6431,-3.6001,-3.5529,-3.5466,-3.46,-3.3658,-3.3106,-3.2102,-3.1173,-3.0708,-3.0168,-2.9792,-2.9792,-2.9792,-2.9792,-2.9792,-2.9792,0.0,-3.0457,-3.0984,-3.1675,-3.2409,0.0,0.0,-3.288,-3.2076,-3.1499,-3.1423,-3.0465,-3.0021,-3.0246,-3.0063,-3.014,-3.0548,-2.894,-2.8505,-2.9338,-2.8519,-2.8451,-2.8899,-2.7981,-2.8014,0.0,0.0,0.0,0.0,0.0,0.0,0.0,0.0,0.0,0.0,0.0,0.0,0.0,0.0,0.0,-3.1316,-3.2736,-3.4522,-3.7069,-3.7113,-3.7777,-4.0193,-4.1648,-4.2509,-4.2771,-4.3879,-4.4572,-4.4572,-4.4587,-4.4572,-4.4572,-4.4587,0.0,-4.4572,-4.4572,-4.4572,-4.4572,-4.4572,-4.4572,-4.4572,0.0,0.0,-4.4572,-4.4572,-4.4572,-4.4572,-4.4572,-4.4572,-4.4496,-4.3693,-4.2438,-4.1099,-4.0944,-4.0446,-3.9738,-3.8714,-3.8355,-3.8165,-3.7568,-3.7351,-3.7338,-3.7216,-3.734,-3.7592,-3.7003,-3.6948,0.0,-3.6947,-3.6865,-3.691,-3.7299,-3.6805,-3.6069,-3.5609,-3.4388,-3.3081,-3.2503,-3.1524,-3.0733,-3.0633,-3.0168,-2.9792,-2.9792,-2.9792,-2.9792,-2.9792,-2.9792,-2.9829,-2.9942,-3.0577,-3.128,-3.1919,-3.2705,-3.3152,-3.3152,-3.3122,-3.258,-3.1159,-3.0859,-3.095,-3.142,-3.1589,-3.1667,-3.1768,-3.0808,-3.0159,-2.9863,-2.9464,-2.9456,-2.9915,-2.9336,-2.9161,0.0,0.0,0.0,0.0,0.0,0.0,0.0,0.0,0.0,0.0,0.0,-2.5196,-2.7551,0.0,-3.1335,-3.2361,-3.3968,-3.5543,-3.6835,-3.7755,-3.8803,-4.0339,-4.1755,-4.2602,-4.2602,-4.3802,-4.4572,-4.4572,-4.4572,-4.4572,-4.4572,-4.4572,-4.4572,-4.4572,-4.4572,-4.4572,-4.4572,-4.4572,-4.4572,-4.4572,-4.4572,-4.4572,-4.4572,-4.4572,-4.4572,-4.4572,-4.4572,-4.4572,-4.4496,-4.3269,-4.1713,-4.0156,-4.0215,-3.9881,-3.9264,-3.8966,-3.8857,-3.8776,-3.8351,-3.8061,-3.7921,-3.7708,-3.7697,-3.7642,-3.7329,-3.7247,-3.7247,-3.7234,-3.7232,-3.7169,-3.6981,-3.6584,-3.6058,-3.4946,-3.406,-3.3257,-3.2403,-3.1883,-3.1498,-3.1233,-3.1102,-3.0991,-3.0991,-3.0991,-3.0722,-2.9957,-2.9869,-3.0035,-3.0312,-3.0988,-3.1787,-3.25,-3.323,-3.3731,-3.3814,-3.3662,-3.3091,-3.1914,-3.1435,-3.1304,-3.1519,-3.1234,-3.1237,-3.15,-3.0835,-3.0365,-3.013,-2.991,-2.9969,-3.0209,-3.0199,-3.0188,0.0,0.0,0.0,0.0,0.0,0.0,0.0,-2.0158,-2.1487,-2.3563,-2.5226,-2.7033,-2.9176,-3.1304,-3.2919,-3.3477,-3.53,-3.6646,-3.681,-3.8194,-3.9535,-4.0524,-4.1718,-4.2463,-4.2602,-4.3694,-4.4433,-4.4572,-4.4572,-4.4572,-4.4572,-4.4572,-4.4572,-4.4572,-4.4572,-4.4572,-4.4572,-4.4572,-4.4572,-4.4572,-4.4572,-4.4572,-4.4572,-4.4572,-4.4572,-4.4572,-4.4496,-4.4328,-4.4082,-4.2695,-4.1156,-3.97,-3.9848,-3.9659,-3.9305,-3.9394,-3.9482,-3.9401,-3.9098,-3.8933,-3.8678,-3.8372,-3.8136,-3.7939,-3.7745,-3.7708,-3.7612,-3.7612,-3.7601,-3.7444,-3.6724,-3.6459,-3.6056,-3.4702,-3.4159,-3.3656,-3.2735,-3.2554,-3.2434,-3.2059,-3.2043,-3.2114,-3.2114,-3.2114,-3.166,-3.0466,-3.0405,-3.0635,-3.1093,-3.1711,-3.2371,-3.317,-3.3649,-3.4004,-3.4241,-3.3849,-3.3206,-3.233,-3.1737,-3.1347,-3.117,-3.049,-3.048,-3.0972,-3.0474,-3.0253,-3.0341,-3.0253,-3.0308,-3.0493,-3.0766,-3.0898,-1.5605,-1.6093,-1.6623,-1.8046,-1.8452,-1.9216,0.0,-2.2603,-2.3329,-2.559,-2.713,-2.8887,-3.1297,-3.2982,-3.4407,-3.5559,-3.6249,-3.7127,-3.8384,-3.8576,-3.919,-4.0851,-4.1426,-4.1955,-4.254,-4.3264,-4.3941,-4.4541,-4.4572,-4.4572,-4.4572,-4.4572,-4.4572,-4.4572,-4.4572,-4.4572,-4.4572,-4.4572,-4.4572,-4.4572,-4.4572,-4.4572,-4.4572,-4.4572,-4.4572,-4.4572,-4.3942,-4.3284,-4.2534,-4.1713,-4.0745,-3.97,-3.97,-3.9598,-3.9394,-3.9733,-3.9908,-3.9908,-3.9839,-3.9812,-3.9812,-3.9596,-3.9568,-3.9619,-3.8824,-3.8375,-3.8117,-3.8117,-3.7772,-3.7442,-3.7826,-3.7245,-3.6518,-3.637,-3.5205,-3.4056,-3.3927,-3.3251,-3.2548,-3.2485,-3.2299,-3.2114,-3.2114,-3.2114,-3.2076,-3.1867,-3.1855,-3.188,-3.1932,-3.1996,-3.2346,-3.2898,-3.3191,-3.3489,-3.3679,-3.3626,-3.2781,-3.096,-3.1549,-3.1658,-3.0797,-3.0761,-3.0995,-3.151,-3.0641,-3.0417,-3.0821,-3.0406,-3.0646,-3.1455,-3.1072,-3.0898,-1.5971,-1.6806,-1.7323,-1.7847,-1.887,-2.0165,-2.1874,-2.2903,-2.4201,-2.6828,-2.8231,-2.9658,-3.1932,-3.3695,-3.5001,0.0,-3.6499,-3.7303,-3.8023,-3.856,-3.9147,-3.9975,-4.1109,-4.2171,-4.2854,-4.3318,-4.3997,-4.4902,-4.4723,-4.4723,-4.4949,-4.4723,-4.4572,-4.4572,-4.4572,-4.4572,-4.4572,-4.4572,-4.4572,-4.4572,-4.4572,-4.4572,-4.4572,-4.4572,-4.4572,-4.4572,-4.3864,-4.3126,-4.229,-4.1728,-4.0845,-3.9848,-4.0051,-3.9936,-3.9733,-3.9645,-3.9557,-3.9645,-3.9908,-3.9922,-3.9793,-3.9609,-3.9485,-3.936,-3.8597,-3.831,-3.82,-3.82,-3.8021,-3.7717,-3.7345,-3.6961,-3.6428,-3.5816,-3.5136,-3.4564,-3.416,-3.3882,-3.3547,-3.3283,-3.327,-3.3269,-3.3433,-3.3433,-3.3433,-3.3433,-3.2794,-3.2417,-3.2739,-3.2872,-3.3174,-3.3731,-3.3155,-3.2714,-3.281,-3.2079,-3.1128,-2.9954,-3.0314,-3.0387,-2.994,-3.0235,-3.0559,-3.076,-3.0668,-3.0701,-3.0898,-3.0701,-3.0963,-3.1618,-3.1411,-3.1414,-1.6308,-1.7218,-1.7742,-1.8043,-1.9174,-2.0604,-2.181,-2.2967,-2.4426,-2.6967,-2.8337,-2.9665,-3.1744,-3.3518,-3.4983,-3.5852,-3.6746,-3.7596,-3.8159,-3.8693,-3.9283,-3.9999,-4.1186,-4.2354,-4.3301,-4.3422,-4.4002,-4.5258,-4.4703,-4.4613,-4.5305,-4.4874,-4.4723,-4.4949,-4.4739,-4.4648,-4.4723,-4.4663,-4.4572,-4.4572,-4.4572,-4.4572,-4.4572,-4.4572,-4.4572,-4.4572,-4.3615,-4.2871,-4.2208,-4.1506,-4.0688,-3.9936,-4.0124,-4.0023,-3.9733,-3.9394,-3.9394,-3.9571,-3.9908,-3.9812,-3.9532,-3.9421,-3.9157,-3.8851,-3.8338,-3.809,-3.8034,-3.8034,-3.7992,-3.7661,-3.6879,-3.6674,-3.6484,-3.571,-3.544,-3.5127,-3.4729,-3.4481,-3.4314,-3.3979,-3.3979,-3.416,-3.4314,-3.4397,-3.4397,-3.4397,-3.3528,-3.3083,-3.358,-3.3727,-3.3671,-3.3309,-3.2688,-3.2077,-3.1527,-3.0673,-2.9737,-2.875,-2.9363,-2.9495,-2.9003,-2.9708,-3.0209,-3.0209,-3.0537,-3.0766,-3.0898,-3.0898,-3.1149,-3.1618,-3.1618,-3.1721,-1.6554,-1.6983,-1.7469,-1.9183,-1.9529,-2.0046,-2.2357,-2.3183,-2.3982,-2.5721,-2.7306,-2.8984,-3.0747,-3.2368,-3.4164,-3.6305,-3.7196,-3.8113,-3.9606,-3.9258,-3.964,-4.1755,-4.1801,-4.2291,-4.401,-4.3551,-4.385,-4.5665,-4.4491,-4.4251,-4.5728,-4.5024,-4.4949,-4.576,-4.5024,-4.4799,-4.5173,-4.4799,-4.4572,-4.4572,-4.4572,-4.4572,-4.4572,-4.4572,-4.4572,-4.4496,-4.3016,-4.229,-4.2208,-4.0659,-3.9936,-3.97,-3.97,-3.9598,-3.9305,-3.9305,-3.9557,-3.9996,-3.9996,-3.9695,-3.9381,-3.9197,-3.888,-3.8477,-3.8284,-3.7964,-3.7655,-3.7655,-3.7368,-3.7035,-3.7021,-3.7021,-3.7007,-3.6993,-3.6429,-3.5951,-3.5951,-3.5141,-3.4397,-3.4397,-3.4243,-3.4076,-3.4076,-3.4243,-3.4397,-3.4397,-3.4371,-3.4358,-3.4371,-3.4371,-3.3348,-3.0601,-3.1543,-3.1514,-2.9552,-2.9915,-2.9332,-2.7429,-2.9143,-2.9579,-2.8058,-2.9434,-3.0209,-3.0209,-3.022,-3.045,-3.0898,-3.0898,-3.1149,-3.1618,-3.1618,-3.1618,-1.6126,-1.7059,-1.8018,-1.9088,-1.975,-2.0568,-2.243,-2.3198,-2.3888,-2.5264,-2.6611,-2.8186,-3.0052,-3.182,-3.3662,-3.5807,-3.704,-3.8208,-3.9703,-3.9917,-4.0421,-4.1623,-4.2744,-4.3642,-4.4189,-4.3812,0.0,-4.5992,-4.5025,-4.4874,-4.6056,-4.5672,-4.5541,-4.576,-4.5247,-4.5098,-4.5173,-4.4799,-4.4572,-4.4572,-4.4572,-4.4572,-4.4572,-4.4572,-4.4572,-4.4496,-4.2936,-4.229,-4.2208,-4.0659,-3.9848,-3.97,-3.97,-3.951,-3.9305,-3.9305,-3.9223,-3.9143,-3.9316,-3.9185,-3.8769,-3.8419,-3.8235,-3.7983,-3.7578,-3.7312,-3.7223,-3.7223,-3.7069,-3.6978,-3.6978,-3.6978,-3.6978,-3.6978,-3.6822,-3.6508,-3.6111,-3.5372,-3.4716,-3.4481,-3.3992,-3.3738,-3.4076,-3.416,-3.3979,-3.336,-3.3882,-3.4397,-3.4397,-3.356,-3.2663,-3.1701,-3.0325,-2.9189,-2.8503,-2.777,-2.72,-2.679,-2.7689,-2.8364,-2.8495,-2.9303,-2.9978,-3.0491,-3.0502,-3.0734,-3.1406,-3.1406,-3.1551,-3.1823,-3.1823,-3.1823,-1.5942,-1.6732,-1.7567,-1.903,-1.961,-2.0299,-2.2152,-2.2873,-2.3529,-2.4718,-2.5691,-2.6934,-2.9192,-3.0653,-3.2445,-3.5395,-3.6807,-3.8191,-4.0117,-4.0384,-4.0903,-4.2299,-4.3507,-4.4329,-4.4761,-4.4589,0.0,-4.6432,-4.5365,-4.5199,-4.648,-4.6032,-4.5905,-4.6175,-4.5541,-4.5247,-4.5395,-4.4874,-4.4572,-4.4572,-4.4572,-4.4572,-4.4572,-4.4572,-4.4419,-4.4082,-4.279,-4.2044,-4.1616,-4.0315,-3.9659,-3.9598,-3.9598,-3.9407,-3.9305,-3.9305,-3.8964,-3.8553,-3.8858,-3.8643,-3.8142,-3.79,-3.7686,-3.7498,-3.7105,-3.6978,-3.6978,-3.6978,-3.6978,-3.6978,-3.6978,-3.6978,-3.6978,-3.6978,-3.6978,-3.69,-3.6429,-3.5857,-3.5209,-3.4716,-3.423,-3.3894,-3.3979,-3.381,-3.3543,-3.3031,-3.3177,-3.311,-3.2369,-3.2025,-3.1378,-3.0121,-2.9021,-2.8107,-2.7345,-2.6719,-2.6535,-2.7008,-2.7646,-2.8451,-2.9349,-2.9929,-3.0444,-3.0782,-3.0949,-3.1205,-3.1715,-3.1883,-3.2029,-3.2229,-3.2229,-3.2229,-1.5939,-1.6102,-1.639,-1.8939,-1.9114,-1.9298,-2.1501,-2.233,-2.2983,-2.4073,-2.4433,-2.5402,-2.8179,-2.9018,-3.0729,-3.5125,-3.6547,-3.806,-4.0872,-4.0695,-4.1197,-4.3685,-4.4023,-4.4512,-4.5678,-4.584,0.0,-4.6828,0.0,-4.5394,-4.6844,-4.6262,-4.6191,-4.6876,-4.5817,-4.5468,-4.576,-4.5024,-4.4572,-4.4648,-4.4572,-4.4572,-4.4572,-4.4572,-4.4174,-4.3284,-4.24,-4.1547,-4.0603,-3.9706,-3.9305,-3.9305,-3.9305,-3.9292,-3.9251,-3.9251,-3.8851,-3.8242,-3.8553,-3.8158,-3.7571,-3.7571,-3.7326,-3.6978,-3.6978,-3.6978,-3.6978,-3.6978,-3.6978,-3.6978,-3.6978,-3.6978,-3.6978,-3.6978,-3.6978,-3.6978,-3.6978,-3.6508,-3.579,-3.5196,-3.4786,-3.4468,-3.3797,-3.3262,-3.3006,-3.3215,-3.2302,-3.0778,-2.885,-2.9895,-2.9612,-2.6406,-2.7816,-2.8156,-2.6173,-2.6779,-2.7428,-2.7744,-2.8857,-2.9709,-3.0296,-3.1155,-3.1468,-3.1105,-3.1468,-3.1726,-3.1748,-3.2319,-3.2544,-3.2544,-3.2544,-3.2544,-1.5391,-1.5925,-1.6606,-1.7525,-1.8264,-1.8953,-2.0064,-2.1248,-2.2194,-2.2483,-2.3167,-2.4406,-2.6722,-2.8325,-3.0502,-3.4184,-3.6209,0.0,-4.0738,-4.0903,-4.1604,-4.3733,-4.4334,-4.4918,-4.5726,-4.6293,0.0,0.0,-4.606,-4.5911,-4.6844,-4.6738,-4.6668,-4.6876,-4.6301,-4.5945,-4.576,-4.5024,-4.4723,-4.5024,-4.4723,-4.4572,-4.4572,-4.4572,-4.4496,-4.4174,-4.279,-4.2126,-4.1782,-4.0402,-3.9821,-3.9821,-3.9821,-3.9546,-3.9161,-3.9161,-3.8559,-3.7796,-3.7867,-3.7571,-3.7153,-3.7153,-3.7119,-3.6978,-3.6978,-3.6978,-3.6978,-3.6978,-3.6978,-3.6978,-3.6978,-3.6978,-3.6978,-3.6978,-3.6978,-3.6978,-3.6978,-3.6508,-3.5951,-3.579,-3.4594,-3.3577,-3.3407,-3.2624,-3.1753,-3.1146,-3.089,-3.0744,-3.0809,-2.9874,-2.8905,-2.809,-2.7322,-2.6976,-2.693,-2.7149,-2.7671,-2.8444,-2.9149,-2.9709,-3.033,-3.0841,-3.1364,-3.1807,-3.1943,-3.229,-3.2887,-3.3012,-3.2969,-3.2779,-3.2779,-3.2667,-1.5355,-1.5873,-1.6566,-1.7616,-1.8368,-1.9109,-2.0084,-2.1512,-2.2498,-2.1995,-2.2847,-2.4217,-2.5901,-2.748,-2.9668,-3.3188,-3.5574,-3.7877,-4.0322,-4.1204,-4.2204,-4.3829,-4.4333,-4.4773,-4.5406,-4.5844,-4.6088,0.0,-4.6232,-4.6455,-4.686,-4.6876,-4.6876,-4.6876,-4.6512,-4.6159,-4.5832,-4.5173,-4.4949,-4.5173,-4.4949,-4.4799,-4.4572,-4.4572,-4.4419,-4.3927,0.0,-4.1966,-4.1227,-4.0096,-3.9443,-3.9208,-3.9208,-3.9001,-3.8711,-3.8711,-3.8269,-3.7627,-3.7627,-3.7368,-3.6978,-3.6978,-3.6978,-3.6978,-3.6978,-3.6978,-3.6978,-3.6978,-3.6978,-3.6978,-3.6978,-3.6978,-3.6978,-3.6978,-3.6978,-3.6978,-3.6978,-3.6415,-3.5602,-3.4841,-3.3661,-3.2722,-3.2525,-3.1653,-3.0878,-3.0441,-3.0,-2.9919,-3.0296,-2.927,-2.8555,-2.8418,-2.7815,-2.7398,-2.7626,-2.8,-2.855,-2.924,-2.9839,-3.0521,-3.1247,-3.1757,-3.2154,-3.2636,-3.2636,-3.2883,-3.3281,-3.3281,-3.3181,-3.3092,-3.3092,-3.298,-1.5612,-1.5921,-1.6338,-1.8181,-1.8791,-1.9306,-2.0627,-2.2196,-2.3096,-2.1971,-2.292,-2.4259,-2.5392,-2.6683,-2.8766,-3.2279,-3.4893,-3.7405,-3.9893,-4.1422,-4.2654,-4.3829,-4.4101,-4.4346,-4.4935,-4.5017,-4.5082,-4.526,-4.6139,-4.6718,-4.6815,-4.6815,-4.6864,-4.6945,-4.6512,-4.6159,-4.5977,-4.5541,-4.5274,-4.5238,-4.5106,-4.4837,-4.4461,-4.4386,-4.3915,-4.303,0.0,0.0,-4.0035,-3.9396,-3.8754,-3.8284,-3.8284,-3.8228,-3.8159,-3.8159,-3.7853,-3.7501,-3.7501,-3.7298,-3.6978,-3.6978,-3.6978,-3.6978,-3.6978,-3.6978,-3.6978,-3.6978,-3.6978,-3.6978,-3.6978,-3.6978,-3.6978,-3.6978,-3.6978,-3.6978,-3.6822,-3.6163,-3.5074,-3.3492,-3.2476,-3.1877,-3.1677,-3.0699,-3.0091,-3.0272,-2.9474,-2.8789,-2.8813,-2.8611,-2.8299,-2.8184,-2.8521,-2.8622,-2.8339,-2.9064,-2.9621,-2.9943,-3.064,-3.1398,-3.2259,-3.2868,-3.3178,-3.3178,-3.3247,-3.3281,-3.3281,-3.3281,-3.3281,-3.3281,-3.3281,-3.3281,-1.5842,-1.5951,-1.6151,-1.728,-1.8289,-1.9157,-1.9675,-2.1091,-2.2051,-2.1154,-2.202,-2.3363,-2.4798,-2.6518,-2.8843,-3.2139,-3.4821,-3.7327,-3.9698,-4.1099,-4.2398,-4.3829,-4.3847,-4.4059,-4.4788,-4.4952,0.0,0.0,0.0,-4.5816,-4.647,-4.6503,-4.6698,-4.715,-4.6582,-4.6442,-4.6668,-4.6048,-4.5603,-4.5421,-4.4748,-4.4091,-4.3528,-4.3144,-4.2557,-4.1927,0.0,0.0,-3.9771,-3.9166,-3.8877,-3.8779,-3.8779,-3.8457,-3.798,-3.798,-3.7601,-3.7069,-3.7069,-3.7077,-3.6978,-3.6978,-3.6978,-3.6978,-3.6978,-3.6978,-3.6978,-3.6978,-3.6978,-3.6978,-3.6978,-3.6978,-3.6978,-3.6978,-3.6978,-3.6822,-3.6084,-3.5237,-3.4472,-3.4139,-3.2784,-3.1665,-3.1577,-3.017,-2.9024,-2.9117,-2.9035,-2.9095,-2.9373,-2.8823,-2.8388,-2.8358,-2.8381,-2.8649,-2.9244,-2.9447,-2.9711,-3.0102,-3.0721,-3.1088,-3.126,-3.2144,-3.2627,-3.2627,-3.3063,-3.3281,-3.3281,-3.3281,-3.3281,-3.3281,-3.3281,-3.3281,-1.5342,-1.5748,-1.615,-1.6931,-1.8178,-1.9149,-1.8938,-2.0684,-2.2072,-2.1151,-2.2326,-2.3822,-2.4883,-2.6486,-2.8565,-3.1246,-3.3721,-3.6275,-3.9014,-4.0603,-4.1905,-4.3149,-4.3342,-4.3644,-4.422,-4.4145,-4.4191,-4.4622,0.0,-4.4795,-4.5783,-4.5848,-4.593,-4.6208,-4.5708,-4.564,-4.6075,-4.552,-4.5053,-4.4633,-4.4234,-4.3639,-4.2931,-4.2659,-4.2294,-4.1656,-4.102,0.0,-3.9283,-3.8677,-3.8173,-3.7892,-3.7892,-3.7695,-3.7428,-3.7428,-3.7245,-3.6978,-3.6978,-3.6978,-3.6978,-3.6978,-3.6978,-3.6978,-3.6978,-3.6978,-3.6978,-3.6978,-3.6978,-3.6978,-3.6978,-3.6652,-3.6322,-3.6322,-3.5976,-3.54,-3.4485,-3.3901,-3.3395,-3.271,-3.1865,-3.1169,-3.0902,-2.992,-2.9117,-2.9117,-2.9035,-2.9035,-2.9117,-2.8918,-2.8867,-2.9272,-2.9249,-2.9351,-2.986,-2.9871,-2.9975,-3.0204,-3.0721,-3.1019,-3.1019,-3.172,-3.211,-3.211,-3.2363,-3.25,-3.25,-3.25,-3.2627,-3.2868,-3.2868,-3.3017,-1.486,-1.5564,-1.6211,-1.7179,-1.8391,-1.9245,-1.9011,-2.0876,-2.2385,-2.121,-2.283,-2.4607,-2.5066,-2.6433,-2.8292,-3.0669,-3.2897,-3.5419,-3.8542,-4.0333,-4.1747,-4.2766,-4.3096,-4.3383,-4.3781,-4.3502,0.0,-4.4064,0.0,0.0,-4.5156,-4.5242,-4.5324,-4.5324,-4.4919,-4.4853,-4.5195,-4.4853,-4.4425,-4.393,-4.3727,-4.3236,-4.2426,-4.2227,-4.1778,-4.1085,-4.0529,0.0,0.0,-3.7932,-3.7428,-3.6978,-3.6978,-3.6978,-3.6978,-3.6978,-3.6908,-3.6796,-3.6796,-3.6697,-3.6585,-3.6585,-3.6768,-3.6978,-3.6978,-3.6978,-3.6978,-3.6978,-3.6894,-3.6796,-3.6796,-3.6203,-3.5555,-3.5518,-3.4711,-3.3746,-3.3126,-3.2821,-3.2401,-3.1294,-3.0866,-3.0606,-3.0145,-2.9693,-2.9329,-2.9145,-2.8958,-2.885,-2.885,-2.9035,-2.9301,-2.9943,-2.9874,-2.9874,-3.0034,-3.0034,-3.0034,-3.0136,-3.0526,-3.0754,-3.0847,-3.1329,-3.1605,-3.1605,-3.1708,-3.1766,-3.1766,-3.1766,-3.1961,-3.2328,-3.2328,-3.2558,-1.4952,-1.5569,-1.645,-1.834,-1.9056,-1.9572,-2.0559,-2.1743,-2.2326,-2.0926,-2.2926,-2.494,-2.4945,-2.6406,-2.8484,-3.1269,-3.3388,-3.5726,-3.8717,-4.0756,-4.239,-4.358,-4.3722,-4.3722,-4.3781,-4.3839,-4.3814,0.0,0.0,0.0,-4.4693,-4.5121,-4.5291,-4.5291,-4.4984,-4.4787,-4.4869,-4.4787,-4.4529,-4.3944,-4.3211,-4.2446,-4.1863,-4.1038,-4.0061,-3.9033,0.0,0.0,0.0,-3.7141,-3.7035,-3.6978,-3.6978,-3.6978,-3.6978,-3.6978,-3.6627,-3.615,-3.615,-3.5784,-3.5395,-3.5395,-3.6079,-3.6978,-3.6978,-3.6978,-3.6978,-3.6978,-3.6585,-3.615,-3.615,-3.5742,-3.5133,-3.4862,-3.371,-3.2726,-3.2965,-3.2413,-3.1749,-3.1661,-3.0849,-3.0091,-2.9616,-2.9082,-2.8644,-2.8192,-2.8473,-2.885,-2.9035,-2.9128,-2.922,-2.9485,-2.9577,-2.9577,-2.9577,-2.9577,-2.968,-2.9886,-2.9931,-3.0034,-3.0296,-3.0801,-3.1077,-3.1077,-3.1536,-3.1766,-3.1766,-3.1766,-3.1777,-3.18,-3.1823,-3.1857,-1.4258,-1.5246,-1.6269,-1.7194,-1.8419,-1.9459,-1.9567,-2.1225,-2.2605,-2.24,-2.3844,-2.5449,-2.6456,-2.7334,-2.871,-3.1252,-3.2462,-3.418,-3.7297,-3.8805,-4.0315,-4.2226,-4.2848,-4.3551,0.0,0.0,-4.3873,0.0,0.0,0.0,-4.4026,-4.4202,-4.4047,-4.3663,-4.3465,-4.3359,-4.3313,-4.3313,-4.3193,-4.3008,-4.2671,-4.2121,-4.1374,-4.0987,-4.0076,-3.8767,0.0,0.0,0.0,-3.6192,-3.6318,-3.695,-3.6571,-3.6431,-3.6431,-3.6431,-3.6051,-3.5592,-3.5592,-3.5437,-3.5226,-3.5226,-3.5564,-3.5883,-3.5883,-3.5883,-3.5883,-3.5883,-3.57,-3.5442,-3.5141,-3.4172,-3.3184,-3.2439,-3.1852,-3.1444,-3.1571,-3.1368,-3.1138,-3.1138,-3.0798,-3.0483,-3.0289,-2.9519,-2.8836,-2.8661,-2.8454,-2.8331,-2.8422,-2.8767,-2.8943,-2.9035,-2.9301,-2.9485,-2.9485,-2.9485,-2.9588,-2.968,-2.968,-2.968,-2.976,-3.0159,-3.0376,-3.0376,-3.0651,-3.0836,-3.0836,-3.0836,-3.0996,-3.1306,-3.1318,-3.1479,-1.4202,-1.5378,-1.6434,-1.6985,-1.8491,-1.9876,-1.9728,-2.1584,-2.3421,-2.3623,-2.4784,-2.6163,-2.7414,-2.8003,-2.8964,-3.1133,-3.1996,-3.3484,-3.6605,-3.7949,-3.9484,-4.1971,0.0,-4.3664,0.0,-4.478,0.0,0.0,0.0,0.0,0.0,-4.3628,-4.332,-4.2791,-4.2518,-4.2285,-4.2183,-4.1986,-4.1956,-4.1957,-4.1878,-4.1485,-4.0907,-4.0645,-3.9726,-3.8364,0.0,0.0,0.0,-3.5578,-3.5658,-3.6402,-3.5967,-3.5798,-3.5798,-3.5798,-3.5405,-3.4885,-3.4885,-3.4773,-3.4618,-3.4618,-3.4618,-3.4618,-3.4618,-3.4857,-3.5152,-3.5004,-3.4715,-3.4223,-3.367,-3.2537,-3.1481,-3.0935,-3.0659,-3.0544,-3.0704,-3.0658,-3.0658,-3.0658,-3.0535,-3.0425,-3.0343,-2.9415,-2.8727,-2.8568,-2.812,-2.7818,-2.7818,-2.8123,-2.8331,-2.8331,-2.8818,-2.9145,-2.929,-2.9301,-2.9301,-2.9393,-2.9393,-2.9393,-2.9485,-2.9691,-2.9783,-2.9783,-2.9954,-3.0034,-3.0034,-3.0034,-3.0228,-3.0593,-3.0593,-3.0867,-1.5269,-1.6185,-1.7114,-1.8449,-1.9777,-2.1013,-2.186,-2.3506,-2.4737,-2.4198,-2.5705,-2.7104,-2.7176,-2.8031,-2.9233,-3.0855,-3.2327,-3.4314,-3.7295,-3.8942,-4.0832,-4.3476,-4.3768,-4.4405,-4.6013,-4.5421,0.0,0.0,0.0,0.0,0.0,-4.3628,-4.3568,-4.3432,-4.2468,-4.1999,-4.2015,-4.1377,-4.0991,-4.0991,-4.0588,-4.0437,-4.0377,-3.9565,-3.8627,0.0,0.0,0.0,0.0,-3.524,-3.524,-3.5254,-3.524,-3.524,-3.524,-3.524,-3.4773,-3.4181,-3.4181,-3.3845,-3.334,-3.334,-3.334,-3.334,-3.334,-3.4197,-3.5078,-3.4479,-3.3422,-3.2364,-3.1689,-3.1071,-3.07,-3.1035,-3.0624,-3.0319,-3.0618,-3.0658,-3.0658,-3.0658,-3.0311,-2.9792,-2.9386,-2.8692,-2.8087,-2.769,-2.7445,-2.7315,-2.7315,-2.7326,-2.7326,-2.7326,-2.7763,-2.8233,-2.8713,-2.885,-2.885,-2.9128,-2.9128,-2.922,-2.9485,-2.9485,-2.9485,-2.9485,-2.9485,-2.9485,-2.9485,-2.9485,-2.9485,-2.9497,-2.9497,-2.9777,-1.5879,-1.7099,-1.8339,-1.8994,-2.0553,-2.2072,-2.2593,-2.4263,-2.5664,-2.5804,-2.6852,-2.792,-2.8311,-2.9023,-3.036,-3.2628,-3.3383,-3.4692,-3.7674,-3.8187,-3.9122,-4.1525,-4.4054,-4.5815,0.0,0.0,0.0,0.0,0.0,0.0,0.0,-4.3628,-4.3337,-4.2824,-4.2518,-4.2285,-4.2183,-4.197,-4.2042,-4.2441,-4.2304,-4.2106,-4.1905,-4.1657,0.0,0.0,0.0,0.0,0.0,-3.4383,-3.4393,-3.5184,-3.4688,-3.4534,-3.4534,-3.4534,-3.414,-3.3607,-3.3607,-3.348,-3.3326,-3.3326,-3.3326,-3.3326,-3.3326,-3.3593,-3.3744,-3.3138,-3.2401,-3.1681,-3.1035,-3.0482,-3.0113,-3.0213,-3.003,-2.9924,-3.0019,-3.0057,-3.0057,-3.0057,-2.992,-2.9808,-2.965,-2.9059,-2.8554,-2.8486,-2.7934,-2.7502,-2.7502,-2.7556,-2.7503,-2.7315,-2.7646,-2.7931,-2.8233,-2.8571,-2.885,-2.885,-2.885,-2.8943,-2.9024,-2.9117,-2.922,-2.922,-2.9393,-2.9485,-2.9485,-2.9485,-2.9485,-2.9485,-2.9485,-2.9575,-1.7485,-1.8314,-1.9397,-1.9843,-2.1469,-2.3062,-2.3392,-2.4967,-2.6547,-2.6976,-2.7756,-2.8528,-2.9182,-2.9738,-3.0756,-3.2884,-3.3489,-3.4813,-3.8126,-3.801,-3.874,-4.169,0.0,0.0,0.0,0.0,0.0,0.0,0.0,0.0,0.0,-4.2783,-4.2585,-4.2121,-4.2369,-4.2477,-4.2376,-4.2096,-4.2104,-4.2473,-4.2473,-4.2337,-4.2157,-4.1975,0.0,0.0,0.0,0.0,0.0,-3.4168,-3.4101,-3.4754,-3.41,-3.3888,-3.3888,-3.3888,-3.3649,-3.3326,-3.3326,-3.3326,-3.3326,-3.3326,-3.3326,-3.3326,-3.3326,-3.3171,-3.2874,-3.2503,-3.1809,-3.1057,-3.0683,-3.0203,-2.9792,-2.9792,-2.9792,-2.9792,-2.9792,-2.9792,-2.9792,-2.9792,-2.9792,-2.9792,-2.9792,-2.9209,-2.8712,-2.8566,-2.7941,-2.7406,-2.725,-2.7278,-2.7223,-2.7039,-2.7302,-2.7622,-2.7745,-2.8118,-2.8404,-2.8404,-2.8495,-2.8495,-2.8495,-2.8586,-2.8765,-2.8862,-2.9045,-2.9134,-2.9209,-2.9209,-2.9209,-2.9209,-2.9209,-2.9209,0.0,-1.9906,-2.0382,-2.1101,-2.258,-2.3946,-2.4276,-2.5893,0.0,-2.7849,-2.8384,-2.909,-3.0043,-3.0303,-3.0849,-3.2336,-3.3211,-3.4933,-3.8607,-3.8725,-3.9834,0.0,-4.5548,0.0,0.0,0.0,0.0,0.0,0.0,0.0,0.0,-4.1409,-4.1409,-4.1409,-4.2071,-4.2435,-4.2435,-4.1756,-4.1409,-4.1409,-4.1409,-4.1409,-4.1409,-4.1025,0.0,0.0,0.0,0.0,0.0,-3.4298,-3.4041,-3.4016,-3.3408,-3.3213,-3.3255,-3.3255,-3.3255,-3.3255,-3.3312,-3.3297,-3.3241,-3.3199,-3.3185,-3.3185,-3.3185,-3.2875,-3.2489,-3.2417,-3.1576,-3.0683,-3.0607,-3.0203,-2.9792,-2.9792,-2.9792,-2.9792,-2.9792,-2.9792,-2.9792,-2.9792,-2.9792,-2.9792,-2.9792,-2.9287,-2.8724,-2.8339,-2.7753,-2.7103,-2.6798,-2.6644,-2.6644,-2.6644,-2.6976,-2.7256,-2.7256,-2.7565,-2.7701,-2.7701,-2.7876,-2.7964,-2.7964,-2.7964,-2.8099,-2.8376,-2.8387,-2.8506,-2.874,-2.8751,-2.8762,-2.8795,-2.8795,-2.8724,-2.2916,0.0,-2.2215,-2.279,-2.4332,-2.5815,0.0,-2.7466,-2.8842,-2.8591,-2.9166,-3.0194,-3.1819,-3.1933,-3.2773,-3.5914,-3.6294,-3.7197,-3.9841,-4.2502,0.0,-4.5548,-4.6063,-4.5813,0.0,0.0,0.0,0.0,0.0,0.0,0.0,-4.156,-4.1409,-4.1409,-4.1591,-4.1674,-4.1674,-4.1508,-4.1409,-4.1409,-4.1409,-4.1409,-4.1425,-4.1295,0.0,0.0,0.0,0.0,-3.5059,-3.3966,-3.36,-3.363,-3.2596,-3.2443,-3.2786,-3.2786,-3.2786,-3.2803,-3.3157,-3.3072,-3.2715,-3.2383,-3.2227,-3.216,-3.1811,-3.2484,-3.3227,-3.2775,-3.2101,-3.1415,-3.097,-3.0343,-2.9792,-2.9792,-2.9792,-2.9792,-2.9792,-2.9792,-2.9792,-2.9792,-2.9792,-2.9792,-2.9792,-2.9702,-2.9546,-2.9468,-2.8578,-2.7926,-2.7857,-2.7208,-2.6809,-2.6644,-2.6828,-2.6907,-2.6813,-2.7461,-2.7964,-2.7964,-2.7964,-2.7964,-2.7964,-2.7964,-2.802,-2.8043,-2.8054,-2.811,-2.821,-2.8033,-2.8142,-2.8506,-2.8313,-2.8407,-2.4904,-2.4663,-2.4552,-2.5151,-2.638,-2.761,-2.7968,-2.8774,-2.938,-2.9241,-2.975,-3.0714,-3.2294,-3.2797,-3.3898,-3.6776,-3.7386,0.0,0.0,0.0,-4.6418,-4.6551,-4.6354,0.0,0.0,0.0,0.0,0.0,0.0,0.0,0.0,-4.0679,-4.0463,-4.0431,-4.0431,-4.0746,-4.1409,-4.1409,-4.1409,-4.1409,-4.1409,-4.1409,-4.1409,-4.1409,0.0,0.0,0.0,0.0,-3.5253,-3.401,-3.3568,-3.3573,-3.2551,-3.2299,-3.2468,-3.235,-3.2283,-3.2326,-3.2546,-3.25,-3.2227,-3.1952,-3.1917,-3.1772,-3.1377,-3.1839,-3.2455,-3.1736,-3.1087,-3.0572,-3.0137,-2.9691,-2.9327,-2.9076,-2.9415,-2.9716,-2.9453,-2.9603,-2.9792,-2.9792,-2.9792,-2.9792,-2.9792,-2.9792,-2.9714,-2.9546,-2.8828,-2.8259,-2.8111,-2.7464,-2.6985,-2.6891,-2.6974,-2.6974,-2.6891,-2.7318,-2.7623,-2.7538,-2.7538,-2.7623,-2.7623,-2.7623,-2.7651,-2.779,-2.7939,-2.7964,-2.7964,-2.7876,-2.801,-2.8188,-2.8088,-2.8131,-2.6522,-2.7011,-2.736,-2.7632,-2.8421,-2.9345,-3.0011,-2.9897,-2.9677,-2.9924,-3.0335,-3.1089,-3.2513,-3.3511,-3.4812,-3.6783,-3.779,0.0,-3.998,-4.3489,-4.6171,-4.6786,-4.6081,0.0,0.0,0.0,0.0,0.0,0.0,0.0,0.0,-3.9463,-3.9057,-3.9046,-3.8994,-3.9537,-4.0746,-4.0978,-4.1094,-4.1094,-4.0978,-4.0928,-4.0928,-4.0812,-3.9951,0.0,0.0,0.0,-3.514,-3.4016,-3.3562,-3.344,-3.2426,-3.211,-3.2133,-3.189,-3.176,-3.1775,-3.1775,-3.184,-3.1825,-3.1711,-3.1682,-3.1618,-3.1148,-3.1082,-3.1082,-3.0215,-2.9651,-2.9293,-2.9093,-2.889,-2.8687,-2.8222,-2.8837,-2.9402,-2.8913,-2.9189,-2.9553,-2.9641,-2.9591,-2.9566,-2.9641,-2.9591,-2.9374,-2.904,-2.8572,-2.8136,-2.7912,-2.7441,-2.7151,-2.7219,-2.7231,-2.7231,-2.7231,-2.7231,-2.7149,-2.6974,-2.7149,-2.7231,-2.7231,-2.7231,-2.7273,-2.7527,-2.7786,-2.7914,-2.7914,-2.7827,-2.7861,-2.7939,-2.7852,-2.7886,-2.876,-3.0282,-3.0932,-2.9337,-2.9845,-3.0783,-3.0919,-3.1033,-3.1044,-3.0657,-3.1033,-3.2162,-3.4478,-3.5104,-3.6085,-3.8667,-3.9658,-4.0683,0.0,0.0,-4.382,-4.6046,0.0,0.0,0.0,0.0,0.0,0.0,0.0,0.0,0.0,0.0,-3.805,-3.8051,-3.7653,-3.76,-3.7935,-3.9043,-3.9603,-3.9587,-3.899,-3.8709,-3.8676,-3.8046,-3.7196,0.0,0.0,-3.5398,-3.409,-3.3066,-3.2764,-3.2683,-3.1217,-3.0883,-3.1182,-3.1197,-3.1133,-3.1182,-3.1323,-3.1386,-3.1363,-3.0924,-3.0812,-3.0675,-3.0168,-3.0043,-2.9904,-2.9206,-2.9255,-2.9465,-2.9293,-2.8728,-2.821,-2.8122,-2.8235,-2.8348,-2.8247,-2.8298,-2.8499,-2.8963,-2.8687,-2.8511,-2.8988,-2.8674,-2.836,-2.8287,-2.7592,-2.7308,-2.7699,-2.7053,-2.6749,-2.7185,-2.7231,-2.7231,-2.7231,-2.7231,-2.7149,-2.7149,-2.7149,-2.7231,-2.7231,-2.7231,-2.7183,-2.7264,-2.7344,-2.7295,-2.7295,-2.713,-2.7261,-2.768,-2.7231,-2.728,-2.8449,-3.0297,-3.1768,-3.1489,-3.2561,-3.3699,-3.3938,-3.3561,-3.3055,-3.2814,-3.2959,-3.3671,-3.5498,-3.611,-3.7071,-3.9446,0.0,-4.2468,-4.2326,-4.3782,-4.4561,0.0,0.0,0.0,0.0,0.0,0.0,0.0,0.0,0.0,0.0,0.0,-3.7256,-3.7064,-3.6804,-3.692,-3.732,-3.7935,-3.8399,-3.8781,-3.8811,-3.8775,-3.8758,-3.7804,-3.702,-3.6357,0.0,-3.4413,-3.3566,-3.2779,-3.2458,-3.245,-3.1559,-3.1235,-3.1139,-3.0773,-3.0711,-3.0773,-3.0895,-3.0895,-3.0913,-3.0669,-3.0568,-3.0447,-2.956,-2.9233,-2.9044,-2.7947,-2.8145,-2.8554,-2.835,-2.7972,-2.7582,-2.7293,-2.767,-2.8021,-2.772,-2.7896,-2.8185,-2.8436,-2.8285,-2.8185,-2.8448,-2.8273,-2.8109,-2.8109,-2.7582,-2.7296,-2.7563,-2.6901,-2.6442,-2.6686,-2.6805,-2.6818,-2.6818,-2.707,-2.7231,-2.7231,-2.7231,-2.7231,-2.7231,-2.7231,-2.7231,-2.7231,-2.7231,-2.7231,-2.7231,-2.7149,-2.7181,-2.7409,-2.7148,-2.7189,-2.8333,-3.0092,-3.1922,-3.3248,-3.4253,-3.526,-3.6538,-3.5598,-3.4553,-3.4977,-3.5029,-3.5277,-3.6202,-3.7164,-3.8401,-4.0153,-4.2729,-4.3896,-4.2115,-4.4109,0.0,0.0,0.0,0.0,0.0,0.0,0.0,0.0,0.0,0.0,0.0,0.0,-3.6734,-3.6061,-3.6058,-3.629,-3.6787,-3.697,-3.7419,-3.8186,-3.8484,-3.8615,-3.8598,-3.7524,-3.6743,-3.614,-3.4711,-3.3818,-3.3249,-3.2669,-3.2398,-3.2358,-3.2205,-3.1865,-3.1412,-3.0556,-3.0437,-3.0687,-3.0628,-3.0568,-3.0568,-3.0568,-3.0568,-3.0387,-2.931,-2.898,-2.8725,-2.7497,-2.743,-2.7643,-2.7364,-2.7169,-2.6979,-2.6634,-2.7105,-2.7607,-2.718,-2.7419,-2.7758,-2.7896,-2.7808,-2.7758,-2.7896,-2.7808,-2.772,-2.772,-2.7358,-2.7115,-2.7164,-2.6569,-2.6089,-2.6142,-2.6283,-2.629,-2.629,-2.6645,-2.6875,-2.6875,-2.7105,-2.7231,-2.7231,-2.7231,-2.7231,-2.7231,-2.7231,-2.7231,-2.7231,-2.7231,-2.7231,-2.7231,-2.7149,-2.7149,-3.0036,-3.1299,-3.2366,-3.4008,-3.3386,-3.3322,-3.696,-3.5975,-3.4771,-3.6324,-3.6732,-3.6834,-3.6852,-3.8769,-4.0564,-4.1266,-4.3725,-4.4858,-4.2995,0.0,0.0,0.0,0.0,0.0,0.0,0.0,0.0,0.0,0.0,0.0,0.0,0.0,0.0,-3.5067,-3.5015,-3.5079,-3.5255,-3.5937,-3.6719,-3.7552,-3.6917,-3.6599,-3.6566,-3.583,-3.5035,-3.426,-3.4163,-3.367,-3.2905,-3.2539,-3.2398,-3.2404,-3.2445,-3.2348,-3.2035,-3.0572,-3.0397,-3.0911,-3.0687,-3.0568,-3.0568,-3.0568,-3.0568,-3.0447,-2.9747,-2.956,-2.9359,-2.857,-2.7986,-2.7351,-2.6714,-2.6559,-2.6584,-2.6533,-2.6584,-2.6634,-2.6596,-2.6622,-2.6728,-2.7243,-2.6929,-2.6741,-2.7256,-2.6917,-2.6647,-2.6647,-2.63,-2.6064,-2.6214,-2.5811,-2.5627,-2.5735,-2.575,-2.5761,-2.5761,-2.5796,-2.5819,-2.5819,-2.6703,-2.7231,-2.7231,-2.7231,-2.7231,-2.7231,-2.7231,-2.7231,-2.7231,-2.7231,-2.7231,-2.7231,-2.6985,-2.6891,-2.8522,-3.0243,-3.202,-3.36,-3.3913,-3.4423,-3.674,-3.7294,-3.7616,-3.8597,-3.8742,-3.8483,-3.7555,-3.9451,-4.1111,-4.0919,-4.2962,-4.4361,0.0,0.0,0.0,0.0,0.0,0.0,0.0,0.0,0.0,0.0,0.0,0.0,0.0,0.0,0.0,-3.4941,-3.4897,-3.4935,-3.4958,-3.5338,-3.5702,-3.6145,-3.6798,-3.705,-3.7034,-3.599,-3.5251,-3.4748,-3.4008,-3.3113,-3.2226,-3.2104,-3.1803,-3.1356,-3.1104,-3.1031,-3.09,-2.9781,-2.9599,-2.9891,-2.9564,-2.945,-2.9522,-2.9522,-2.9769,-2.9944,-2.8938,-2.911,-2.9275,-2.7776,-2.7446,-2.7417,-2.7162,-2.6782,-2.6533,-2.6533,-2.6533,-2.6533,-2.6533,-2.6533,-2.6584,-2.6728,-2.6672,-2.6596,-2.6798,-2.6603,-2.6533,-2.6533,-2.6396,-2.6193,-2.5981,-2.5624,-2.5336,-2.5133,-2.5188,-2.5348,-2.5681,-2.5716,-2.5716,-2.5716,-2.6071,-2.629,-2.629,-2.629,-2.629,-2.629,-2.629,-2.629,-2.629,-2.629,-2.629,-2.629,-2.6211,-2.6371,-2.8322,-3.0177,-3.2244,-3.3834,-3.4579,-3.5324,-3.6801,-3.8027,-3.9122,-3.9983,-3.9885,-3.9349,-3.8363,-3.9817,-4.0984,0.0,-4.21,0.0,0.0,0.0,0.0,0.0,0.0,0.0,0.0,0.0,0.0,0.0,0.0,0.0,0.0,0.0,0.0,0.0,-3.5115,-3.4885,-3.4918,-3.4998,-3.5128,-3.5261,-3.6281,-3.6831,-3.6846,-3.5787,-3.5053,-3.4592,-3.3496,-3.2517,-3.1596,-3.1596,-3.142,-3.1119,-3.0397,-3.0371,-3.0628,-2.9554,-2.9325,-2.9535,-2.9057,-2.8961,-2.9016,-2.892,-2.907,-2.903,-2.8095,-2.8148,-2.8243,-2.6694,-2.6492,-2.6817,-2.6817,-2.6649,-2.6533,-2.6533,-2.6533,-2.6533,-2.6533,-2.6533,-2.6533,-2.6533,-2.6533,-2.6533,-2.6533,-2.6533,-2.6533,-2.6533,-2.6533,-2.6314,-2.598,-2.5676,-2.5324,-2.4861,-2.4719,-2.4832,-2.5199,-2.5233,-2.5233,-2.5233,-2.5233,-2.5383,-2.5704,-2.5716,-2.5716,-2.5716,-2.5716,-2.5716,-2.5716,-2.5716,-2.5716,-2.5716,-2.5716,-2.5899,-3.0166,-3.1607,-3.3314,-3.4966,-3.5203,-3.5492,-3.7224,-3.7882,-3.8577,-4.0255,-3.993,-3.929,-3.921,-3.9863,0.0,-4.023,-4.1315,0.0,0.0,0.0,0.0,0.0,0.0,0.0,0.0,0.0,0.0,0.0,0.0,0.0,0.0,0.0,0.0,0.0,-3.5651,-3.4901,-3.4918,-3.4925,-3.4968,-3.5088,-3.5245,-3.5354,-3.5475,-3.4817,-3.4119,-3.3381,-3.2629,-3.19,-3.1207,-3.1207,-3.1502,-3.1836,-3.0669,-3.0854,-3.1581,-3.0061,-2.9832,-3.0179,-2.952,-2.9262,-2.9208,-2.8946,-2.8482,-2.788,-2.7371,-2.6775,-2.6193,-2.5471,-2.5294,-2.5294,-2.5294,-2.5876,-2.6508,-2.6521,-2.6521,-2.6521,-2.6533,-2.6533,-2.6533,-2.6533,-2.6533,-2.6533,-2.6533,-2.6533,-2.6533,-2.6533,-2.6533,-2.6314,-2.598,-2.591,-2.563,-2.4861,-2.4418,-2.42,-2.42,-2.42,-2.42,-2.42,-2.42,-2.4648,-2.5658,-2.5704,-2.5704,-2.5704,-2.5704,-2.5704,-2.5704,-2.5704,-2.5704,-2.5704,-2.5704,-2.5704,-2.8751,-3.0764,-3.3236,-3.4347,-3.6262,-3.8029,-3.8594,-3.9051,-3.966,-4.075,-4.0553,-4.005,-3.9508,-3.9952,0.0,-4.14,0.0,0.0,0.0,0.0,0.0,0.0,0.0,0.0,0.0,0.0,0.0,0.0,0.0,0.0,0.0,0.0,0.0,0.0,-3.6079,-3.5552,-3.5407,-3.5048,-3.4925,-3.4947,-3.5105,-3.5291,-3.5492,-3.5284,-3.4985,-3.4565,-3.3524,-3.2543,-3.1502,-3.0244,-2.9817,-2.9911,-2.9564,-2.9643,-2.9799,-2.9088,-2.8701,-2.8571,-2.8106,-2.7823,-2.7665,-2.7574,-2.7527,-2.7398,-2.6873,-2.706,-2.7211,-2.5882,-2.6008,-2.6342,-2.5484,-2.5486,-2.5779,-2.6095,-2.613,-2.6177,-2.6569,-2.6589,-2.6533,-2.6533,-2.6533,-2.6533,-2.6533,-2.6533,-2.6533,-2.6533,-2.6533,-2.6245,-2.5606,-2.5265,-2.4921,-2.4418,-2.4273,-2.42,-2.42,-2.42,-2.42,-2.42,-2.42,-2.4326,-2.4636,-2.4648,-2.4648,-2.4648,-2.4648,-2.4648,-2.4648,-2.4648,-2.4648,-2.4648,-2.4648,-2.4832,-3.0698,-3.2671,-3.4867,-3.6388,-3.7954,-3.9202,-3.9547,-3.9814,-4.0089,-4.0488,-4.0424,-4.0177,-3.9821,-3.9958,0.0,0.0,0.0,0.0,0.0,0.0,0.0,0.0,0.0,0.0,0.0,0.0,0.0,0.0,0.0,0.0,0.0,0.0,0.0,0.0,-3.6017,-3.5513,-3.5616,-3.514,-3.4878,-3.4899,-3.4994,-3.5135,-3.5337,-3.5098,-3.481,-3.4432,-3.291,-3.1706,-3.0639,-2.9562,-2.9075,-2.9075,-2.9075,-2.9075,-2.9075,-2.8826,-2.8559,-2.8319,-2.7795,-2.7509,-2.7321,-2.7107,-2.6934,-2.6757,-2.6519,-2.6661,-2.672,-2.5615,-2.5662,-2.5886,-2.5058,-2.4826,-2.4957,-2.5614,-2.5742,-2.5779,-2.6044,-2.6054,-2.6,-2.6,-2.6,-2.6,-2.6,-2.6177,-2.6261,-2.6261,-2.6246,-2.6032,-2.5383,-2.5004,-2.4718,-2.449,-2.4273,-2.42,-2.42,-2.42,-2.42,-2.42,-2.42,-2.42,-2.42,-2.42,-2.42,-2.42,-2.42,-2.42,-2.42,-2.42,-2.42,-2.42,-2.42,-2.4349,-3.4308,-3.5849,-3.7165,-3.9638,-3.9746,-3.9429,-4.0133,-4.0157,-3.9966,-3.9873,-3.9848,-3.9905,-4.0075,-3.9894,-3.9637,0.0,0.0,0.0,0.0,0.0,0.0,0.0,0.0,0.0,0.0,0.0,0.0,0.0,0.0,0.0,0.0,0.0,0.0,0.0,-3.5567,-3.5077,-3.548,-3.4992,-3.4743,0.0,-3.4714,-3.4761,-3.4788,-3.443,-3.401,-3.3425,-3.1528,-3.0099,-2.917,-2.9107,-2.9091,-2.9075,-2.9075,-2.9075,-2.9075,-2.9075,-2.9075,-2.8936,-2.8158,-2.7864,-2.778,-2.7181,-2.6568,-2.6111,-2.6244,-2.5851,-2.53,-2.4878,-2.4778,-2.4677,-2.4229,-2.4112,-2.4255,-2.5034,-2.5192,-2.523,-2.5281,-2.5294,-2.5294,-2.5294,-2.5294,-2.5294,-2.5294,-2.56,-2.5879,-2.5879,-2.584,-2.5716,-2.5277,-2.4972,-2.472,-2.4648,-2.4279,-2.4074,-2.412,-2.4131,-2.4143,-2.42,-2.42,-2.42,-2.42,-2.42,-2.42,-2.42,-2.42,-2.42,-2.42,-2.42,-2.42,-2.42,-2.42,-2.42,-3.2249,-3.3558,-3.5361,-3.7828,-3.9377,-4.0277,-4.0304,-3.9823,-3.9517,-4.0005,-4.0099,-4.0099,-4.011,-3.9883,0.0,0.0,0.0,0.0,0.0,0.0,0.0,0.0,0.0,0.0,0.0,0.0,0.0,0.0,0.0,0.0,0.0,0.0,0.0,-3.5383,-3.5069,-3.4822,-3.4658,-3.4114,-3.3525,0.0,-3.3222,-3.3029,-3.2557,-3.4155,-3.4289,-3.3063,-3.1791,-3.0623,-2.9607,-2.906,-2.8873,-2.8873,-2.8936,-2.8889,-2.8873,-2.9045,-2.8858,-2.8477,-2.8076,-2.7745,-2.7423,-2.6989,-2.65,-2.6111,-2.6111,-2.5811,-2.53,-2.4878,-2.4778,-2.4677,-2.4229,-2.4112,-2.4119,-2.4307,-2.4589,-2.4968,-2.5394,-2.5358,-2.5294,-2.5294,-2.5294,-2.5294,-2.5294,-2.5397,-2.5422,-2.5422,-2.546,-2.5291,-2.4853,-2.4413,-2.4018,-2.3736,-2.327,-2.3167,-2.3569,-2.3532,-2.3775,-2.4166,-2.42,-2.42,-2.42,-2.42,-2.42,-2.42,-2.42,-2.42,-2.42,-2.42,-2.42,-2.42,-2.42,-2.42,-3.2422,-3.3795,-3.5276,-3.7386,-3.8612,-3.9296,-3.9215,-3.8935,-3.8704,-3.8793,-3.8915,-3.8727,-3.7776,-3.821,0.0,0.0,0.0,0.0,0.0,0.0,0.0,0.0,0.0,0.0,0.0,0.0,0.0,0.0,0.0,0.0,0.0,-3.5545,-3.535,-3.4005,-3.3942,-3.4019,-3.4202,-3.3744,-3.3059,-3.215,-3.2361,-3.2017,-3.1366,-3.3145,-3.3195,-3.1869,-3.1309,-3.0386,-2.9309,-2.895,-2.8794,-2.8794,-2.8858,-2.8858,-2.8858,-2.8982,-2.8889,-2.8668,-2.8319,-2.8076,-2.786,-2.7458,-2.7049,-2.6698,-2.6698,-2.6418,-2.5988,-2.555,-2.5397,-2.5286,-2.462,-2.4447,-2.439,-2.4171,-2.4288,-2.4468,-2.4754,-2.4745,-2.4758,-2.4758,-2.4758,-2.4758,-2.4758,-2.4854,-2.5034,-2.5034,-2.5001,-2.4874,-2.4469,-2.4026,-2.3592,-2.3459,-2.3001,-2.2788,-2.3052,-2.3075,-2.319,-2.3454,-2.3465,-2.3465,-2.3465,-2.3465,-2.3695,-2.4189,-2.42,-2.42,-2.42,-2.42,-2.42,-2.42,-2.42,-2.42,-3.2711,-3.4551,-3.5965,-3.7525,-3.8005,-3.8097,-3.7998,-3.793,-3.7762,-3.7363,-3.751,-3.7106,-3.5227,0.0,0.0,0.0,0.0,0.0,0.0,0.0,0.0,0.0,0.0,0.0,0.0,0.0,0.0,0.0,0.0,0.0,-3.2755,-3.3894,-3.4055,-3.2914,-3.2892,-3.3164,-3.3804,-3.3431,-3.2734,-3.1722,-3.1616,-3.1282,-3.0848,-3.1898,-3.1813,-3.0787,-3.0521,-2.9863,-2.895,-2.8794,-2.8747,-2.8747,-2.8747,-2.8763,-2.8826,-2.8873,-2.8936,-2.8982,-2.8637,-2.8479,-2.8415,-2.7963,-2.761,-2.7401,-2.7299,-2.6989,-2.6568,-2.6111,-2.5948,-2.5674,-2.4892,-2.4677,-2.4563,-2.4171,-2.4112,-2.4112,-2.4112,-2.4112,-2.4112,-2.4112,-2.4112,-2.4112,-2.4112,-2.4398,-2.4589,-2.4589,-2.4606,-2.4457,-2.4113,-2.3622,-2.3239,-2.3239,-2.2799,-2.2455,-2.2547,-2.2547,-2.2593,-2.2673,-2.2685,-2.2685,-2.2685,-2.2685,-2.3075,-2.3913,-2.3936,-2.3936,-2.3936,-2.3936,-2.3936,-2.3936,-2.4028,-2.4062,-3.0402,-3.3626,-3.6658,-3.7651,-3.8469,-3.8831,-3.8078,-3.7445,-3.7024,0.0,-3.7479,-3.7107,0.0,0.0,0.0,0.0,0.0,0.0,0.0,0.0,0.0,0.0,0.0,0.0,0.0,0.0,0.0,0.0,0.0,0.0,-3.396,-3.3461,-3.3113,-3.2902,-3.2915,-3.2933,-3.3057,-3.2494,-3.1826,-3.1045,-3.0442,-3.0415,-3.0871,-3.1072,-3.1148,-3.1043,-2.9779,-2.9438,-2.9671,-2.8821,-2.8444,-2.846,-2.8589,-2.8589,-2.8493,-2.8747,-2.8842,-2.8794,-2.8493,-2.8462,-2.8367,-2.7675,-2.7437,-2.735,-2.6989,-2.6553,-2.6111,-2.5632,-2.5258,-2.4835,-2.4345,-2.4171,-2.4171,-2.4112,-2.4112,-2.4112,-2.4112,-2.4112,-2.4112,-2.4112,-2.4112,-2.4112,-2.4112,-2.4119,-2.4171,-2.4171,-2.4177,-2.4131,-2.4112,-2.3276,-2.269,-2.269,-2.1902,-2.1548,-2.1984,-2.203,-2.2214,-2.265,-2.2685,-2.2685,-2.2685,-2.2685,-2.2742,-2.288,-2.288,-2.288,-2.288,-2.288,-2.288,-2.2891,-2.3339,-2.3546,-3.0379,-3.2735,-3.4783,-3.6071,-3.6731,-3.6953,-3.6535,-3.6219,-3.5916,-3.5537,-3.5519,-3.5255,0.0,0.0,0.0,0.0,0.0,0.0,0.0,0.0,0.0,0.0,0.0,0.0,0.0,0.0,0.0,0.0,0.0,-3.3164,-3.3539,-3.3593,-3.3003,-3.1609,-3.2331,-3.2481,-3.2001,-3.209,-3.1673,-3.0681,-2.9819,-2.9542,-2.9842,-2.9842,-3.0172,-3.0625,-2.9403,-2.892,-2.8854,-2.7844,-2.7628,-2.7906,-2.7953,-2.8185,-2.8541,-2.8636,-2.8747,-2.8794,-2.8716,-2.8685,-2.8669,-2.8446,-2.8204,-2.7959,-2.7545,-2.7152,-2.675,-2.6312,-2.6056,-2.5729,-2.5048,-2.4808,-2.4708,-2.4229,-2.4112,-2.4112,-2.4112,-2.4112,-2.4112,-2.4112,-2.4112,-2.4112,-2.4112,-2.4112,-2.4112,-2.4112,-2.4112,-2.4112,-2.4112,-2.3497,-2.2932,-2.2665,-2.2002,-2.1556,-2.1479,-2.1502,-2.1594,-2.1812,-2.1824,-2.1824,-2.1824,-2.1824,-2.1824,-2.1824,-2.2386,-2.2685,-2.2685,-2.2685,-2.2685,-2.2685,-2.2903,-2.3018,-2.9855,-3.1373,-3.2516,-3.3987,-3.486,-3.5364,-3.5315,-3.5364,-3.5206,0.0,-3.3857,0.0,0.0,0.0,0.0,0.0,0.0,0.0,0.0,0.0,0.0,0.0,0.0,0.0,0.0,0.0,0.0,0.0,0.0,-3.291,-3.3257,-3.3807,-3.2799,-2.9953,-3.1159,-3.1596,-3.1091,-3.1458,-3.1168,-3.0192,-2.9561,-2.9262,-2.9279,-2.9448,-2.9916,-3.0468,-2.9123,-2.8452,-2.8247,-2.7177,-2.6943,-2.7302,-2.7302,-2.7612,-2.8124,-2.8248,-2.842,-2.8545,-2.8779,-2.8873,-2.892,-2.892,-2.8716,-2.8415,-2.7929,-2.761,-2.7299,-2.6779,-2.6621,-2.6394,-2.5481,-2.5245,-2.5021,-2.4274,-2.4112,-2.4112,-2.4112,-2.4112,-2.4112,-2.4112,-2.4112,-2.4112,-2.4112,-2.4112,-2.4112,-2.4112,-2.4112,-2.4112,-2.4112,-2.37,-2.3198,-2.2665,-2.2175,-2.1702,-2.1221,-2.1221,-2.1221,-2.1221,-2.1221,-2.1221,-2.1221,-2.1221,-2.1221,-2.1221,-2.1904,-2.2294,-2.2294,-2.2294,-2.2294,-2.2294,-2.2432,-2.249,-2.755,-2.9198,-3.0702,-3.1799,-3.371,-3.5296,-3.5315,-3.5364,-3.536,-3.5264,-3.3508,0.0,0.0,0.0,0.0,0.0,0.0,0.0,0.0,0.0,0.0,0.0,0.0,0.0,0.0,0.0,0.0,0.0,0.0,-3.3752,-3.3743,-3.3799,-3.2068,-2.8235,-2.9195,-2.9988,-3.0427,-3.0109,-2.9746,-2.9368,-2.9813,-3.004,-3.0074,-3.0768,-3.1123,-3.1027,-2.881,-2.8192,-2.864,-2.7265,-2.6723,-2.6738,-2.6738,-2.6769,-2.6878,-2.7364,-2.7643,-2.7874,-2.8561,-2.8858,-2.8858,-2.8606,-2.8511,-2.8383,-2.7625,-2.7401,-2.7233,-2.6379,-2.6111,-2.5948,-2.5061,-2.4835,-2.4734,-2.4229,-2.4112,-2.4112,-2.4112,-2.4112,-2.4112,-2.4112,-2.4112,-2.4112,-2.4112,-2.4112,-2.4112,-2.4112,-2.4112,-2.4112,-2.4112,-2.37,-2.3198,-2.2665,-2.2175,-2.1702,-2.1221,-2.1221,-2.1221,-2.1221,-2.1221,-2.1221,-2.1221,-2.1221,-2.1221,-2.1221,-2.1279,-2.1302,-2.1302,-2.1302,-2.1302,-2.1314,-2.1743,-2.1962,-2.7511,-2.8675,-2.9802,-3.0657,-3.3179,-3.4834,-3.2555,-3.3719,-3.5072,-3.4347,0.0,0.0,0.0,0.0,0.0,0.0,0.0,0.0,0.0,0.0,0.0,0.0,0.0,0.0,0.0,0.0,0.0,0.0,0.0,0.0,-3.3696,-3.1832,-2.9953,-2.8307,-2.9173,-2.9852,-3.0256,-3.0036,-2.9874,-2.9758,-2.9626,-2.9602,-2.9602,-2.9709,-2.977,-2.9736,-2.8693,-2.8626,-2.918,-2.7315,-2.6793,-2.7074,-2.6376,-2.6358,-2.6723,-2.6927,-2.7005,-2.7143,-2.7859,-2.8185,-2.8293,-2.867,-2.8811,-2.8779,-2.8238,-2.8107,-2.7944,-2.7167,-2.6922,-2.675,-2.5839,-2.5619,-2.5453,-2.4734,-2.4563,-2.4447,-2.4067,-2.4067,-2.4112,-2.4112,-2.4112,-2.4112,-2.4112,-2.4112,-2.4112,-2.4112,-2.4112,-2.4112,-2.4112,-2.3936,-2.3556,-2.2665,-2.2482,-2.2063,-2.1285,-2.1221,-2.1221,-2.1221,-2.1221,-2.1221,-2.1221,-2.1221,-2.1221,-2.1221,-2.1221,-2.1221,-2.1221,-2.1221,-2.1221,-2.1233,-2.1353,-2.1433,-2.683,-2.7418,-2.8014,-2.8497,-3.1212,-3.3128,-3.0803,-3.2823,-3.4669,-3.2833,0.0,0.0,0.0,0.0,0.0,0.0,0.0,0.0,0.0,0.0,0.0,0.0,0.0,0.0,0.0,0.0,0.0,0.0,0.0,0.0,-3.2088,-3.0143,-2.8833,-2.8484,-2.8927,-2.9294,-2.9526,-2.9325,-2.9215,-2.9215,-2.9105,-2.9025,-2.8939,-2.9038,-2.9066,-2.8975,-2.8757,-2.8875,-2.911,-2.7525,-2.7106,-2.7368,-2.6572,-2.6329,-2.6495,-2.6686,-2.6623,-2.6514,-2.7186,-2.7525,-2.7724,-2.84,-2.8712,-2.876,-2.8544,-2.8415,-2.8174,-2.759,-2.7299,-2.6974,-2.6096,-2.566,-2.5342,-2.4892,-2.4778,-2.4677,-2.4287,-2.4112,-2.3995,-2.3936,-2.3936,-2.3936,-2.3936,-2.3936,-2.3936,-2.3936,-2.3936,-2.3936,-2.3936,-2.3936,-2.3556,-2.2616,-2.2555,-2.2199,-2.1285,-2.1221,-2.1221,-2.1221,-2.1221,-2.1221,-2.1221,-2.1221,-2.1221,-2.1221,-2.1221,-2.1221,-2.1221,-2.1221,-2.1221,-2.1221,-2.1221,-2.1221,0.0,0.0,0.0,-2.5317,-2.7781,-3.0227,-3.0237,0.0,-3.4139,-3.0858,0.0,0.0,0.0,0.0,0.0,0.0,0.0,0.0,0.0,0.0,0.0,0.0,0.0,0.0,0.0,0.0,0.0,0.0,0.0,-2.9012,-2.8993,-2.8934,-2.8832,-2.8621,-2.8308,-2.8183,-2.8219,-2.7876,-2.7713,-2.7701,-2.832,-2.8447,-2.8218,-2.8905,-2.9124,-2.896,-2.8977,-2.8777,-2.8443,-2.7867,-2.7614,-2.7573,-2.7254,-2.6672,-2.6119,-2.6686,-2.6439,-2.5937,-2.6675,-2.6954,-2.7135,-2.7905,-2.8155,-2.8265,-2.8451,-2.8271,-2.7864,-2.7524,-2.7144,-2.6606,-2.5687,-2.4821,-2.4287,-2.4734,-2.4778,-2.4778,-2.4778,-2.4287,-2.3819,-2.3688,-2.3628,-2.3628,-2.3628,-2.3628,-2.3628,-2.3628,-2.3628,-2.3628,-2.3628,-2.3628,-2.3318,-2.2482,-2.242,-2.2099,-2.1285,-2.1221,-2.1221,-2.1221,-2.1221,-2.1221,-2.1221,-2.1221,-2.1221,-2.1221,-2.1221,-2.1221,-2.1221,-2.1221,-2.1221,-2.1221,-2.1221,-2.1221,-2.5765,0.0,0.0,0.0,0.0,0.0,0.0,0.0,-3.1322,-3.039,0.0,0.0,0.0,0.0,0.0,0.0,0.0,0.0,0.0,0.0,0.0,0.0,0.0,0.0,0.0,0.0,0.0,0.0,-2.9332,-2.9138,-2.9005,-2.7915,-2.7711,-2.8639,-2.7882,-2.77,-2.8109,-2.8119,-2.8063,-2.7911,-2.7988,-2.7987,-2.7897,-2.7987,-2.7851,-2.7673,-2.8186,-2.8235,-2.802,-2.8184,-2.8089,-2.7867,-2.7557,-2.7169,-2.683,-2.6977,-2.693,-2.6851,-2.7413,-2.7677,-2.786,-2.8509,-2.8775,-2.8869,-2.8919,-2.8873,-2.8685,-2.8253,-2.7845,-2.7429,-2.663,-2.6218,-2.5893,-2.5258,-2.5077,-2.4865,-2.3969,-2.3641,-2.3688,-2.4189,-2.4234,-2.4131,-2.3675,-2.3628,-2.3628,-2.3628,-2.3628,-2.3628,-2.3628,-2.3628,-2.3378,-2.2848,-2.2787,-2.2408,-2.1651,-2.1526,-2.1474,-2.1233,-2.1221,-2.1221,-2.1221,-2.1221,-2.1221,-2.1221,-2.1221,-2.1221,-2.1221,-2.1221,-2.1221,-2.1221,-2.1221,-2.1221,-2.613,-2.6448,-2.6775,-2.5578,0.0,0.0,-2.5466,-2.6725,0.0,0.0,0.0,0.0,0.0,0.0,0.0,0.0,0.0,0.0,0.0,0.0,0.0,0.0,0.0,0.0,0.0,0.0,0.0,-2.9701,-2.9566,-2.8773,-2.7163,-2.6588,-2.6794,-2.7821,-2.7543,-2.7543,-2.7893,-2.8164,-2.8237,-2.8073,-2.7904,-2.773,-2.763,-2.7539,-2.7293,-2.6957,-2.7434,-2.7488,-2.7296,-2.7875,-2.8355,-2.8629,-2.8142,-2.7865,-2.771,-2.7553,-2.7336,-2.7162,-2.7469,-2.7624,-2.7759,-2.8036,-2.8207,-2.8297,-2.8268,-2.8133,-2.7936,-2.7519,-2.6901,-2.6356,-2.6389,-2.6098,-2.5799,-2.5645,-2.5591,-2.537,-2.4694,-2.4694,-2.4637,-2.406,-2.4118,-2.4118,-2.3497,-2.3839,-2.4015,-2.3497,-2.3616,-2.3734,-2.3437,-2.3378,-2.3258,-2.286,-2.28,-2.2482,-2.1776,-2.1714,-2.1526,-2.1221,-2.1221,-2.1221,-2.1221,-2.1221,-2.1221,-2.1221,-2.1221,-2.1221,-2.1221,-2.1221,-2.1221,-2.1221,-2.1221,-2.1221,-2.6563,-2.6948,-2.6918,-2.5776,-2.5384,0.0,-2.5057,-2.5088,-2.5057,0.0,0.0,0.0,0.0,0.0,0.0,0.0,0.0,0.0,0.0,0.0,0.0,0.0,0.0,0.0,0.0,-2.9251,-2.9701,-2.9701,-2.9682,-2.8237,-2.4941,-2.5491,-2.614,-2.6682,-2.7138,-2.7415,-2.7551,-2.7881,-2.8092,-2.8174,-2.7865,-2.7631,-2.7465,-2.7526,-2.7261,-2.6791,-2.6858,-2.6742,-2.657,-2.7242,-2.8223,-2.9258,-2.8721,-2.849,-2.8528,-2.8211,-2.7762,-2.7292,-2.7292,-2.7347,-2.7359,-2.732,-2.7347,-2.7402,-2.7304,-2.7042,-2.67,-2.6367,-2.5449,-2.4755,-2.572,-2.5322,-2.4908,-2.5861,-2.6,-2.5972,-2.5988,-2.6229,-2.5849,-2.3741,-2.3767,-2.4002,-2.3318,-2.4105,-2.4381,-2.3245,-2.3603,-2.3767,-2.3198,-2.3078,-2.3017,-2.28,-2.2739,-2.2482,-2.1788,-2.1788,-2.16,-2.1221,-2.1221,-2.1221,-2.1221,-2.1221,-2.1221,-2.1221,-2.1221,-2.1221,-2.1221,-2.1221,-2.1221,-2.1221,-2.1221,-2.1221,-2.7738,-2.7967,-2.8033,-2.6937,-2.5981,0.0,-2.3528,-2.403,-2.4441,0.0,0.0,0.0,0.0,0.0,0.0,0.0,0.0,0.0,0.0,0.0,0.0,0.0,0.0,0.0,0.0,-2.9605,-2.9699,-2.9699,-2.9589,-2.8801,-2.7155,-2.6373,-2.6205,-2.6663,-2.614,-2.6274,-2.7191,-2.6812,-2.7085,-2.8029,-2.7424,-2.7449,-2.794,-2.7806,-2.7569,-2.7261,-2.7279,-2.7038,-2.6674,-2.6826,-2.7171,-2.7646,-2.8135,-2.8306,-2.8283,-2.8268,-2.8347,-2.8451,-2.8451,-2.8482,-2.8482,-2.8482,-2.8497,-2.8558,-2.8558,-2.8573,-2.8527,-2.8124,-2.7393,-2.6768,-2.7015,-2.6526,-2.5923,-2.5955,-2.5554,-2.514,-2.519,-2.4861,-2.4559,-2.4644,-2.4724,-2.4624,-2.4002,-2.3649,-2.3365,-2.3125,-2.3185,-2.3258,-2.3138,-2.3078,-2.3078,-2.3017,-2.3017,-2.2775,-2.2173,-2.2123,-2.1862,-2.1221,-2.1221,-2.1221,-2.1221,-2.1221,-2.1221,-2.1221,-2.1221,-2.1221,-2.1221,-2.1221,-2.1221,-2.1221,-2.1221,-2.1221,-2.8422,-2.8574,-2.8698,-2.8025,0.0,0.0,0.0,-2.4487,-2.4885,-2.4523,-2.2658,0.0,0.0,0.0,0.0,0.0,0.0,0.0,0.0,0.0,0.0,0.0,0.0,0.0,0.0,-2.9156,-2.9717,-2.9717,-2.9064,-2.8204,-2.7065,-2.6247,-2.5764,-2.5652,-2.5616,-2.5967,-2.6683,-2.6565,-2.6626,-2.6898,-2.6486,-2.6686,-2.7376,-2.7122,-2.7126,-2.7338,-2.7293,-2.6989,-2.6556,-2.6556,-2.6582,-2.6726,-2.7437,-2.7928,-2.8197,-2.803,-2.7997,-2.8005,-2.8005,-2.7886,-2.7749,-2.7749,-2.7779,-2.7809,-2.7899,-2.7854,-2.7748,-2.755,-2.6965,-2.6451,-2.6817,-2.648,-2.609,-2.6289,-2.6083,-2.5873,-2.5918,-2.5626,-2.55,-2.5809,-2.5646,-2.5258,-2.4624,-2.4794,-2.4624,-2.3708,-2.3826,-2.3813,-2.3185,-2.3078,-2.3078,-2.3078,-2.3078,-2.2896,-2.2506,-2.2321,-2.1999,-2.1474,-2.1285,-2.1221,-2.1221,-2.1221,-2.1221,-2.1221,-2.1221,-2.1221,-2.1221,-2.1221,-2.1221,-2.1221,-2.1221,-2.1221,0.0,0.0,-2.9294,0.0,0.0,-2.8307,0.0,0.0,0.0,-2.5636,0.0,0.0,0.0,0.0,0.0,0.0,0.0,0.0,0.0,0.0,0.0,0.0,0.0,0.0,0.0,-2.8402,-2.9338,-2.949,-2.8442,-2.7358,-2.6345,-2.5891,-2.5352,-2.4645,-2.5213,-2.5702,-2.6038,-2.6209,-2.6147,-2.5814,-2.5626,-2.5893,-2.6526,-2.624,-2.6457,-2.7126,-2.6957,-2.6771,-2.6538,-2.6538,-2.6417,-2.6289,-2.6759,-2.7344,-2.7869,-2.7664,-2.7265,-2.6957,-2.6957,-2.6745,-2.6458,-2.6458,-2.6536,-2.6689,-2.6835,-2.6689,-2.6541,-2.6541,-2.597,-2.551,-2.615,-2.5899,-2.5689,-2.6308,-2.6315,-2.63,-2.6533,-2.6504,-2.6489,-2.6736,-2.6394,-2.5879,-2.53,-2.5879,-2.5934,-2.4509,-2.4567,-2.4452,-2.3424,-2.3198,-2.3078,-2.3078,-2.3078,-2.2957,-2.2739,-2.2445,-2.2123,-2.1714,-2.1474,-2.1285,-2.1221,-2.1221,-2.1221,-2.1221,-2.1221,-2.1221,-2.1221,-2.1221,-2.1221,-2.1221,-2.1221,-2.1221,0.0,0.0,0.0,0.0,-3.0128,0.0,0.0,0.0,-2.4407,-2.3139,0.0,0.0,0.0,0.0,0.0,0.0,0.0,0.0,0.0,0.0,0.0,0.0,0.0,0.0,0.0,0.0,-2.8032,-2.8671,-2.7944,-2.71,-2.6261,-2.6042,-2.5571,-2.4711,-2.4603,-2.472,-2.5067,-2.4726,-2.5023,-2.5886,-2.5505,-2.5556,-2.5993,-2.578,-2.5965,-2.6481,-2.629,-2.6502,-2.6942,-2.6942,-2.6725,-2.6365,-2.6378,-2.6607,-2.6889,-2.6961,-2.6591,-2.6062,-2.6062,-2.5869,-2.5629,-2.5629,-2.6016,-2.6541,-2.6689,-2.6689,-2.6689,-2.6689,-2.6004,-2.5418,-2.5788,-2.5224,-2.4631,-2.5034,-2.4646,-2.453,-2.5647,-2.5458,-2.54,-2.6562,-2.6727,-2.65,-2.5893,-2.5481,-2.5119,-2.4951,-2.4509,-2.4118,-2.4015,-2.3484,-2.3078,-2.3078,-2.3078,-2.2957,-2.2739,-2.269,-2.2359,-2.1714,-2.1651,-2.1526,-2.1221,-2.1221,-2.1221,-2.1221,-2.1221,-2.1221,-2.1221,-2.1221,-2.1221,-2.1221,-2.1221,-2.1221,0.0,0.0,0.0,0.0,0.0,0.0,-2.5504,0.0,-2.3487,0.0,0.0,0.0,0.0,0.0,0.0,0.0,0.0,0.0,0.0,0.0,0.0,0.0,0.0,0.0,0.0,0.0,0.0,0.0,0.0,-2.7536,-2.6261,-2.6552,-2.6197,-2.4977,-2.476,-2.4742,-2.4835,-2.4634,-2.4687,-2.4966,-2.4762,-2.5012,-2.5634,-2.5236,-2.5472,-2.6187,-2.581,-2.5974,-2.6464,-2.6356,-2.6418,-2.6556,-2.6418,-2.6372,-2.6414,-2.6451,-2.6173,-2.5796,-2.5796,-2.5521,-2.5196,-2.5423,-2.6013,-2.6585,-2.6585,-2.6645,-2.6689,-2.6689,-2.6236,-2.5756,-2.5773,-2.5344,-2.4849,-2.4917,-2.466,-2.4588,-2.511,-2.4974,-2.4945,-2.5546,-2.5647,-2.5546,-2.5357,-2.5735,-2.5685,-2.4723,-2.4914,-2.5034,-2.4681,-2.4394,-2.4221,-2.4221,-2.4221,-2.3916,-2.3141,-2.2916,-2.2434,-2.162,-2.1487,-2.1348,-2.1233,-2.1221,-2.1221,-2.1221,-2.1221,-2.1221,-2.1221,-2.1221,-2.1221,-2.1221,-2.1221,-2.1221,-2.5794,0.0,0.0,0.0,0.0,0.0,0.0,0.0,0.0,0.0,0.0,0.0,0.0,0.0,0.0,0.0,0.0,0.0,0.0,0.0,0.0,0.0,0.0,0.0,0.0,0.0,0.0,0.0,0.0,0.0,-2.6363,-2.6778,-2.6578,-2.5487,-2.5139,-2.4934,-2.4883,-2.4818,-2.4673,-2.4462,-2.4392,-2.4635,-2.5133,-2.4653,-2.491,-2.5703,-2.5243,-2.5387,-2.5895,-2.5734,-2.5877,-2.6197,-2.6252,-2.6184,-2.6062,-2.6173,-2.5875,-2.5428,-2.5428,-2.5169,-2.4839,-2.5268,-2.5764,-2.6154,-2.6053,-2.6025,-2.6041,-2.6041,-2.5808,-2.5483,-2.5259,-2.4969,-2.4611,-2.4403,-2.4326,-2.4307,-2.4481,-2.4573,-2.4583,-2.4757,-2.4785,-2.4742,-2.4485,-2.5481,-2.5877,-2.4637,-2.5006,-2.5231,-2.4668,-2.4458,-2.4329,-2.4169,-2.4142,-2.387,-2.307,-2.2782,-2.2261,-2.1375,-2.0967,-2.0756,-2.0756,-2.0882,-2.0951,-2.09,-2.1026,-2.1094,-2.1094,-2.1106,-2.1106,-2.1094,-2.1221,-2.1221,0.0,0.0,0.0,-2.6737,0.0,0.0,0.0,0.0,-2.4388,0.0,0.0,0.0,0.0,0.0,-2.3086,-2.2365,-2.1508,0.0,0.0,0.0,0.0,0.0,0.0,0.0,0.0,0.0,0.0,0.0,0.0,0.0,-2.6499,-2.6507,-2.6462,-2.6364,-2.5545,-2.5099,-2.508,-2.5024,-2.4949,-2.4872,-2.4818,-2.4594,-2.4228,-2.4077,-2.429,-2.473,-2.453,-2.4813,-2.5417,-2.5417,-2.5177,-2.4944,-2.5702,-2.5868,-2.5679,-2.6044,-2.5617,-2.4818,-2.4818,-2.4658,-2.4514,-2.5038,-2.5045,-2.4838,-2.4838,-2.4651,-2.4379,-2.4379,-2.4254,-2.4,-2.3756,-2.3495,-2.329,-2.3051,-2.2946,-2.312,-2.3789,-2.392,-2.4094,-2.467,-2.4785,-2.4485,-2.353,-2.4244,-2.4936,-2.4814,-2.4455,-2.4054,-2.3532,-2.3105,-2.266,-2.2065,-2.2001,-2.2001,-2.192,-2.192,-2.163,-2.0852,-2.0135,-1.9734,-1.9734,-2.0182,-2.0373,-2.0211,-2.0665,-2.0903,-2.0903,-2.0786,-2.0786,-2.0903,-2.1273,-2.1336,0.0,0.0,-2.6234,-2.5965,0.0,0.0,0.0,0.0,0.0,0.0,0.0,0.0,0.0,0.0,-2.2466,-2.2214,-2.1485,-2.0886,0.0,0.0,0.0,0.0,0.0,0.0,0.0,0.0,0.0,0.0,0.0,0.0,0.0,-2.7232,-2.7366,-2.5658,-2.5749,-2.5596,-2.5091,-2.4956,-2.4896,-2.4974,-2.4934,-2.4851,-2.4666,-2.4491,-2.445,-2.4483,-2.4154,-2.4372,-2.4928,-2.4802,-2.4918,-2.5188,-2.5305,-2.5232,-2.5122,-2.553,-2.5695,-2.5756,-2.5471,-2.5379,-2.5371,-2.5335,-2.5169,-2.5013,-2.5036,-2.4775,-2.4441,-2.4589,-2.4426,-2.4151,-2.3925,-2.3797,-2.3773,-2.3761,-2.3772,-2.38,-2.388,-2.3891,-2.3833,-2.3569,-2.3525,-2.3421,-2.3112,-2.3349,-2.3638,-2.3789,-2.4241,-2.4504,-2.4341,-2.4272,-2.4263,-2.4445,-2.4459,-2.4083,-2.3175,-2.1901,-2.1049,-2.0832,-2.0382,-2.0111,-2.0111,-2.0004,-1.9941,-1.9881,-2.035,-2.054,-2.054,-2.0882,-2.1031,-2.1094,-2.1336,-2.121,-2.5062,-2.5371,0.0,-2.4681,-2.4361,0.0,-2.4228,0.0,0.0,0.0,0.0,0.0,0.0,0.0,-2.2572,-2.2253,-2.154,-2.0907,0.0,-2.0525,0.0,0.0,0.0,0.0,0.0,0.0,-2.4479,-2.4496,0.0,0.0,0.0,0.0,-2.813,-2.6192,-2.6572,-2.6274,-2.5173,-2.5371,-2.5342,-2.5113,-2.5057,-2.4987,-2.4896,-2.4716,-2.4559,-2.4424,-2.4118,-2.4172,-2.4446,-2.4265,-2.4389,-2.4699,-2.4714,-2.4653,-2.4586,-2.4932,-2.5414,-2.5912,-2.565,-2.576,-2.597,-2.5733,-2.553,-2.5323,-2.5346,-2.5052,-2.467,-2.4815,-2.463,-2.4317,-2.4151,-2.4067,-2.4064,-2.4222,-2.4233,-2.4214,-2.4243,-2.4239,-2.4109,-2.3641,-2.3569,-2.3569,-2.3569,-2.3569,-2.3508,-2.3216,-2.3794,-2.4158,-2.399,-2.4046,-2.4197,-2.434,-2.4369,-2.3936,-2.283,-2.1329,-2.0404,-2.0363,-1.997,-1.9717,-1.9717,-1.9529,-1.9401,-1.9285,-1.9764,-2.0015,-2.0076,-2.0335,-2.0523,-2.0717,-2.0745,-2.0658]},{"header":{"parameterUnit":"m.s-1","parameterCategory":1,"la1":30.6,"la2":29.2853,"lo1":-89.7004,"lo2":-87.6739,"dy":0.0162,"dx":0.0183,"nx":112,"ny":82,"refTime":"2024-08-16T18:00:00:Z","depth":0,"parameterNumber":3,"parameterNumberName":"V-component_of_WINDS"},"data":[0.0,0.0,0.0,0.0,0.0,0.0,0.0,0.0,0.0,0.0,0.0,0.0,0.0,0.0,0.0,0.0,0.0,0.0,0.0,0.0,0.0,0.0,0.0,0.0,0.0,0.0,0.0,0.0,0.0,0.0,0.0,0.0,0.0,0.0,0.0,0.0,0.0,0.0,0.0,0.0,0.0,0.0,0.0,0.0,0.0,0.0,0.0,0.0,0.0,0.0,0.0,0.0,0.0,0.0,0.0,0.0,0.0,0.0,0.0,0.0,0.0,0.0,0.0,0.0,0.0,0.0,0.0,0.0,0.0,0.0,0.0,0.0,0.0,0.0,0.0,0.0,0.0,0.0,0.0,0.0,0.0,0.0,0.0,0.0,0.0,0.0,0.0,0.0,0.0,0.0,-2.6943,-3.0658,-3.3252,-3.4823,-3.4823,-3.427,-3.2735,-3.0061,0.0,0.0,0.0,0.0,0.0,0.0,0.0,0.0,0.0,0.0,0.0,0.0,0.0,0.0,0.0,0.0,0.0,0.0,0.0,0.0,0.0,0.0,0.0,0.0,0.0,0.0,0.0,0.0,0.0,0.0,0.0,0.0,0.0,0.0,0.0,0.0,0.0,0.0,0.0,0.0,0.0,0.0,0.0,0.0,0.0,0.0,0.0,0.0,0.0,0.0,0.0,0.0,0.0,0.0,0.0,0.0,0.0,0.0,0.0,0.0,0.0,0.0,0.0,0.0,0.0,0.0,0.0,0.0,0.0,0.0,0.0,0.0,0.0,0.0,0.0,0.0,0.0,0.0,0.0,0.0,0.0,0.0,0.0,0.0,0.0,0.0,0.0,0.0,0.0,0.0,0.0,0.0,0.0,0.0,0.0,0.0,0.0,0.0,0.0,0.0,0.0,0.0,0.0,0.0,-2.7369,-3.1725,-3.3753,-3.4823,-3.4823,-3.3945,-3.2545,-3.0638,0.0,0.0,0.0,0.0,0.0,0.0,0.0,0.0,0.0,0.0,0.0,0.0,0.0,0.0,0.0,0.0,0.0,0.0,0.0,0.0,0.0,0.0,0.0,0.0,0.0,0.0,0.0,0.0,0.0,0.0,0.0,0.0,0.0,0.0,0.0,0.0,0.0,0.0,0.0,0.0,0.0,0.0,0.0,0.0,0.0,0.0,0.0,0.0,0.0,0.0,0.0,0.0,0.0,0.0,0.0,0.0,0.0,0.0,0.0,0.0,0.0,0.0,0.0,0.0,0.0,0.0,0.0,0.0,0.0,0.0,0.0,0.0,0.0,0.0,0.0,0.0,0.0,0.0,0.0,0.0,0.0,0.0,0.0,0.0,0.0,0.0,0.0,0.0,0.0,0.0,0.0,0.0,0.0,0.0,0.0,0.0,0.0,0.0,0.0,0.0,0.0,0.0,0.0,-2.763,-2.9521,-3.2575,-3.435,-3.5005,-3.4426,-3.4174,-3.2953,-3.0236,-2.9031,0.0,0.0,0.0,0.0,0.0,0.0,0.0,0.0,0.0,0.0,0.0,0.0,0.0,0.0,0.0,0.0,0.0,0.0,0.0,0.0,0.0,0.0,0.0,0.0,0.0,0.0,0.0,0.0,0.0,0.0,0.0,0.0,0.0,0.0,0.0,0.0,0.0,0.0,0.0,0.0,0.0,0.0,0.0,0.0,0.0,0.0,0.0,0.0,0.0,0.0,0.0,0.0,0.0,0.0,0.0,0.0,0.0,0.0,0.0,0.0,0.0,0.0,0.0,0.0,0.0,0.0,0.0,0.0,0.0,0.0,0.0,0.0,0.0,0.0,0.0,0.0,0.0,0.0,0.0,0.0,0.0,0.0,0.0,0.0,0.0,0.0,0.0,0.0,0.0,0.0,0.0,0.0,0.0,0.0,0.0,0.0,0.0,0.0,0.0,0.0,0.0,0.0,-2.9866,-3.1467,-3.324,-3.4642,-3.5104,-3.4445,-3.4008,-3.266,-2.9905,-2.8363,0.0,0.0,0.0,0.0,0.0,0.0,0.0,0.0,0.0,0.0,0.0,0.0,0.0,0.0,0.0,0.0,0.0,0.0,0.0,0.0,0.0,0.0,0.0,0.0,0.0,0.0,0.0,0.0,0.0,0.0,0.0,0.0,0.0,0.0,0.0,0.0,0.0,0.0,0.0,0.0,0.0,0.0,0.0,0.0,0.0,0.0,0.0,0.0,0.0,0.0,0.0,0.0,0.0,0.0,0.0,0.0,0.0,0.0,0.0,0.0,0.0,0.0,0.0,0.0,0.0,0.0,0.0,0.0,0.0,0.0,0.0,0.0,0.0,0.0,0.0,0.0,0.0,0.0,0.0,0.0,0.0,0.0,0.0,0.0,0.0,0.0,0.0,0.0,0.0,0.0,0.0,0.0,0.0,0.0,0.0,0.0,0.0,0.0,0.0,0.0,0.0,0.0,-2.9707,-3.2117,-3.3789,-3.4388,-3.4911,-3.5319,-3.286,-3.0923,-3.0241,-2.7493,0.0,0.0,0.0,0.0,0.0,0.0,0.0,0.0,0.0,0.0,0.0,0.0,0.0,0.0,0.0,0.0,0.0,0.0,0.0,0.0,0.0,0.0,0.0,0.0,0.0,0.0,0.0,0.0,0.0,0.0,0.0,0.0,0.0,0.0,0.0,0.0,0.0,0.0,0.0,0.0,0.0,0.0,0.0,0.0,0.0,0.0,0.0,0.0,0.0,0.0,0.0,0.0,0.0,0.0,0.0,0.0,0.0,0.0,0.0,0.0,0.0,0.0,0.0,0.0,0.0,0.0,0.0,0.0,0.0,0.0,0.0,0.0,0.0,0.0,0.0,0.0,0.0,0.0,0.0,0.0,0.0,0.0,0.0,0.0,0.0,0.0,0.0,0.0,0.0,0.0,0.0,0.0,0.0,0.0,0.0,0.0,0.0,0.0,0.0,0.0,0.0,0.0,-2.9905,-3.2102,0.0,-3.4791,-3.5059,-3.5014,-3.3852,-3.2069,-2.9517,0.0,0.0,0.0,0.0,0.0,0.0,0.0,0.0,0.0,0.0,0.0,0.0,0.0,0.0,0.0,0.0,0.0,0.0,0.0,0.0,0.0,0.0,0.0,0.0,0.0,0.0,0.0,0.0,0.0,0.0,0.0,0.0,0.0,0.0,0.0,0.0,0.0,0.0,0.0,0.0,0.0,0.0,0.0,0.0,0.0,0.0,0.0,0.0,0.0,0.0,0.0,0.0,0.0,0.0,0.0,0.0,0.0,0.0,0.0,0.0,0.0,0.0,0.0,0.0,0.0,0.0,0.0,0.0,0.0,0.0,0.0,0.0,0.0,0.0,0.0,0.0,0.0,0.0,0.0,0.0,0.0,0.0,0.0,0.0,0.0,0.0,0.0,0.0,0.0,0.0,0.0,0.0,0.0,0.0,0.0,0.0,0.0,0.0,0.0,0.0,0.0,0.0,-2.8092,-3.0165,-3.2255,0.0,-3.4919,-3.4979,-3.4628,-3.3772,-3.1914,-2.8918,0.0,0.0,0.0,0.0,0.0,0.0,0.0,0.0,0.0,0.0,0.0,0.0,0.0,0.0,0.0,0.0,0.0,0.0,0.0,0.0,0.0,0.0,0.0,0.0,0.0,0.0,0.0,0.0,0.0,0.0,0.0,0.0,0.0,0.0,0.0,0.0,0.0,0.0,0.0,0.0,0.0,0.0,0.0,0.0,0.0,0.0,0.0,0.0,0.0,0.0,0.0,0.0,0.0,0.0,0.0,0.0,0.0,0.0,0.0,0.0,0.0,0.0,0.0,0.0,0.0,0.0,0.0,0.0,0.0,0.0,0.0,0.0,0.0,0.0,0.0,0.0,0.0,0.0,0.0,0.0,0.0,0.0,0.0,0.0,0.0,0.0,0.0,0.0,0.0,0.0,0.0,0.0,0.0,0.0,0.0,0.0,0.0,0.0,0.0,0.0,0.0,0.0,-2.788,-3.0406,-3.277,-3.4417,-3.4497,-3.4397,-3.441,-3.2137,-3.0082,0.0,0.0,0.0,0.0,0.0,0.0,0.0,0.0,0.0,0.0,0.0,0.0,0.0,0.0,0.0,0.0,0.0,0.0,0.0,0.0,0.0,0.0,0.0,0.0,0.0,0.0,0.0,0.0,0.0,0.0,0.0,0.0,0.0,0.0,0.0,0.0,0.0,0.0,0.0,0.0,0.0,0.0,0.0,0.0,0.0,0.0,0.0,0.0,0.0,0.0,0.0,0.0,0.0,0.0,0.0,0.0,0.0,0.0,0.0,0.0,0.0,0.0,0.0,0.0,0.0,0.0,0.0,0.0,0.0,0.0,0.0,0.0,0.0,0.0,0.0,0.0,0.0,0.0,0.0,0.0,0.0,0.0,0.0,0.0,0.0,0.0,0.0,0.0,0.0,0.0,0.0,0.0,0.0,0.0,0.0,0.0,0.0,0.0,0.0,0.0,0.0,0.0,0.0,-2.804,-3.0498,-3.2908,-3.4894,-3.4494,-3.4314,-3.4959,-3.3206,-3.1016,-2.8404,0.0,0.0,0.0,0.0,0.0,0.0,0.0,0.0,0.0,0.0,0.0,0.0,0.0,0.0,0.0,0.0,0.0,0.0,0.0,0.0,0.0,0.0,0.0,0.0,0.0,0.0,0.0,0.0,0.0,0.0,0.0,0.0,0.0,0.0,0.0,0.0,0.0,0.0,0.0,0.0,0.0,0.0,0.0,0.0,0.0,0.0,0.0,0.0,0.0,0.0,0.0,0.0,0.0,0.0,0.0,0.0,0.0,0.0,0.0,0.0,0.0,0.0,0.0,0.0,0.0,0.0,0.0,0.0,0.0,0.0,0.0,0.0,0.0,0.0,0.0,0.0,0.0,0.0,0.0,0.0,0.0,0.0,0.0,0.0,0.0,0.0,0.0,0.0,0.0,0.0,0.0,0.0,0.0,0.0,0.0,0.0,0.0,0.0,0.0,0.0,0.0,0.0,-2.8095,-3.0472,-3.2529,-3.4084,-3.3721,-3.3566,-3.3875,-3.2947,-3.1284,-2.8805,0.0,0.0,0.0,0.0,0.0,0.0,0.0,0.0,0.0,0.0,0.0,0.0,0.0,0.0,0.0,0.0,0.0,0.0,0.0,0.0,0.0,0.0,0.0,0.0,0.0,0.0,0.0,0.0,0.0,0.0,0.0,0.0,0.0,0.0,0.0,0.0,0.0,0.0,0.0,0.0,0.0,0.0,0.0,0.0,0.0,0.0,0.0,0.0,0.0,0.0,0.0,0.0,0.0,0.0,0.0,0.0,0.0,0.0,0.0,0.0,0.0,0.0,0.0,0.0,0.0,0.0,0.0,0.0,0.0,0.0,0.0,0.0,0.0,0.0,0.0,0.0,0.0,0.0,0.0,0.0,0.0,0.0,0.0,0.0,0.0,0.0,0.0,0.0,0.0,0.0,0.0,0.0,0.0,0.0,0.0,0.0,0.0,0.0,0.0,0.0,0.0,0.0,-2.7962,-3.0259,-3.2006,-3.262,-3.2646,-3.2502,-3.2031,-3.1939,-3.1228,-2.9659,0.0,0.0,0.0,0.0,0.0,0.0,0.0,0.0,0.0,0.0,0.0,0.0,0.0,0.0,0.0,0.0,0.0,0.0,0.0,0.0,0.0,0.0,0.0,0.0,0.0,0.0,0.0,0.0,0.0,0.0,0.0,0.0,0.0,0.0,0.0,0.0,0.0,0.0,0.0,0.0,0.0,0.0,0.0,0.0,0.0,0.0,0.0,0.0,0.0,0.0,0.0,0.0,0.0,0.0,0.0,0.0,0.0,0.0,0.0,0.0,-2.2438,0.0,0.0,0.0,0.0,0.0,0.0,0.0,0.0,0.0,0.0,0.0,0.0,0.0,0.0,0.0,0.0,0.0,0.0,0.0,0.0,0.0,0.0,0.0,0.0,0.0,0.0,0.0,0.0,0.0,0.0,0.0,0.0,0.0,0.0,0.0,0.0,0.0,0.0,0.0,0.0,0.0,-2.7548,-2.9876,-3.1701,-3.2581,-3.2436,-3.2524,-3.3306,-3.2993,-3.2255,-3.1118,-3.0073,0.0,0.0,0.0,0.0,0.0,0.0,0.0,0.0,0.0,0.0,0.0,0.0,0.0,0.0,0.0,0.0,0.0,0.0,0.0,0.0,0.0,0.0,0.0,0.0,0.0,0.0,0.0,0.0,0.0,0.0,0.0,0.0,0.0,0.0,0.0,0.0,0.0,0.0,0.0,0.0,0.0,0.0,0.0,0.0,0.0,0.0,0.0,0.0,0.0,0.0,0.0,0.0,0.0,0.0,0.0,0.0,0.0,0.0,0.0,0.0,-2.3833,0.0,0.0,0.0,0.0,0.0,0.0,0.0,0.0,0.0,0.0,0.0,0.0,0.0,0.0,0.0,0.0,0.0,0.0,0.0,0.0,0.0,0.0,0.0,0.0,0.0,0.0,0.0,0.0,0.0,0.0,0.0,0.0,0.0,0.0,0.0,0.0,0.0,0.0,0.0,0.0,-2.7837,-3.0122,-3.1843,-3.2368,-3.2529,-3.2832,-3.3441,-3.3252,-3.289,-3.2454,-3.161,0.0,0.0,0.0,0.0,0.0,0.0,0.0,0.0,0.0,0.0,0.0,0.0,0.0,0.0,0.0,0.0,0.0,0.0,0.0,0.0,0.0,0.0,0.0,0.0,0.0,0.0,0.0,0.0,0.0,0.0,0.0,0.0,0.0,0.0,0.0,0.0,0.0,0.0,0.0,0.0,0.0,0.0,0.0,0.0,0.0,0.0,0.0,0.0,0.0,0.0,0.0,0.0,0.0,-2.7633,-2.8318,-2.8279,-2.922,-2.9617,-2.9593,-2.738,-2.6514,-2.661,0.0,0.0,0.0,0.0,0.0,0.0,0.0,0.0,0.0,0.0,0.0,0.0,0.0,0.0,0.0,0.0,0.0,0.0,0.0,0.0,0.0,0.0,0.0,0.0,0.0,-3.5555,-3.4454,0.0,0.0,0.0,0.0,0.0,0.0,0.0,0.0,0.0,0.0,0.0,0.0,-2.8637,-3.0834,-3.229,-3.229,-3.2861,-3.3213,-3.3353,-3.3422,-3.3485,-3.3682,-3.2977,-3.229,0.0,0.0,0.0,0.0,0.0,0.0,0.0,0.0,0.0,0.0,0.0,0.0,0.0,0.0,0.0,0.0,0.0,0.0,0.0,0.0,0.0,0.0,0.0,0.0,0.0,0.0,0.0,0.0,0.0,0.0,0.0,0.0,-2.1838,-2.1394,0.0,0.0,0.0,0.0,0.0,0.0,0.0,0.0,0.0,0.0,0.0,0.0,0.0,-2.6322,-2.7873,-2.8859,-2.9451,-2.9541,-3.0326,-3.0675,-3.0596,-3.0869,-3.1076,-3.1336,-3.0975,0.0,-2.8835,-2.8306,0.0,0.0,0.0,0.0,0.0,0.0,0.0,0.0,0.0,0.0,0.0,0.0,0.0,0.0,0.0,0.0,0.0,0.0,0.0,0.0,0.0,0.0,-3.5754,-3.6862,-3.6891,-3.6606,0.0,-3.4137,-3.1915,-3.1275,-3.0684,0.0,0.0,0.0,0.0,0.0,0.0,0.0,-3.021,-3.1858,-3.3073,-3.3073,-3.3143,-3.3492,-3.4109,-3.4177,-3.4365,-3.4949,-3.4456,-3.4059,-3.3817,-3.2446,0.0,0.0,0.0,0.0,0.0,0.0,0.0,0.0,0.0,0.0,0.0,0.0,0.0,0.0,0.0,0.0,0.0,0.0,0.0,0.0,0.0,0.0,0.0,0.0,0.0,0.0,0.0,0.0,0.0,-2.1358,-2.1995,-2.2034,-2.1868,-2.1508,0.0,0.0,0.0,0.0,0.0,0.0,0.0,0.0,0.0,-2.787,-2.792,-2.8602,-2.9975,-3.0375,-3.0927,-3.1656,-3.2224,-3.275,-3.3179,-3.3527,-3.3686,-3.3639,-3.3639,-3.2901,-3.1456,-3.0314,-2.9388,-2.8735,0.0,0.0,0.0,0.0,-3.1419,-3.1801,-3.2639,-3.2681,0.0,0.0,0.0,0.0,0.0,0.0,0.0,0.0,0.0,0.0,0.0,0.0,0.0,-3.8311,-3.84,-3.8329,-3.8471,-3.6969,-3.5332,0.0,-3.4041,-3.3225,-3.1202,0.0,0.0,0.0,0.0,-3.1157,-3.1495,-3.289,-3.3837,-3.3837,-3.4206,-3.4639,-3.4986,-3.4971,-3.5067,-3.5359,-3.5155,-3.4912,-3.4623,-3.3657,-3.2617,0.0,0.0,0.0,0.0,0.0,0.0,0.0,0.0,0.0,0.0,0.0,0.0,0.0,0.0,0.0,0.0,0.0,0.0,0.0,0.0,0.0,0.0,0.0,0.0,0.0,0.0,0.0,0.0,-2.2048,-2.2498,-2.2715,-2.2776,-2.2525,0.0,0.0,0.0,0.0,0.0,0.0,-2.7419,-2.7876,-2.8913,-3.0621,-3.0566,-3.0992,-3.2013,-3.1995,-3.2454,-3.332,-3.3599,-3.4117,-3.4829,-3.5098,-3.5185,-3.5114,-3.4981,-3.4389,-3.3368,-3.1901,-3.0891,-3.0278,-3.0373,-3.0894,-3.1699,-3.2528,-3.3229,-3.3841,-3.4999,-3.5082,-3.466,-3.4351,0.0,-3.289,-3.1861,0.0,0.0,0.0,0.0,-3.606,-3.7535,-3.8217,-3.8624,-3.9233,-3.9424,-3.9424,-3.9424,-3.8949,-3.8206,0.0,-3.6701,-3.5723,-3.3649,0.0,0.0,0.0,0.0,-3.2456,-3.2863,-3.3935,-3.461,-3.461,-3.5133,-3.5504,-3.5504,-3.5439,-3.5439,-3.5439,-3.5359,-3.5213,-3.4935,-3.4412,-3.3724,-3.2824,0.0,0.0,0.0,0.0,0.0,0.0,0.0,0.0,0.0,0.0,0.0,0.0,0.0,0.0,0.0,0.0,0.0,0.0,0.0,0.0,0.0,0.0,0.0,0.0,0.0,0.0,0.0,0.0,0.0,-2.3162,-2.457,0.0,0.0,0.0,0.0,-2.5985,-2.7223,-2.8614,-3.0223,-3.0977,-3.1761,-3.2585,-3.3391,-3.3943,-3.4263,-3.4773,-3.4848,-3.4703,-3.4425,-3.4473,-3.4775,-3.4593,-3.4546,-3.4799,-3.4294,-3.4042,-3.3921,-3.2851,-3.1793,-3.0869,-3.1162,-3.1741,-3.2607,-3.3416,-3.4706,-3.5981,-3.6009,-3.6009,-3.6065,-3.6627,-3.6208,-3.5367,-3.5148,-3.5715,0.0,0.0,-3.7872,-3.8678,-3.9145,-3.903,-3.8899,-3.9322,-3.9424,-3.9424,-3.9424,-3.9394,-3.9155,0.0,-3.7163,-3.6023,-3.5474,0.0,-3.4158,-3.3423,-3.3916,-3.4364,-3.4409,-3.5006,-3.5439,-3.5439,-3.5504,-3.5504,-3.5504,-3.5294,-3.5213,-3.5213,-3.5001,-3.4935,-3.4935,-3.4721,-3.4332,-3.3659,-3.2184,0.0,0.0,0.0,0.0,0.0,0.0,0.0,0.0,0.0,0.0,0.0,0.0,0.0,0.0,0.0,0.0,0.0,0.0,0.0,0.0,0.0,0.0,0.0,0.0,0.0,0.0,0.0,0.0,-2.4909,-2.6191,0.0,-2.619,-2.6995,-2.7897,-2.8949,-2.976,-3.0954,-3.2644,-3.299,-3.3535,-3.4299,-3.4311,-3.432,-3.4421,-3.4425,-3.4595,-3.503,-3.4932,-3.5041,-3.532,-3.522,-3.5137,-3.5017,-3.4824,-3.445,-3.4006,-3.3645,-3.326,-3.3015,-3.4127,-3.4502,-3.4574,-3.5728,-3.6252,-3.6397,-3.6626,-3.6655,-3.6683,-3.6908,-3.6761,-3.6505,-3.6756,-3.6902,-3.7221,-3.8635,-3.9003,-3.9191,-3.9891,-3.9964,-3.9786,-3.9442,-3.9424,-3.9424,-3.9424,-3.9424,-3.9349,-3.9095,-3.7903,-3.6813,-3.6252,-3.5579,-3.4906,-3.4218,-3.5055,-3.5774,-3.5774,-3.6327,-3.6731,-3.6731,-3.6372,-3.6133,-3.6133,-3.5678,-3.5245,-3.4797,-3.456,-3.4431,-3.4316,-3.4185,-3.4076,-3.4132,-3.3274,-3.183,0.0,0.0,0.0,0.0,0.0,0.0,0.0,0.0,0.0,0.0,0.0,0.0,0.0,0.0,0.0,0.0,0.0,0.0,0.0,0.0,0.0,0.0,0.0,0.0,0.0,0.0,-2.607,-2.6455,-2.769,-2.853,-2.8494,-2.9446,-3.0556,-3.1614,-3.1918,-3.2836,-3.444,-3.4514,-3.478,-3.5174,-3.4985,-3.4795,-3.47,-3.4497,-3.4583,-3.503,-3.503,-3.5126,-3.532,-3.532,-3.5223,-3.503,-3.503,-3.4727,-3.4306,-3.4306,-3.4306,-3.4402,-3.5382,-3.5713,-3.5775,-3.6756,-3.707,-3.7002,-3.6953,-3.6978,-3.6978,-3.6978,-3.7133,-3.738,-3.7847,-3.8069,-3.8481,-4.0085,-4.0279,-4.0202,-4.0904,-4.0726,-4.0352,-4.0127,-3.9738,-3.9484,-3.9709,-3.9394,-3.9065,-3.9065,-3.8167,-3.7285,-3.6866,-3.6088,-3.5355,-3.4891,-3.5579,-3.6237,-3.6462,-3.6851,-3.718,-3.7389,-3.6851,-3.6492,-3.6492,-3.5603,-3.4991,-3.4767,-3.4065,-3.3893,-3.4221,-3.3615,-3.3558,-3.408,-3.3484,-3.265,-3.1501,0.0,0.0,0.0,0.0,0.0,0.0,0.0,0.0,0.0,0.0,0.0,0.0,0.0,0.0,0.0,0.0,0.0,0.0,0.0,0.0,0.0,0.0,0.0,-2.6165,-2.7139,-2.7851,-2.7603,-2.9126,-3.0362,-3.0879,-3.1432,-3.2447,-3.3937,-3.3759,-3.4222,-3.5559,-3.562,-3.5524,-3.5223,-3.5416,-3.5428,-3.5223,-3.5223,-3.503,-3.4823,-3.4823,-3.4823,-3.4823,-3.4823,-3.4823,-3.4823,-3.4823,-3.4823,-3.4823,-3.4823,-3.4823,-3.4824,-3.484,-3.5378,-3.6179,-3.6572,-3.718,-3.7807,-3.7203,-3.6978,-3.6978,-3.7007,-3.7414,-3.7986,-3.841,-3.9344,-4.0545,-4.1368,-4.1636,-4.1794,-4.2249,-4.1399,-4.0606,-4.1205,-4.0367,-3.9589,-4.0202,-3.929,-3.8362,-3.8362,-3.7823,-3.7375,-3.7375,-3.6342,-3.5504,-3.5504,-3.5519,0.0,-3.6402,-3.6522,-3.6776,-3.7375,-3.6896,-3.6537,-3.6522,-3.5085,-3.4515,-3.5109,-3.3633,-3.3308,-3.4581,-3.326,-3.2861,-3.358,-3.2909,-3.2866,-3.3341,0.0,0.0,0.0,0.0,0.0,0.0,0.0,0.0,0.0,0.0,0.0,0.0,0.0,0.0,0.0,0.0,0.0,0.0,0.0,0.0,0.0,-2.7858,-2.8406,-2.7806,-2.8445,-2.912,-2.9386,-3.0867,-3.1966,-3.2253,-3.3281,-3.4173,-3.4844,-3.4785,-3.4919,-3.5307,-3.5512,-3.5524,-3.5223,-3.5223,-3.5223,-3.4932,-3.4932,-3.4835,-3.4823,-3.4823,-3.4823,-3.4823,-3.4823,-3.4823,-3.4823,-3.4823,-3.4823,-3.4823,-3.4823,-3.4823,-3.4981,-3.6341,-3.6793,-3.6836,-3.8361,-3.8515,-3.7807,-3.7203,-3.6978,-3.7063,-3.7498,-3.7751,-3.807,-3.8922,-3.924,-3.951,-4.0408,-4.0967,-4.128,-4.1218,-4.1575,-4.1624,-4.0846,-4.0023,-3.9334,-3.902,-3.8272,-3.7674,-3.7674,-3.7165,-3.6746,-3.6746,-3.6043,-3.5504,-3.5504,-3.5908,0.0,-3.6462,-3.7163,-3.7734,-3.7912,-3.7623,-3.7272,-3.6828,-3.5999,-3.4898,-3.3687,-3.3084,-3.2928,-3.3264,-3.3202,-3.3732,-3.4889,-3.5243,-3.5195,0.0,0.0,0.0,0.0,0.0,0.0,0.0,0.0,0.0,0.0,0.0,0.0,0.0,0.0,0.0,0.0,0.0,0.0,0.0,0.0,0.0,0.0,-2.9381,-3.01,-3.0005,-3.0228,-3.0453,-3.0761,-3.1781,-3.275,-3.3252,-3.4245,-3.4932,-3.5223,-3.5126,-3.5126,-3.5223,-3.5223,-3.5223,-3.503,-3.503,-3.4932,-3.4823,-3.4823,-3.4823,-3.4823,-3.4823,-3.4823,-3.4823,-3.4823,-3.4823,0.0,-3.4823,-3.4823,-3.4823,-3.5295,-3.5391,0.0,0.0,0.0,0.0,0.0,-3.9156,-3.8215,-3.7597,-3.7372,-3.7386,-3.7484,-3.7681,-3.8042,-3.8649,-3.888,-3.9024,-3.9736,-4.0503,-4.1135,-4.118,-4.1841,-4.2162,-4.1399,-4.0502,-3.9649,-3.896,-3.8078,-3.733,-3.7075,0.0,0.0,-3.6073,-3.5759,-3.5504,-3.5504,-3.5833,-3.6178,-3.6447,-3.7222,-3.7883,-3.8094,-3.7982,-3.7748,-3.7323,-3.6453,0.0,0.0,0.0,-3.3162,-3.3019,-3.3891,0.0,0.0,0.0,0.0,0.0,0.0,0.0,0.0,-3.9363,-3.9833,0.0,0.0,0.0,0.0,0.0,0.0,0.0,0.0,0.0,0.0,0.0,0.0,0.0,0.0,0.0,0.0,-3.0618,-3.1796,-3.2238,-3.2032,-3.1826,-3.1743,-3.2214,-3.2947,-3.3861,-3.4487,-3.4932,-3.5126,-3.492,-3.492,-3.5126,0.0,0.0,0.0,0.0,-3.4823,-3.4823,-3.4823,-3.4823,-3.4823,-3.4823,-3.4823,-3.4823,-3.4823,-3.4823,-3.4823,-3.4823,-3.4823,-3.492,-3.5858,-3.6414,-3.6684,-3.7612,-3.7991,-3.8275,-3.9391,-3.9437,0.0,0.0,0.0,0.0,-3.7372,-3.7569,-3.791,-3.792,-3.8299,-3.8844,-3.9221,-4.0052,-4.104,-4.1542,-4.1967,-4.2342,-4.2267,-4.1235,-4.0113,-3.9454,-3.8257,-3.715,-3.6596,-3.5953,-3.5504,-3.5504,-3.5504,-3.5504,-3.5504,-3.5504,0.0,-3.6297,-3.6926,-3.7416,-3.7946,0.0,0.0,-3.7824,-3.6737,-3.5918,-3.5517,-3.4434,-3.3784,-3.374,-3.5044,-3.6079,-3.673,-3.8231,-3.9596,-4.0753,-4.1496,-4.218,-4.2844,-4.1484,-4.1533,0.0,0.0,0.0,0.0,0.0,0.0,0.0,0.0,0.0,0.0,0.0,0.0,0.0,0.0,0.0,-3.0774,-3.2311,-3.3192,-3.294,-3.2979,-3.2695,-3.1828,-3.2539,-3.3212,-3.3416,-3.4282,-3.4823,-3.4823,-3.4835,-3.4823,-3.4823,-3.4835,0.0,-3.4823,-3.4823,-3.4823,-3.4823,-3.4823,-3.4823,-3.4823,0.0,0.0,-3.4823,-3.4823,-3.4823,-3.4823,-3.4823,-3.4823,-3.492,-3.5858,-3.7217,-3.8662,-3.8854,-3.9401,-4.0087,-3.9915,-3.9718,-3.9521,-3.8903,-3.8678,-3.8664,-3.8538,-3.8499,-3.8254,-3.7819,-3.7763,0.0,-3.7928,-3.8847,-3.9929,-4.0526,-4.1237,-4.1676,-4.1145,-4.0263,-3.9424,-3.8736,-3.7569,-3.6626,-3.6507,-3.5953,-3.5504,-3.5504,-3.5504,-3.5504,-3.5504,-3.5504,-3.5549,-3.5684,-3.6119,-3.6624,-3.7208,-3.7458,-3.7637,-3.7637,-3.7273,-3.6343,-3.4758,-3.4423,-3.4525,-3.5049,-3.6823,-3.7907,-3.8027,-4.0515,-4.1702,-4.1482,-4.2671,-4.367,-4.435,-4.3492,-4.3233,0.0,0.0,0.0,0.0,0.0,0.0,0.0,0.0,0.0,0.0,0.0,-2.7377,-2.8158,0.0,-3.0392,-3.1801,-3.309,-3.3877,-3.3753,-3.3403,-3.2849,-3.1801,-3.2623,-3.3284,-3.3284,-3.4222,-3.4823,-3.4823,-3.4823,-3.4823,-3.4823,-3.4823,-3.4823,-3.4823,-3.4823,-3.4823,-3.4823,-3.4823,-3.4823,-3.4823,-3.4823,-3.4823,-3.4823,-3.4823,-3.4823,-3.4823,-3.4823,-3.4823,-3.492,-3.6307,-3.8056,-3.9807,-3.9692,-4.0055,-4.0659,-4.035,-4.0238,-4.0154,-3.9369,-3.9242,-3.9269,-3.8877,-3.8697,-3.8641,-3.8319,-3.8235,-3.8235,-3.8221,-3.9063,-4.0034,-4.0182,-4.0989,-4.1479,-4.0736,-4.0234,-3.9634,-3.8616,-3.7829,-3.7207,-3.6894,-3.6416,-3.6126,-3.6126,-3.6126,-3.5971,-3.5544,-3.5439,-3.5478,-3.5806,-3.6283,-3.6729,-3.7222,-3.7725,-3.7959,-3.7886,-3.755,-3.6751,-3.5444,-3.5688,-3.6011,-3.6419,-3.8743,-4.0161,-4.05,-4.2635,-4.3568,-4.3231,-4.3929,-4.4431,-4.4787,-4.4771,-4.4755,0.0,0.0,0.0,0.0,0.0,0.0,0.0,-2.6995,-2.7256,-2.7957,-2.8638,-2.9244,-2.982,-3.0897,-3.1928,-3.2755,-3.3792,-3.4473,-3.4326,-3.3643,-3.2735,-3.1661,-3.2448,-3.3176,-3.3284,-3.4138,-3.4715,-3.4823,-3.4823,-3.4823,-3.4823,-3.4823,-3.4823,-3.4823,-3.4823,-3.4823,-3.4823,-3.4823,-3.4823,-3.4823,-3.4823,-3.4823,-3.4823,-3.4823,-3.4823,-3.4823,-3.492,-3.5102,-3.5379,-3.6951,-3.8715,-4.0399,-4.0198,-4.0357,-4.0702,-4.0616,-4.053,-4.0446,-3.9786,-3.9619,-3.9704,-3.9048,-3.8978,-3.9116,-3.9086,-3.8877,-3.8779,-3.8779,-3.9278,-3.9804,-3.9728,-4.0314,-4.0754,-4.0096,-3.9995,-3.9757,-3.8668,-3.8284,-3.7976,-3.7371,-3.7024,-3.6781,-3.6781,-3.6781,-3.6581,-3.5829,-3.5599,-3.5711,-3.6245,-3.664,-3.7075,-3.7492,-3.8033,-3.8266,-3.8028,-3.7593,-3.7041,-3.6383,-3.7159,-3.7691,-3.7813,-4.0462,-4.2145,-4.2825,-4.4134,-4.4852,-4.4982,-4.4852,-4.4933,-4.5208,-4.5613,-4.5807,-2.6101,-2.6262,-2.6346,-2.7264,-2.6848,-2.6693,0.0,-2.9061,-2.946,-3.0769,-3.1073,-3.1386,-3.2551,-3.2839,-3.3227,-3.4339,-3.5312,-3.5386,-3.3959,-3.383,-3.3177,-3.1205,-3.1931,-3.2779,-3.3236,-3.3801,-3.433,-3.4799,-3.4823,-3.4823,-3.4823,-3.4823,-3.4823,-3.4823,-3.4823,-3.4823,-3.4823,-3.4823,-3.4823,-3.4823,-3.4823,-3.4823,-3.4823,-3.4823,-3.4823,-3.4823,-3.5584,-3.632,-3.7137,-3.8056,-3.9176,-4.0399,-4.0399,-4.0471,-4.0616,-4.0257,-4.0083,-4.0083,-4.0014,-3.9986,-3.9986,-4.0118,-4.009,-3.9792,-3.9507,-3.888,-3.8284,-3.8284,-3.7937,-3.777,-3.8324,-3.8401,-3.8314,-3.8159,-3.8419,-3.8663,-3.8517,-3.8251,-3.8109,-3.8035,-3.732,-3.6781,-3.6781,-3.6781,-3.6737,-3.6659,-3.6645,-3.6674,-3.6733,-3.6807,-3.7046,-3.7678,-3.7681,-3.7521,-3.7404,-3.7346,-3.7053,-3.641,-3.7599,-3.8575,-3.9241,-4.1382,-4.2857,-4.3569,-4.4375,-4.5095,-4.5694,-4.5079,-4.5435,-4.6633,-4.6067,-4.5807,-2.5809,-2.6253,-2.6547,-2.7091,-2.7201,-2.7501,-2.8636,-2.9446,-3.0289,-3.1411,-3.1769,-3.2084,-3.2779,-3.3257,-3.3653,0.0,-3.494,-3.5399,-3.4538,-3.3966,-3.3288,-3.2227,-3.2118,-3.2213,-3.2734,-3.354,-3.4066,-3.4299,-3.4628,-3.4628,-3.4335,-3.4628,-3.4823,-3.4823,-3.4823,-3.4823,-3.4823,-3.4823,-3.4823,-3.4823,-3.4823,-3.4823,-3.4823,-3.4823,-3.4823,-3.4823,-3.5679,-3.6508,-3.7415,-3.8069,-3.91,-4.0198,-4.0051,-4.011,-4.0257,-4.0343,-4.043,-4.0343,-4.0083,-4.0097,-4.0142,-3.9609,-3.9485,-3.936,-3.8935,-3.8477,-3.82,-3.82,-3.8021,-3.7882,-3.8003,-3.7942,-3.7887,-3.7742,-3.7844,-3.8052,-3.8441,-3.8296,-3.8253,-3.8457,-3.8105,-3.7769,-3.7624,-3.7624,-3.7624,-3.7624,-3.7067,-3.6802,-3.7168,-3.7155,-3.7332,-3.7959,-3.7973,-3.7967,-3.791,-3.7893,-3.7594,-3.699,-3.8626,-3.978,-4.0094,-4.2584,-4.4051,-4.434,-4.5043,-4.5516,-4.5807,-4.5516,-4.5905,-4.6876,-4.6568,-4.6354,-2.5598,-2.5891,-2.6057,-2.6749,-2.7131,-2.7467,-2.8168,-2.9396,-3.0708,-3.1575,-3.217,-3.2659,-3.3016,-3.3518,-3.3783,-3.3579,-3.4567,-3.5059,-3.4358,-3.3487,-3.2671,-3.2103,-3.1603,-3.1483,-3.2041,-3.3019,-3.3612,-3.3796,-3.4302,-3.4388,-3.3831,-3.4433,-3.4628,-3.4335,-3.464,-3.4726,-3.4628,-3.4738,-3.4823,-3.4823,-3.4823,-3.4823,-3.4823,-3.4823,-3.4823,-3.4823,-3.5953,-3.6777,-3.7507,-3.8368,-3.9292,-4.011,-3.995,-4.0023,-4.0257,-4.0616,-4.0616,-4.0443,-4.0083,-3.9986,-3.9878,-3.9078,-3.8817,-3.8682,-3.8338,-3.809,-3.7869,-3.7869,-3.7662,-3.7497,-3.7365,-3.732,-3.7288,-3.7141,-3.7183,-3.7505,-3.7901,-3.8127,-3.8277,-3.8575,-3.8575,-3.8441,-3.8277,-3.8202,-3.8202,-3.8202,-3.7565,-3.7229,-3.7623,-3.7623,-3.7725,-3.8149,-3.8273,-3.8227,-3.8075,-3.8217,-3.8061,-3.7467,-3.9501,-4.0784,-4.0849,-4.3428,-4.4787,-4.4787,-4.5273,-4.5613,-4.5807,-4.5807,-4.618,-4.6876,-4.6876,-4.6807,-2.537,-2.4943,-2.4605,-2.6525,-2.6392,-2.6125,-2.7485,-2.9276,-3.0834,-3.1622,-3.2542,-3.3343,-3.3999,-3.396,-3.3867,-3.4152,-3.4686,-3.4468,-3.2649,-3.1933,-3.111,-2.9784,-2.9954,-3.0445,-3.0959,-3.1933,-3.2744,-3.3178,-3.3679,-3.3801,-3.3224,-3.4237,-3.4335,-3.3247,-3.4237,-3.4531,-3.404,-3.4531,-3.4823,-3.4823,-3.4823,-3.4823,-3.4823,-3.4823,-3.4823,-3.492,-3.6577,-3.7415,-3.7507,-3.9264,-4.011,-4.0399,-4.0399,-4.0471,-4.0702,-4.0702,-4.043,-3.9996,-3.9996,-3.9522,-3.8869,-3.9026,-3.8542,-3.7977,-3.8117,-3.7634,-3.7003,-3.7003,-3.6402,-3.5764,-3.575,-3.575,-3.5737,-3.5723,-3.627,-3.6744,-3.6744,-3.7519,-3.8202,-3.8202,-3.8366,-3.8516,-3.8516,-3.8366,-3.8202,-3.8202,-3.8173,-3.8159,-3.8173,-3.8173,-3.8193,-3.8299,-3.8265,-3.806,-3.7487,-3.7947,-3.8054,-3.7408,-3.9929,-4.1469,-4.1598,-4.3638,-4.4787,-4.4787,-4.4804,-4.5144,-4.5807,-4.5807,-4.618,-4.6876,-4.6876,-4.6876,-2.4832,-2.482,-2.5029,-2.6761,-2.669,-2.6684,-2.8452,-2.9164,-2.9763,-3.0784,-3.0748,-3.0625,-3.112,-3.1543,-3.1944,-3.2241,-3.306,-3.336,-3.2438,-3.1894,-3.1156,-3.0102,-3.0348,-3.0701,-3.0942,-3.154,0.0,-3.2655,-3.2863,-3.2903,-3.27,-3.3335,-3.3545,-3.3247,-3.3941,-3.4139,-3.404,-3.4531,-3.4823,-3.4823,-3.4823,-3.4823,-3.4823,-3.4823,-3.4823,-3.492,-3.6671,-3.7415,-3.7507,-3.9264,-4.0198,-4.0399,-4.0399,-4.0558,-4.0702,-4.0702,-4.0264,-3.9659,-3.9488,-3.8844,-3.8098,-3.759,-3.7247,-3.7002,-3.6607,-3.6348,-3.6103,-3.6103,-3.5953,-3.571,-3.571,-3.571,-3.571,-3.571,-3.5871,-3.6191,-3.6587,-3.7275,-3.7886,-3.8127,-3.859,-3.8811,-3.8516,-3.8441,-3.8575,-3.906,-3.8634,-3.8202,-3.8202,-3.8267,-3.8243,-3.8286,-3.8295,-3.8213,-3.7997,-3.8223,-3.8487,-3.8798,-4.01,-4.1271,-4.2245,-4.3443,-4.4236,-4.4573,-4.4589,-4.4927,-4.5484,-4.5484,-4.5906,-4.6738,-4.6738,-4.6738,-2.4905,-2.5041,-2.5323,-2.6802,-2.6745,-2.6694,-2.81,-2.8499,-2.8798,-2.9589,-2.9166,-2.8883,-2.9448,-2.986,-3.0388,-3.1177,-3.1996,-3.2331,-3.1768,-3.1268,-3.0683,-2.9894,-3.0041,-3.0466,-3.0907,-3.1222,0.0,-3.2061,-3.2358,-3.2389,-3.2095,-3.2835,-3.3047,-3.2633,-3.3545,-3.3941,-3.3744,-3.4433,-3.4823,-3.4823,-3.4823,-3.4823,-3.4823,-3.4823,-3.5017,-3.5379,-3.6871,-3.7691,-3.8134,-3.9618,-4.0357,-4.0471,-4.0471,-4.063,-4.0702,-4.0702,-3.9998,-3.9061,-3.9199,-3.8475,-3.7482,-3.692,-3.6552,-3.6212,-3.5832,-3.571,-3.571,-3.571,-3.571,-3.571,-3.571,-3.571,-3.571,-3.571,-3.571,-3.579,-3.627,-3.6808,-3.7429,-3.7886,-3.8352,-3.8649,-3.8575,-3.8723,-3.8929,-3.9364,-3.919,-3.8939,-3.8747,-3.8677,-3.8576,-3.8381,-3.8512,-3.8509,-3.8336,-3.8515,-3.8972,-3.9667,-4.0603,-4.159,-4.2703,-4.375,-4.4297,-4.4372,-4.4613,-4.4982,-4.5293,-4.5533,-4.5955,-4.6458,-4.6458,-4.6458,-2.5508,-2.552,-2.536,-2.6675,-2.655,-2.6199,-2.667,-2.7331,-2.7881,-2.8062,-2.7983,-2.8088,-2.88,-2.8766,-2.9161,-3.0804,-3.149,-3.1514,-3.066,-3.0113,-2.9657,-2.9189,-2.9138,-2.9602,-3.081,-3.0919,0.0,-3.1586,0.0,-3.2081,-3.1597,-3.2544,-3.2645,-3.1618,-3.3135,-3.3645,-3.3247,-3.4237,-3.4823,-3.4726,-3.4823,-3.4823,-3.4823,-3.4823,-3.5295,-3.632,-3.7348,-3.8238,-3.921,-4.0229,-4.0702,-4.0702,-4.0702,-4.0688,-4.0645,-4.0645,-3.9535,-3.8242,-3.9061,-3.8325,-3.6921,-3.6921,-3.6361,-3.571,-3.571,-3.571,-3.571,-3.571,-3.571,-3.571,-3.571,-3.571,-3.571,-3.571,-3.571,-3.571,-3.571,-3.6191,-3.69,-3.7414,-3.7796,-3.8113,-3.8708,-3.9118,-3.9334,-3.9235,-3.9889,-4.0293,-3.9708,-3.9492,-3.9118,-3.8422,-3.8817,-3.8932,-3.844,-3.8782,-3.9354,-4.018,-4.1405,-4.2429,-4.3067,-4.4493,-4.4941,-4.4218,-4.4941,-4.5309,-4.5341,-4.5943,-4.6262,-4.6262,-4.6262,-4.6262,-2.5363,-2.5609,-2.5941,-2.6858,-2.6575,-2.6449,-2.7743,-2.7566,-2.7164,-2.7154,-2.6651,-2.6058,-2.5581,-2.6529,-2.7828,-2.9325,-3.0653,0.0,-3.0838,-3.0683,-3.0227,-2.9222,-2.9623,-3.0155,-3.0843,-3.1225,0.0,0.0,-3.1361,-3.1406,-3.1597,-3.1823,-3.1924,-3.1618,-3.242,-3.2924,-3.3247,-3.4237,-3.4628,-3.4237,-3.4628,-3.4823,-3.4823,-3.4823,-3.492,-3.5295,-3.6871,-3.7599,-3.7952,-3.953,-4.017,-4.017,-4.017,-3.9892,-3.9504,-3.9504,-3.8559,-3.7305,-3.7538,-3.6921,-3.6035,-3.6035,-3.5845,-3.571,-3.571,-3.571,-3.571,-3.571,-3.571,-3.571,-3.571,-3.571,-3.571,-3.571,-3.571,-3.571,-3.571,-3.6191,-3.6744,-3.69,-3.7919,-3.8796,-3.8942,-3.9576,-4.0278,-4.0774,-4.0992,-4.0613,-3.9256,-3.9287,-3.9062,-3.8135,-3.8305,-3.8526,-3.882,-3.8953,-3.9518,-4.0812,-4.1629,-4.2429,-4.3115,-4.4045,-4.4585,-4.4798,-4.4989,-4.5269,-4.5683,-4.5857,-4.6008,-4.6168,-4.6168,-4.6223,-2.5682,-2.603,-2.6383,-2.7126,-2.6977,-2.6914,-2.7898,-2.7534,-2.6811,-2.6213,-2.571,-2.5188,-2.4687,-2.5402,-2.6713,-2.8596,-2.9586,-3.0129,-3.0385,-3.0212,-2.9827,-2.9148,-2.9343,-2.9775,-3.0339,-3.0632,-3.0795,0.0,-3.1037,-3.1334,-3.1607,-3.1618,-3.1618,-3.1618,-3.2117,-3.2622,-3.3147,-3.404,-3.4335,-3.404,-3.4335,-3.4531,-3.4823,-3.4823,-3.5017,-3.5571,0.0,-3.7456,-3.7778,-3.906,-3.9443,-3.9208,-3.9208,-3.9001,-3.8711,-3.8711,-3.7937,-3.6976,-3.6976,-3.6402,-3.571,-3.571,-3.571,-3.571,-3.571,-3.571,-3.571,-3.571,-3.571,-3.571,-3.571,-3.571,-3.571,-3.571,-3.571,-3.571,-3.571,-3.6256,-3.7028,-3.7691,-3.8723,-3.952,-3.9632,-4.0332,-4.0977,-4.1327,-4.1672,-4.1369,-4.0022,-4.0103,-3.9848,-3.8935,-3.9176,-3.9494,-3.9454,-3.962,-4.0212,-4.1374,-4.2027,-4.2789,-4.3806,-4.4522,-4.5078,-4.5334,-4.5334,-4.5468,-4.5807,-4.5807,-4.588,-4.5968,-4.5968,-4.6024,-2.5983,-2.6367,-2.6662,-2.7339,-2.7469,-2.7444,-2.7498,-2.7288,-2.6686,-2.5387,-2.5013,-2.4903,-2.4736,-2.4882,-2.5788,-2.8184,-2.8509,-2.8702,-2.9654,-2.941,-2.9179,-2.9148,-2.8914,-2.9074,-2.9742,-2.9796,-2.9698,-2.9533,-3.0684,-3.1364,-3.1429,-3.1429,-3.1462,-3.1516,-3.2117,-3.2622,-3.2946,-3.3545,-3.3808,-3.3627,-3.3836,-3.4095,-3.4425,-3.4522,-3.5088,-3.6107,0.0,0.0,-3.7826,-3.8546,-3.8585,-3.8117,-3.8117,-3.8062,-3.7993,-3.7993,-3.7524,-3.6852,-3.6852,-3.6334,-3.571,-3.571,-3.571,-3.571,-3.571,-3.571,-3.571,-3.571,-3.571,-3.571,-3.571,-3.571,-3.571,-3.571,-3.571,-3.571,-3.5871,-3.648,-3.7448,-3.887,-3.9748,-4.0255,-4.0363,-4.1111,-4.1607,-4.1475,-4.2093,-4.2282,-4.134,-4.1243,-4.0984,-4.0064,-4.0543,-4.0687,-4.0098,-4.0373,-4.0958,-4.1785,-4.2366,-4.3216,-4.4401,-4.5238,-4.5665,-4.5665,-4.576,-4.5807,-4.5807,-4.5807,-4.5807,-4.5807,-4.5807,-4.5807,-2.5107,-2.5776,-2.6616,-2.6994,-2.7243,-2.7358,-2.7205,-2.6995,-2.6396,-2.4878,-2.4563,-2.4193,-2.2923,-2.3877,-2.5407,-2.7087,-2.7946,-2.8772,-2.9914,-2.986,-2.955,-2.9148,-2.9298,-2.9578,-3.0068,-2.9894,0.0,0.0,0.0,-3.0038,-3.0322,-3.0344,-3.0617,-3.1208,-3.2015,-3.2218,-3.1924,-3.2846,-3.283,-3.1804,-3.2811,-3.3074,-3.2652,-3.3255,-3.4003,-3.4715,0.0,0.0,-3.6764,-3.7493,-3.7708,-3.7612,-3.7612,-3.73,-3.6837,-3.6837,-3.647,-3.5953,-3.5953,-3.5805,-3.571,-3.571,-3.571,-3.571,-3.571,-3.571,-3.571,-3.571,-3.571,-3.571,-3.571,-3.571,-3.571,-3.571,-3.571,-3.5871,-3.6559,-3.7295,-3.7951,-3.825,-3.9418,-4.0347,-4.0416,-4.1525,-4.2429,-4.2365,-4.2445,-4.2333,-4.1949,-4.1548,-4.0922,-3.9941,-3.9973,-4.0165,-4.0436,-4.053,-4.0893,-4.1623,-4.2284,-4.2789,-4.3026,-4.4243,-4.4907,-4.4907,-4.5507,-4.5807,-4.5807,-4.5807,-4.5807,-4.5807,-4.5807,-4.5807,-2.4199,-2.4959,-2.5721,-2.6196,-2.6823,-2.7221,-2.6796,-2.6594,-2.6072,-2.4547,-2.4471,-2.4347,-2.3204,-2.4058,-2.5161,-2.5872,-2.6346,-2.7088,-2.8476,-2.8299,-2.8265,-2.8831,-2.8823,-2.8614,-2.8443,-2.8668,-2.8561,-2.7883,0.0,-2.8813,-2.9732,-2.9774,-2.997,-3.0295,-3.0975,-3.1075,-3.0497,-3.1285,-3.1547,-3.1398,-3.1991,-3.2439,-3.2794,-3.3179,-3.3642,-3.4338,-3.5035,0.0,-3.5996,-3.6703,-3.6863,-3.6592,-3.6592,-3.6402,-3.6144,-3.6144,-3.5967,-3.571,-3.571,-3.571,-3.571,-3.571,-3.571,-3.571,-3.571,-3.571,-3.571,-3.571,-3.571,-3.571,-3.571,-3.6017,-3.6322,-3.6322,-3.661,-3.7141,-3.7965,-3.8487,-3.8928,-3.9505,-4.0239,-4.0805,-4.1008,-4.1754,-4.2365,-4.2365,-4.2445,-4.2445,-4.2365,-4.2075,-4.1612,-4.0849,-4.0817,-4.096,-4.1099,-4.1114,-4.1257,-4.1573,-4.2284,-4.2695,-4.2695,-4.3658,-4.4196,-4.4196,-4.4543,-4.4733,-4.4733,-4.4733,-4.4907,-4.5238,-4.5238,-4.5444,-2.3325,-2.4196,-2.4963,-2.5589,-2.6511,-2.7105,-2.6408,-2.6245,-2.5751,-2.4185,-2.4269,-2.4393,-2.358,-2.4116,-2.4702,-2.4725,-2.479,-2.5381,-2.6987,-2.6822,-2.6981,-2.8172,-2.7987,-2.7505,-2.6829,-2.7315,0.0,-2.6476,0.0,0.0,-2.9046,-2.9381,-2.9434,-2.9434,-3.0014,-3.0112,-2.9631,-3.0112,-3.0533,-3.0903,-3.119,-3.1702,-3.2554,-3.2843,-3.3381,-3.417,-3.4768,0.0,0.0,-3.6154,-3.6144,-3.571,-3.571,-3.571,-3.571,-3.571,-3.5642,-3.5533,-3.5533,-3.5438,-3.533,-3.533,-3.5506,-3.571,-3.571,-3.571,-3.571,-3.571,-3.5628,-3.5533,-3.5533,-3.5888,-3.6339,-3.662,-3.7386,-3.8311,-3.913,-3.9463,-3.9834,-4.0783,-4.0961,-4.0986,-4.1302,-4.1628,-4.1885,-4.2013,-4.2332,-4.2571,-4.2571,-4.2445,-4.2238,-4.1785,-4.1882,-4.1882,-4.172,-4.172,-4.172,-4.167,-4.2208,-4.2525,-4.2457,-4.3121,-4.35,-4.35,-4.3643,-4.3722,-4.3722,-4.3722,-4.399,-4.4496,-4.4496,-4.4812,-2.259,-2.3634,-2.4971,-2.5711,-2.6592,-2.7063,-2.6197,-2.6144,-2.557,-2.3445,-2.3638,-2.377,-2.2559,-2.2853,-2.348,-2.3994,-2.4258,-2.5015,-2.6734,-2.7104,-2.7136,-2.6968,-2.6924,-2.6924,-2.6829,-2.6733,-2.6849,0.0,0.0,0.0,-2.8063,-2.8884,-2.9413,-2.9413,-2.9916,-3.0209,-3.0123,-3.0209,-2.9894,-2.9363,-3.0397,-3.0697,-3.0137,-3.1347,-3.2586,-3.3781,0.0,0.0,0.0,-3.571,-3.5764,-3.571,-3.571,-3.571,-3.571,-3.571,-3.5371,-3.4909,-3.4909,-3.4556,-3.4032,-3.4032,-3.4841,-3.571,-3.571,-3.571,-3.571,-3.571,-3.533,-3.4909,-3.4909,-3.4516,-3.4525,-3.5787,-3.7112,-3.8317,-3.9113,-3.9849,-4.0455,-4.0524,-4.0386,-4.0297,-4.0576,-4.096,-4.1291,-4.1601,-4.2213,-4.2571,-4.2445,-4.2381,-4.2318,-4.2109,-4.2045,-4.2045,-4.2045,-4.2045,-4.1996,-4.1898,-4.1962,-4.1912,-4.1699,-4.2394,-4.2774,-4.2774,-4.3406,-4.3722,-4.3722,-4.3722,-4.3737,-4.3769,-4.3801,-4.3848,-2.1644,-2.2817,-2.3894,-2.4105,-2.5703,-2.6783,-2.5385,-2.5634,-2.5663,-2.3709,-2.3637,-2.3628,-2.2796,-2.2633,-2.2735,-2.281,-2.273,-2.3163,-2.4686,-2.52,-2.556,-2.6003,-2.6258,-2.6039,0.0,0.0,-2.6754,0.0,0.0,0.0,-2.751,-2.789,-2.8061,-2.7683,-2.7957,-2.8157,-2.8263,-2.8263,-2.8589,-2.9146,-2.9602,-3.0045,-3.0476,-3.1026,-3.2164,-3.37,0.0,0.0,0.0,-3.495,-3.5072,-3.5683,-3.5316,-3.5181,-3.5181,-3.5181,-3.4814,-3.4221,-3.4221,-3.4072,-3.3869,-3.3869,-3.4194,-3.4651,-3.4651,-3.4651,-3.4651,-3.4651,-3.4475,-3.4376,-3.4684,-3.5232,-3.5899,-3.699,-3.7625,-3.8144,-3.8469,-3.8736,-3.8971,-3.8971,-3.8892,-3.8842,-3.8943,-3.9531,-4.0056,-4.0181,-4.1209,-4.2002,-4.194,-4.225,-4.2508,-4.2445,-4.2238,-4.2109,-4.2109,-4.2109,-4.2061,-4.1996,-4.1996,-4.1996,-4.1916,-4.2087,-4.2195,-4.2195,-4.2382,-4.2442,-4.2442,-4.2442,-4.2663,-4.309,-4.3105,-4.3327,-2.0858,-2.2064,-2.304,-2.2954,-2.4876,-2.6377,-2.4912,-2.5384,-2.556,-2.383,-2.3622,-2.3454,-2.2598,-2.2274,-2.2025,-2.1597,-2.1581,-2.1953,-2.2984,-2.3598,-2.4196,-2.4723,0.0,-2.4956,0.0,-2.5206,0.0,0.0,0.0,0.0,0.0,-2.7262,-2.7201,-2.6869,-2.6827,-2.6938,-2.7133,-2.7006,-2.7377,-2.8433,-2.8514,-2.9048,-2.9857,-3.0213,-3.1317,-3.2911,0.0,0.0,0.0,-3.4208,-3.4434,-3.5153,-3.4733,-3.457,-3.457,-3.457,-3.419,-3.3688,-3.3688,-3.358,-3.343,-3.343,-3.343,-3.343,-3.343,-3.3661,-3.3946,-3.4099,-3.4114,-3.4223,-3.4413,-3.5353,-3.6374,-3.7196,-3.7525,-3.7719,-3.7916,-3.8029,-3.8029,-3.8029,-3.7877,-3.774,-3.7806,-3.8508,-3.8999,-3.914,-4.0347,-4.1241,-4.1241,-4.1695,-4.2002,-4.2002,-4.1931,-4.2013,-4.2222,-4.2238,-4.2238,-4.2174,-4.2174,-4.2174,-4.2109,-4.2012,-4.1947,-4.1947,-4.1801,-4.172,-4.172,-4.172,-4.1989,-4.2497,-4.2497,-4.2877,-2.0262,-2.1479,-2.2711,-2.2783,-2.4422,-2.5834,-2.5147,-2.5429,-2.5282,-2.347,-2.3349,-2.3149,-2.1714,-2.1509,-2.1337,-2.0617,-2.1295,-2.1966,-2.2078,-2.2938,-2.3456,-2.3238,-2.3272,-2.3363,-2.3698,-2.4405,0.0,0.0,0.0,0.0,0.0,-2.7262,-2.7357,-2.7536,-2.7448,-2.7274,-2.7285,-2.687,-2.6747,-2.6747,-2.7249,-2.7403,-2.7492,-2.8614,-2.9773,0.0,0.0,0.0,0.0,-3.3883,-3.3883,-3.3896,-3.3883,-3.3883,-3.3883,-3.3883,-3.358,-3.3152,-3.3152,-3.2684,-3.2196,-3.2196,-3.2196,-3.2196,-3.2196,-3.3023,-3.4023,-3.463,-3.4761,-3.4554,-3.3982,-3.4206,-3.4852,-3.5701,-3.6335,-3.6944,-3.781,-3.8029,-3.8029,-3.8029,-3.743,-3.7121,-3.7443,-3.7904,-3.8306,-3.8642,-3.9746,-4.0496,-4.0496,-4.0513,-4.0513,-4.0513,-4.116,-4.1857,-4.2569,-4.2571,-4.2571,-4.2381,-4.2381,-4.2318,-4.2109,-4.2109,-4.2109,-4.2109,-4.2109,-4.2109,-4.2109,-4.2109,-4.2109,-4.2125,-4.2125,-4.2525,-2.0976,-2.1886,-2.2646,-2.2536,-2.3747,-2.4621,-2.3498,-2.4157,-2.4568,-2.2829,-2.2631,-2.2408,-2.1528,-2.0894,-2.0478,-2.0686,-2.1063,-2.1363,-2.1424,-2.2945,-2.374,-2.2781,-2.2811,-2.2968,0.0,0.0,0.0,0.0,0.0,0.0,0.0,-2.7262,-2.7212,-2.689,-2.6827,-2.6938,-2.7133,-2.6996,-2.7172,-2.7562,-2.7736,-2.8001,-2.8265,-2.863,0.0,0.0,0.0,0.0,0.0,-3.2914,-3.3213,-3.3829,-3.3498,-3.3349,-3.3349,-3.3349,-3.2969,-3.2453,-3.2453,-3.2331,-3.2182,-3.2182,-3.2182,-3.2182,-3.2182,-3.244,-3.2872,-3.3429,-3.3847,-3.4123,-3.4317,-3.4758,-3.5258,-3.5532,-3.5789,-3.5979,-3.6255,-3.63,-3.63,-3.63,-3.6135,-3.5999,-3.6129,-3.6532,-3.6878,-3.6956,-3.8273,-3.9278,-3.9278,-3.9907,-4.0393,-4.0496,-4.0603,-4.1023,-4.1857,-4.2359,-4.2571,-4.2571,-4.2571,-4.2508,-4.2429,-4.2365,-4.2318,-4.2318,-4.2174,-4.2109,-4.2109,-4.2109,-4.2109,-4.2109,-4.2109,-4.2237,-2.1023,-2.1729,-2.2216,-2.1845,-2.2922,-2.3778,-2.2787,-2.3486,-2.3903,-2.2636,-2.2177,-2.1791,-2.1008,-2.0248,-1.9878,-2.0053,-2.0222,-2.0404,-2.0486,-2.2056,-2.2934,-2.2518,0.0,0.0,0.0,0.0,0.0,0.0,0.0,0.0,0.0,-2.6734,-2.661,-2.632,-2.6475,-2.6671,-2.6867,-2.6689,-2.6823,-2.7189,-2.7189,-2.7363,-2.7639,-2.7915,0.0,0.0,0.0,0.0,0.0,-3.1862,-3.2219,-3.2836,-3.2786,-3.2725,-3.2725,-3.2725,-3.2494,-3.2182,-3.2182,-3.2182,-3.2182,-3.2182,-3.2182,-3.2182,-3.2182,-3.2314,-3.2588,-3.2931,-3.352,-3.4192,-3.4528,-3.5052,-3.5504,-3.5504,-3.5504,-3.5504,-3.5504,-3.5504,-3.5504,-3.5504,-3.5504,-3.5504,-3.5504,-3.591,-3.6258,-3.6399,-3.7418,-3.8245,-3.838,-3.8958,-3.9425,-3.9527,-3.9725,-4.0003,-4.0559,-4.1297,-4.1717,-4.1717,-4.1655,-4.1655,-4.1655,-4.1593,-4.1659,-4.1995,-4.1869,-4.1997,-4.2302,-4.2302,-4.2302,-4.2302,-4.2302,-4.2302,0.0,-2.1068,-2.1478,-2.0827,-2.1997,-2.3226,-2.2937,-2.3111,0.0,-2.2652,-2.1978,-2.1135,-2.0074,-1.9679,-1.937,-1.8952,-1.9078,-1.9364,-1.9565,-2.0482,-2.1516,0.0,-2.2585,0.0,0.0,0.0,0.0,0.0,0.0,0.0,0.0,-2.5875,-2.5875,-2.5875,-2.6289,-2.6517,-2.6517,-2.6092,-2.5875,-2.5875,-2.5875,-2.5875,-2.5875,-2.6515,0.0,0.0,0.0,0.0,0.0,-3.0882,-3.1193,-3.1307,-3.1842,-3.2074,-3.2114,-3.2114,-3.2114,-3.2114,-3.2169,-3.2155,-3.2101,-3.206,-3.2046,-3.2046,-3.2046,-3.2448,-3.2917,-3.2988,-3.3713,-3.4528,-3.4595,-3.5052,-3.5504,-3.5504,-3.5504,-3.5504,-3.5504,-3.5504,-3.5504,-3.5504,-3.5504,-3.5504,-3.5504,-3.5846,-3.6274,-3.66,-3.6997,-3.7476,-3.7743,-3.7876,-3.7876,-3.7876,-3.8526,-3.8926,-3.8926,-3.9734,-4.0305,-4.0305,-4.0184,-4.0123,-4.0123,-4.0123,-4.0505,-4.1287,-4.1303,-4.1671,-4.2409,-4.2425,-4.2442,-4.249,-4.249,-4.2585,-1.9572,0.0,-2.1081,-2.1439,-2.1339,-2.1375,0.0,-2.1945,-2.1439,-2.1741,-2.0996,-2.027,-2.0174,-1.9473,-1.9017,-1.9196,-1.9809,-1.9987,-1.954,-2.05,0.0,-2.2585,-2.2466,-2.2221,0.0,0.0,0.0,0.0,0.0,0.0,0.0,-2.5593,-2.5875,-2.5875,-2.5989,-2.6041,-2.6041,-2.5937,-2.5875,-2.5875,-2.5875,-2.5875,-2.5885,-2.6055,0.0,0.0,0.0,0.0,-3.0075,-3.0316,-3.0923,-3.1636,-3.0797,-3.0788,-3.1249,-3.1249,-3.1249,-3.1402,-3.2019,-3.1798,-3.1182,-3.0596,-3.0449,-3.0519,-3.0854,-3.1507,-3.2228,-3.2632,-3.3241,-3.3837,-3.4245,-3.4905,-3.5504,-3.5504,-3.5504,-3.5504,-3.5504,-3.5504,-3.5504,-3.5504,-3.5504,-3.5504,-3.5504,-3.5554,-3.5683,-3.5748,-3.6414,-3.6892,-3.6968,-3.7449,-3.7759,-3.7876,-3.7961,-3.8073,-3.8115,-3.9402,-4.0123,-4.0123,-4.0123,-4.0123,-4.0123,-4.0123,-4.0203,-4.0424,-4.044,-4.0521,-4.0665,-4.0788,-4.1139,-4.1671,-4.1779,-4.2116,-1.7519,-1.9096,-2.0511,-2.0367,-2.061,-2.09,-2.1075,-2.0905,-2.0764,-2.0858,-2.0161,-1.9473,-1.9404,-1.8936,-1.8693,-1.8941,-1.9462,0.0,0.0,0.0,-2.1769,-2.2579,-2.2359,0.0,0.0,0.0,0.0,0.0,0.0,0.0,0.0,-2.4563,-2.4917,-2.5264,-2.5264,-2.5461,-2.5875,-2.5875,-2.5875,-2.5875,-2.5875,-2.5875,-2.5875,-2.5875,0.0,0.0,0.0,0.0,-2.8932,-2.9048,-2.9439,-2.9965,-2.9697,-2.9857,-3.0277,-3.0432,-3.0502,-3.0542,-3.102,-3.0841,-3.0449,-3.0057,-2.9894,-3.0019,-3.0433,-3.0881,-3.1341,-3.2014,-3.2617,-3.3073,-3.347,-3.4307,-3.4951,-3.4651,-3.5055,-3.5415,-3.51,-3.528,-3.5504,-3.5504,-3.5504,-3.5504,-3.5504,-3.5504,-3.5569,-3.5683,-3.6241,-3.6662,-3.68,-3.7285,-3.7658,-3.77,-3.7642,-3.7642,-3.77,-3.8476,-3.8906,-3.8966,-3.8966,-3.8906,-3.8906,-3.8906,-3.9125,-3.9505,-3.9902,-4.0123,-4.0123,-4.0184,-4.0376,-4.0823,-4.0868,-4.1123,-1.5312,-1.7541,-1.9426,-1.8726,-1.9716,-2.0643,-1.977,-1.9977,-2.0302,-1.9901,-1.9233,-1.868,-1.8489,-1.8385,-1.8315,-1.854,-1.8841,0.0,-2.1034,-2.1328,-2.1653,-2.2316,-2.198,0.0,0.0,0.0,0.0,0.0,0.0,0.0,0.0,-2.3246,-2.3584,-2.4163,-2.4248,-2.4705,-2.5461,-2.5606,-2.5678,-2.5678,-2.5606,-2.5575,-2.5575,-2.5502,-2.5945,0.0,0.0,0.0,-2.7702,-2.7668,-2.779,-2.8059,-2.8814,-2.9166,-2.9315,-2.9608,-2.9747,-2.976,-2.976,-2.9691,-2.9678,-2.9571,-2.9544,-2.9613,-3.0079,-3.0147,-3.0147,-3.1016,-3.1797,-3.2391,-3.2596,-3.3528,-3.4188,-3.3634,-3.4367,-3.504,-3.4457,-3.4786,-3.522,-3.5325,-3.5265,-3.5235,-3.5325,-3.5265,-3.5319,-3.5543,-3.592,-3.6338,-3.6706,-3.7084,-3.737,-3.7464,-3.748,-3.748,-3.748,-3.748,-3.7539,-3.7642,-3.7539,-3.748,-3.748,-3.748,-3.7884,-3.8591,-3.9317,-3.9681,-3.9681,-3.9742,-3.979,-3.9902,-3.9962,-4.0011,-1.4496,-1.5596,-1.6708,-1.8066,-1.8469,-1.8771,-1.9697,-1.8924,-1.8104,-1.8603,-1.8007,-1.7554,-1.8236,-1.8177,-1.8189,-1.8651,-1.8704,-1.9187,0.0,0.0,-2.0317,-2.1227,0.0,0.0,0.0,0.0,0.0,0.0,0.0,0.0,0.0,0.0,-2.2413,-2.2526,-2.3074,-2.3381,-2.336,-2.4279,-2.4747,-2.4736,-2.4364,-2.4188,-2.4167,-2.3774,-2.4271,0.0,0.0,-2.6074,-2.7483,-2.7379,-2.786,-2.8789,-2.8232,-2.8424,-2.9078,-2.9091,-2.9159,-2.9078,-2.8955,-2.8887,-2.8739,-2.809,-2.7865,-2.7986,-2.8504,-2.8635,-2.8752,-2.9462,-3.0828,-3.2155,-3.2391,-3.3048,-3.3619,-3.3514,-3.3649,-3.3784,-3.3664,-3.3724,-3.3963,-3.4517,-3.4188,-3.3978,-3.4547,-3.4173,-3.3799,-3.386,-3.4379,-3.4953,-3.5613,-3.6228,-3.6817,-3.7417,-3.748,-3.748,-3.748,-3.748,-3.7539,-3.7539,-3.7539,-3.748,-3.748,-3.748,-3.7587,-3.7698,-3.7809,-3.7916,-3.7916,-3.8034,-3.8396,-3.8985,-3.9253,-3.9693,-1.1494,-1.2395,-1.3485,-1.5189,-1.6501,-1.7449,-1.7667,-1.7378,-1.7207,-1.7539,-1.7432,-1.7249,-1.7218,-1.7612,-1.8181,-1.8604,0.0,-1.8465,-1.9962,-1.9837,-1.9723,0.0,0.0,0.0,0.0,0.0,0.0,0.0,0.0,0.0,0.0,0.0,-2.1836,-2.216,-2.2886,-2.307,-2.2869,-2.336,-2.3762,-2.3998,-2.4134,-2.4229,-2.4219,-2.4084,-2.4503,-2.534,0.0,-2.5698,-2.67,-2.6308,-2.6519,-2.6989,-2.6835,-2.7152,-2.7793,-2.8198,-2.8265,-2.8198,-2.8063,-2.8063,-2.7957,-2.7615,-2.7523,-2.7656,-2.8546,-2.8853,-2.9044,-3.0101,-3.0715,-3.1161,-3.1348,-3.2178,-3.2871,-3.2527,-3.2976,-3.3395,-3.3036,-3.3245,-3.3589,-3.3888,-3.3709,-3.3589,-3.3903,-3.3694,-3.3499,-3.3499,-3.391,-3.4315,-3.4652,-3.5217,-3.5734,-3.6064,-3.6558,-3.6911,-3.6911,-3.7259,-3.748,-3.748,-3.748,-3.748,-3.748,-3.748,-3.748,-3.748,-3.748,-3.748,-3.748,-3.7539,-3.7757,-3.8074,-3.8237,-3.8471,-0.8865,-0.9777,-1.0836,-1.2184,-1.4276,-1.5976,-1.5792,-1.6036,-1.6388,-1.6403,-1.6614,-1.6638,-1.6024,-1.6839,-1.7703,-1.8193,-1.7699,-1.7735,-1.8972,-1.8951,0.0,0.0,0.0,0.0,0.0,0.0,0.0,0.0,0.0,0.0,0.0,0.0,-2.1102,-2.1668,-2.2422,-2.2787,-2.2543,-2.2655,-2.2931,-2.3286,-2.3698,-2.3895,-2.3885,-2.3906,-2.432,-2.5071,-2.4759,-2.5024,-2.5744,-2.5409,-2.5312,-2.5394,-2.5963,-2.6502,-2.6947,-2.7272,-2.7406,-2.739,-2.7456,-2.7523,-2.7523,-2.7523,-2.7523,-2.7723,-2.8803,-2.9107,-2.9359,-3.0539,-3.0598,-3.0433,-3.0658,-3.1531,-3.2153,-3.1601,-3.2302,-3.2901,-3.2392,-3.2677,-3.308,-3.3245,-3.314,-3.308,-3.3245,-3.314,-3.3036,-3.3036,-3.3336,-3.3634,-3.3846,-3.4315,-3.4779,-3.5008,-3.5681,-3.6184,-3.6184,-3.6674,-3.699,-3.699,-3.7306,-3.748,-3.748,-3.748,-3.748,-3.748,-3.748,-3.748,-3.748,-3.748,-3.748,-3.748,-3.7539,-3.7539,-0.8189,-0.8827,-0.9357,-1.0074,-1.1741,-1.3717,-1.5499,-1.5271,-1.4759,-1.5046,-1.5028,-1.4882,-1.4889,-1.5565,-1.6389,-1.7199,-1.6894,-1.6772,-1.7044,0.0,0.0,0.0,0.0,0.0,0.0,0.0,0.0,0.0,0.0,0.0,0.0,0.0,0.0,-2.0042,-2.1247,-2.1814,-2.1604,-2.2022,-2.2391,-2.2675,-2.2292,-2.21,-2.208,-2.1635,-2.2105,-2.3218,-2.3152,-2.3796,-2.4908,-2.5194,-2.5312,-2.5431,-2.6627,-2.7264,-2.736,-2.6575,-2.6657,-2.7108,-2.739,-2.7523,-2.7523,-2.7523,-2.7523,-2.7656,-2.8352,-2.8546,-2.8725,-2.9456,-3.0011,-3.0644,-3.1278,-3.1511,-3.1541,-3.1482,-3.1541,-3.1601,-3.1556,-3.1586,-3.1854,-3.2467,-3.2093,-3.1869,-3.2482,-3.2078,-3.1616,-3.1616,-3.1905,-3.2475,-3.3402,-3.3789,-3.4319,-3.5259,-3.5442,-3.5458,-3.5458,-3.5505,-3.5537,-3.5537,-3.6753,-3.748,-3.748,-3.748,-3.748,-3.748,-3.748,-3.748,-3.748,-3.748,-3.748,-3.748,-3.7658,-3.77,-0.6519,-0.7052,-0.7687,-0.8377,-0.9485,-1.0854,-1.2561,-1.2932,-1.3136,-1.4048,-1.4389,-1.458,-1.5078,-1.4947,-1.4963,-1.581,-1.5531,-1.5383,0.0,0.0,0.0,0.0,0.0,0.0,0.0,0.0,0.0,0.0,0.0,0.0,0.0,0.0,0.0,-1.9869,-2.0761,-2.1303,-2.1527,-2.1655,-2.1771,-2.1718,-2.211,-2.2372,-2.2362,-2.2272,-2.2674,-2.3438,-2.3483,-2.3838,-2.4284,-2.4413,-2.4293,-2.4169,-2.4964,-2.5241,-2.5246,-2.5548,-2.573,-2.587,-2.6272,-2.64,-2.6349,-2.6349,-2.657,-2.6844,-2.7103,-2.7746,-2.8643,-2.927,-2.9952,-3.0584,-3.0837,-3.1219,-3.1482,-3.1482,-3.1482,-3.1482,-3.1482,-3.1482,-3.1541,-3.1854,-3.1646,-3.1556,-3.1795,-3.1704,-3.1482,-3.1482,-3.1597,-3.1917,-3.2516,-3.2798,-3.3168,-3.3811,-3.4353,-3.4889,-3.5347,-3.5394,-3.5394,-3.5394,-3.5884,-3.6184,-3.6184,-3.6184,-3.6184,-3.6184,-3.6184,-3.6184,-3.6184,-3.6184,-3.6184,-3.6184,-3.6242,-3.6463,-0.5377,-0.5866,-0.6487,-0.7192,-0.7983,-0.8889,-1.0033,-1.1084,-1.2054,-1.3088,-1.3442,-1.3741,-1.4343,-1.4002,-1.3912,0.0,-1.4393,0.0,0.0,0.0,0.0,0.0,0.0,0.0,0.0,0.0,0.0,0.0,0.0,0.0,0.0,0.0,0.0,0.0,-2.0273,-2.0857,-2.1293,-2.1237,-2.1211,-2.1292,-2.1908,-2.213,-2.203,-2.1931,-2.2331,-2.3005,-2.3021,-2.3194,-2.3594,-2.3594,-2.3569,-2.345,-2.343,-2.3622,-2.3929,-2.4362,-2.4607,-2.4782,-2.537,-2.551,-2.5447,-2.5586,-2.5946,-2.6485,-2.6545,-2.7421,-2.8491,-2.9131,-2.9682,-3.0046,-3.0046,-3.0792,-3.1482,-3.1482,-3.1482,-3.1482,-3.1482,-3.1482,-3.1482,-3.1482,-3.1482,-3.1482,-3.1482,-3.1482,-3.1482,-3.1482,-3.1482,-3.164,-3.194,-3.2135,-3.2413,-3.2843,-3.3558,-3.4178,-3.4683,-3.4731,-3.4731,-3.4731,-3.4731,-3.4936,-3.5379,-3.5394,-3.5394,-3.5394,-3.5394,-3.5394,-3.5394,-3.5394,-3.5394,-3.5394,-3.5394,-3.5647,-0.5048,-0.5431,-0.5874,-0.6402,-0.7322,-0.8194,-0.8508,-1.0151,-1.1702,-1.202,-1.2018,-1.2106,-1.2363,-1.276,0.0,-1.3461,-1.3724,0.0,0.0,0.0,0.0,0.0,0.0,0.0,0.0,0.0,0.0,0.0,0.0,0.0,0.0,0.0,0.0,0.0,-1.9559,-2.0252,-2.0877,-2.0675,-2.0907,-2.1502,-2.1282,-2.1138,-2.0896,-2.0203,-2.0501,-2.1574,-2.119,-2.1618,-2.2673,-2.2673,-2.3098,-2.3665,-2.2384,-2.2726,-2.3906,-2.3066,-2.3203,-2.3899,-2.477,-2.5103,-2.5167,-2.5497,-2.5985,-2.6573,-2.7015,-2.7605,-2.8211,-2.8917,-2.9098,-2.9098,-2.9098,-3.0297,-3.1452,-3.1467,-3.1467,-3.1467,-3.1482,-3.1482,-3.1482,-3.1482,-3.1482,-3.1482,-3.1482,-3.1482,-3.1482,-3.1482,-3.1482,-3.164,-3.194,-3.1996,-3.2221,-3.2843,-3.315,-3.3309,-3.3309,-3.3309,-3.3309,-3.3309,-3.3309,-3.3925,-3.5315,-3.5379,-3.5379,-3.5379,-3.5379,-3.5379,-3.5379,-3.5379,-3.5379,-3.5379,-3.5379,-3.5379,-0.4747,-0.5148,-0.5636,-0.5748,-0.6803,-0.7737,-0.7502,-0.9016,-1.0534,-1.0919,-1.1628,-1.1958,-1.1516,-1.2214,0.0,-1.2756,0.0,0.0,0.0,0.0,0.0,0.0,0.0,0.0,0.0,0.0,0.0,0.0,0.0,0.0,0.0,0.0,0.0,0.0,-1.959,-2.0217,-2.0857,-2.1268,-2.1507,-2.1731,-2.1512,-2.1205,-2.0906,-2.0681,-2.0918,-2.1494,-2.146,-2.1642,-2.2058,-2.1772,-2.1763,-2.1932,-2.1578,-2.1636,-2.205,-2.2119,-2.2525,-2.3033,-2.3689,-2.408,-2.4262,-2.4395,-2.5004,-2.5661,-2.5279,-2.6018,-2.7092,-2.7513,-2.7769,-2.8125,-2.8931,-2.9448,-2.9918,-3.0419,-3.0594,-3.0785,-3.1246,-3.1409,-3.1482,-3.1482,-3.1482,-3.1482,-3.1482,-3.1482,-3.1482,-3.1482,-3.1482,-3.1697,-3.2191,-3.2484,-3.2773,-3.315,-3.3256,-3.3309,-3.3309,-3.3309,-3.3309,-3.3309,-3.3309,-3.3482,-3.3909,-3.3925,-3.3925,-3.3925,-3.3925,-3.3925,-3.3925,-3.3925,-3.3925,-3.3925,-3.3925,-3.4178,-0.5068,-0.5467,-0.5835,-0.6089,-0.6778,-0.7443,-0.7508,-0.8554,-0.9717,-1.0377,-1.0926,-1.1237,-1.0763,-1.1364,0.0,0.0,0.0,0.0,0.0,0.0,0.0,0.0,0.0,0.0,0.0,0.0,0.0,0.0,0.0,0.0,0.0,0.0,0.0,0.0,-1.9252,-1.9888,-2.0459,-2.1115,-2.1583,-2.1807,-2.1655,-2.1425,-2.1128,-2.0881,-2.1019,-2.1411,-2.1474,-2.1487,-2.1554,-2.1282,-2.1221,-2.1221,-2.1221,-2.1221,-2.1221,-2.1526,-2.1815,-2.2125,-2.2811,-2.3185,-2.3437,-2.3772,-2.4465,-2.5061,-2.4514,-2.519,-2.6144,-2.6526,-2.6806,-2.7159,-2.7952,-2.8184,-2.8458,-2.9466,-2.9743,-2.9918,-3.0359,-3.0505,-3.0577,-3.0577,-3.0577,-3.0577,-3.0577,-3.0785,-3.1021,-3.1021,-3.1417,-3.1721,-3.1769,-3.2439,-3.2951,-3.3096,-3.3256,-3.3309,-3.3309,-3.3309,-3.3309,-3.3309,-3.3309,-3.3309,-3.3309,-3.3309,-3.3309,-3.3309,-3.3309,-3.3309,-3.3309,-3.3309,-3.3309,-3.3309,-3.3309,-3.3514,-0.5741,-0.5999,-0.6303,-0.69,-0.7187,-0.7397,-0.8074,-0.8444,-0.9043,-0.9941,-1.012,-1.0135,-1.0178,-1.041,-1.0621,0.0,0.0,0.0,0.0,0.0,0.0,0.0,0.0,0.0,0.0,0.0,0.0,0.0,0.0,0.0,0.0,0.0,0.0,0.0,-1.8515,-1.9144,-1.9667,-2.0407,-2.0979,0.0,-2.1587,-2.1511,-2.1318,-2.0893,-2.0944,-2.1397,-2.1366,-2.137,-2.129,-2.1244,-2.1233,-2.1221,-2.1221,-2.1221,-2.1221,-2.1221,-2.1221,-2.1411,-2.2298,-2.2665,-2.2798,-2.3628,-2.4345,-2.4778,-2.458,-2.4964,-2.5522,-2.5988,-2.6111,-2.6233,-2.6674,-2.6779,-2.7176,-2.8546,-2.898,-2.9024,-2.9083,-2.9098,-2.9098,-2.9098,-2.9098,-2.9098,-2.9098,-2.9711,-3.0167,-3.0167,-3.1069,-3.1475,-3.08,-3.182,-3.2656,-3.271,-3.2961,-3.3135,-3.3198,-3.3214,-3.323,-3.3309,-3.3309,-3.3309,-3.3309,-3.3309,-3.3309,-3.3309,-3.3309,-3.3309,-3.3309,-3.3309,-3.3309,-3.3309,-3.3309,-3.3309,-0.5614,-0.5842,-0.6076,-0.6926,-0.7032,-0.7102,-0.8017,-0.7831,-0.7771,-0.896,-0.9074,-0.9074,-0.963,-1.0222,0.0,0.0,0.0,0.0,0.0,0.0,0.0,0.0,0.0,0.0,0.0,0.0,0.0,0.0,0.0,0.0,0.0,0.0,0.0,-1.6688,-1.7294,-1.7743,-1.785,-1.8909,-1.9355,0.0,-2.006,-2.0339,-1.9951,-2.0931,-2.153,-2.1988,-2.2054,-2.2147,-2.221,-2.1799,-2.1561,-2.1561,-2.1411,-2.1474,-2.1561,-2.1296,-2.1549,-2.2049,-2.2433,-2.2871,-2.3318,-2.3878,-2.439,-2.4778,-2.4778,-2.5034,-2.5522,-2.5988,-2.6111,-2.6233,-2.6674,-2.6779,-2.6905,-2.7234,-2.7793,-2.8345,-2.8829,-2.9042,-2.9098,-2.9098,-2.9098,-2.9098,-2.9098,-2.9215,-2.9374,-2.9374,-2.9548,-2.9744,-2.9883,-3.0418,-3.088,-3.1073,-3.1448,-3.1887,-3.244,-3.2538,-3.2724,-3.3261,-3.3309,-3.3309,-3.3309,-3.3309,-3.3309,-3.3309,-3.3309,-3.3309,-3.3309,-3.3309,-3.3309,-3.3309,-3.3309,-3.3309,-0.5644,-0.5959,-0.622,-0.6845,-0.6982,-0.6929,-0.7268,-0.6953,-0.6912,-0.7804,-0.8183,-0.8408,-0.8808,-0.9262,0.0,0.0,0.0,0.0,0.0,0.0,0.0,0.0,0.0,0.0,0.0,0.0,0.0,0.0,0.0,0.0,0.0,-1.6199,-1.6203,-1.6402,-1.7016,-1.7427,-1.771,-1.8609,-1.899,-1.8844,-1.9445,-1.9524,-1.9127,-2.0411,-2.125,-2.1699,-2.172,-2.1875,-2.2086,-2.1816,-2.1698,-2.1698,-2.1549,-2.1549,-2.1549,-2.1348,-2.1474,-2.18,-2.2125,-2.2433,-2.2763,-2.3245,-2.3721,-2.4144,-2.4144,-2.4421,-2.4878,-2.5328,-2.5508,-2.5619,-2.6286,-2.6447,-2.65,-2.6727,-2.7094,-2.7535,-2.7856,-2.7969,-2.7983,-2.7983,-2.7983,-2.7983,-2.7983,-2.8341,-2.8546,-2.8546,-2.9015,-2.9253,-2.9032,-2.9803,-3.0469,-3.0572,-3.0942,-3.1365,-3.1729,-3.176,-3.1918,-3.2282,-3.2297,-3.2297,-3.2297,-3.2297,-3.2613,-3.3293,-3.3309,-3.3309,-3.3309,-3.3309,-3.3309,-3.3309,-3.3309,-3.3309,-0.5694,-0.617,-0.6585,-0.6955,-0.7044,-0.6975,-0.6529,-0.6347,-0.6404,-0.6756,-0.7546,-0.8141,-0.8214,0.0,0.0,0.0,0.0,0.0,0.0,0.0,0.0,0.0,0.0,0.0,0.0,0.0,0.0,0.0,0.0,0.0,-1.5711,-1.5536,-1.57,-1.6321,-1.6669,-1.7081,-1.7503,-1.8246,-1.8614,-1.8686,-1.8903,-1.8889,-1.8627,-1.9643,-2.0365,-2.0962,-2.1075,-2.1399,-2.1816,-2.1796,-2.1761,-2.1761,-2.1761,-2.1675,-2.1526,-2.1463,-2.1411,-2.1348,-2.1776,-2.1951,-2.2002,-2.2543,-2.3065,-2.3403,-2.3522,-2.3878,-2.4345,-2.4778,-2.4948,-2.523,-2.6002,-2.6233,-2.634,-2.6727,-2.6779,-2.6779,-2.6779,-2.6779,-2.6779,-2.6779,-2.6779,-2.6779,-2.6779,-2.7336,-2.7793,-2.7793,-2.8557,-2.8889,-2.8233,-2.9301,-3.0149,-3.0149,-3.0532,-3.0907,-3.1033,-3.1033,-3.1097,-3.1207,-3.1223,-3.1223,-3.1223,-3.1223,-3.176,-3.2914,-3.2945,-3.2945,-3.2945,-3.2945,-3.2945,-3.2945,-3.3072,-3.3119,-0.5292,-0.6232,-0.7126,-0.7233,-0.7217,-0.7197,-0.6971,-0.6518,-0.6196,0.0,-0.72,-0.8226,0.0,0.0,0.0,0.0,0.0,0.0,0.0,0.0,0.0,0.0,0.0,0.0,0.0,0.0,0.0,0.0,0.0,0.0,-1.4766,-1.5073,-1.5178,-1.5168,-1.5,-1.5008,-1.5065,-1.6112,-1.648,-1.6161,-1.7311,-1.8095,-1.8549,-1.867,-1.9369,-2.0547,-2.1045,-2.1585,-2.2157,-2.2115,-2.2123,-2.2135,-2.1937,-2.1937,-2.2061,-2.1761,-2.1635,-2.1698,-2.2061,-2.2037,-2.2063,-2.3017,-2.333,-2.3463,-2.3878,-2.4332,-2.4778,-2.5189,-2.5591,-2.6056,-2.6568,-2.6727,-2.6727,-2.6779,-2.6779,-2.6779,-2.6779,-2.6779,-2.6779,-2.6779,-2.6779,-2.6779,-2.6779,-2.6905,-2.6963,-2.6963,-2.7088,-2.7156,-2.7015,-2.7739,-2.8271,-2.8271,-2.8934,-2.9659,-3.0259,-3.0322,-3.0575,-3.1176,-3.1223,-3.1223,-3.1223,-3.1223,-3.1302,-3.1492,-3.1492,-3.1492,-3.1492,-3.1492,-3.1492,-3.1507,-3.2124,-3.2408,-0.5425,-0.6215,-0.684,-0.7175,-0.7057,-0.6932,-0.6936,-0.6713,-0.6414,-0.6426,-0.7146,-0.7735,0.0,0.0,0.0,0.0,0.0,0.0,0.0,0.0,0.0,0.0,0.0,0.0,0.0,0.0,0.0,0.0,0.0,-1.3064,-1.3807,-1.3829,-1.3924,-1.4239,-1.4395,-1.4632,-1.4837,-1.5651,-1.6051,-1.6142,-1.6785,-1.7229,-1.7491,-1.7491,-1.8309,-1.9793,-2.0114,-2.0534,-2.106,-2.1077,-2.1296,-2.1607,-2.1546,-2.1725,-2.1999,-2.1874,-2.1761,-2.1698,-2.1737,-2.1714,-2.1702,-2.2025,-2.2334,-2.2641,-2.3113,-2.3603,-2.4086,-2.4536,-2.4835,-2.5174,-2.5825,-2.6028,-2.615,-2.6674,-2.6779,-2.6779,-2.6779,-2.6779,-2.6779,-2.6779,-2.6779,-2.6779,-2.6779,-2.6779,-2.6779,-2.6779,-2.6779,-2.6779,-2.6779,-2.7269,-2.7695,-2.7864,-2.8415,-2.8999,-2.9564,-2.9595,-2.9722,-3.0022,-3.0038,-3.0038,-3.0038,-3.0038,-3.0038,-3.0038,-3.0812,-3.1223,-3.1223,-3.1223,-3.1223,-3.1223,-3.1523,-3.1681,-0.5466,-0.5956,-0.6321,-0.6838,-0.6855,-0.6714,-0.6865,-0.6714,-0.6605,0.0,-0.6888,0.0,0.0,0.0,0.0,0.0,0.0,0.0,0.0,0.0,0.0,0.0,0.0,0.0,0.0,0.0,0.0,0.0,0.0,-1.2141,-1.2933,-1.2808,-1.3085,-1.3729,-1.3954,-1.4316,-1.4663,-1.5343,-1.5881,-1.6393,-1.6725,-1.6894,-1.6904,-1.7002,-1.771,-1.8946,-1.9094,-1.9463,-1.9963,-2.011,-2.0488,-2.095,-2.095,-2.1188,-2.1483,-2.1675,-2.1611,-2.151,-2.1491,-2.1463,-2.14,-2.14,-2.1639,-2.2002,-2.2616,-2.3065,-2.3522,-2.4112,-2.4287,-2.4505,-2.537,-2.5577,-2.5797,-2.6606,-2.6779,-2.6779,-2.6779,-2.6779,-2.6779,-2.6779,-2.6779,-2.6779,-2.6779,-2.6779,-2.6779,-2.6779,-2.6779,-2.6779,-2.6779,-2.7144,-2.7524,-2.7864,-2.8255,-2.8669,-2.9075,-2.9075,-2.9075,-2.9075,-2.9075,-2.9075,-2.9075,-2.9075,-2.9075,-2.9075,-3.0148,-3.0686,-3.0686,-3.0686,-3.0686,-3.0686,-3.0875,-3.0954,-0.5044,-0.5477,-0.5829,-0.6325,-0.6629,-0.6861,-0.6865,-0.6714,-0.6633,-0.6615,-0.6438,0.0,0.0,0.0,0.0,0.0,0.0,0.0,0.0,0.0,0.0,0.0,0.0,0.0,0.0,0.0,0.0,0.0,0.0,-1.2285,-1.2365,-1.2721,-1.312,-1.3619,-1.3459,-1.3509,-1.3866,-1.4767,-1.5485,-1.6028,-1.6954,-1.7344,-1.7363,-1.7764,-1.7969,-1.8094,-1.8354,-1.8837,-1.95,-1.9991,-2.0229,-2.024,-2.024,-2.0264,-2.0346,-2.0997,-2.1116,-2.1005,-2.1522,-2.1549,-2.1451,-2.1753,-2.1877,-2.2075,-2.3078,-2.3403,-2.3569,-2.4492,-2.4778,-2.4948,-2.5839,-2.6056,-2.6179,-2.6674,-2.6779,-2.6779,-2.6779,-2.6779,-2.6779,-2.6779,-2.6779,-2.6779,-2.6779,-2.6779,-2.6779,-2.6779,-2.6779,-2.6779,-2.6779,-2.7144,-2.7524,-2.7864,-2.8255,-2.8669,-2.9075,-2.9075,-2.9075,-2.9075,-2.9075,-2.9075,-2.9075,-2.9075,-2.9075,-2.9075,-2.9154,-2.9186,-2.9186,-2.9186,-2.9186,-2.9201,-2.9927,-3.0227,-0.5037,-0.5185,-0.5322,-0.5959,-0.6075,-0.6142,-0.6328,-0.6478,-0.6579,-0.6521,0.0,0.0,0.0,0.0,0.0,0.0,0.0,0.0,0.0,0.0,0.0,0.0,0.0,0.0,0.0,0.0,0.0,0.0,0.0,0.0,-1.1685,-1.1902,-1.2254,-1.2677,-1.2989,-1.3526,-1.4189,-1.4649,-1.4976,-1.5163,-1.6085,-1.6493,-1.6493,-1.698,-1.7187,-1.7168,-1.7583,-1.8062,-1.85,-1.8773,-1.9111,-1.949,-1.9518,-1.9772,-2.0229,-2.0476,-2.0535,-2.0547,-2.0993,-2.1046,-2.1032,-2.1409,-2.1514,-2.1588,-2.2261,-2.2457,-2.2628,-2.3616,-2.3923,-2.4086,-2.5061,-2.5286,-2.5453,-2.6179,-2.634,-2.6447,-2.6846,-2.6846,-2.6779,-2.6779,-2.6779,-2.6779,-2.6779,-2.6779,-2.6779,-2.6779,-2.6779,-2.6779,-2.6779,-2.6937,-2.7218,-2.7864,-2.8012,-2.8367,-2.9029,-2.9075,-2.9075,-2.9075,-2.9075,-2.9075,-2.9075,-2.9075,-2.9075,-2.9075,-2.9075,-2.9075,-2.9075,-2.9075,-2.9075,-2.9091,-2.939,-2.9501,-0.4852,-0.4896,-0.5003,-0.5604,-0.5644,-0.5692,-0.6127,-0.638,-0.6504,-0.6531,0.0,0.0,0.0,0.0,0.0,0.0,0.0,0.0,0.0,0.0,0.0,0.0,0.0,0.0,0.0,0.0,0.0,0.0,0.0,0.0,-1.0893,-1.112,-1.143,-1.1872,-1.2578,-1.3196,-1.3768,-1.4145,-1.4328,-1.4328,-1.5151,-1.5595,-1.5794,-1.6262,-1.6529,-1.6728,-1.7024,-1.7435,-1.7838,-1.8218,-1.8629,-1.9074,-1.9217,-1.9483,-1.9784,-2.0018,-1.9971,-1.9889,-2.0393,-2.0461,-2.0421,-2.0919,-2.0957,-2.0991,-2.1705,-2.2002,-2.231,-2.315,-2.3522,-2.3865,-2.4765,-2.5216,-2.5564,-2.6002,-2.6111,-2.6233,-2.6621,-2.6779,-2.6884,-2.6937,-2.6937,-2.6937,-2.6937,-2.6937,-2.6937,-2.6937,-2.6937,-2.6937,-2.6937,-2.6937,-2.7218,-2.7929,-2.7978,-2.8286,-2.9029,-2.9075,-2.9075,-2.9075,-2.9075,-2.9075,-2.9075,-2.9075,-2.9075,-2.9075,-2.9075,-2.9075,-2.9075,-2.9075,-2.9075,-2.9075,-2.9075,-2.9075,0.0,0.0,0.0,-0.5266,-0.54,-0.5602,-0.6358,0.0,-0.625,-0.663,0.0,0.0,0.0,0.0,0.0,0.0,0.0,0.0,0.0,0.0,0.0,0.0,0.0,0.0,0.0,0.0,0.0,0.0,0.0,-0.999,-0.9983,-1.0388,-1.078,-1.1274,-1.2089,-1.2474,-1.249,-1.3147,-1.3442,-1.3511,-1.4197,-1.4808,-1.5321,-1.5776,-1.6227,-1.6636,-1.6646,-1.6951,-1.743,-1.8445,-1.889,-1.895,-1.944,-1.9378,-1.8977,-1.9657,-1.9564,-1.9192,-1.9738,-1.9854,-1.9805,-2.0274,-2.0362,-2.0442,-2.1537,-2.2187,-2.2665,-2.3198,-2.37,-2.4274,-2.5133,-2.6042,-2.6621,-2.6179,-2.6111,-2.6111,-2.6111,-2.6621,-2.7041,-2.713,-2.7181,-2.7181,-2.7181,-2.7181,-2.7181,-2.7181,-2.7181,-2.7181,-2.7181,-2.7181,-2.7423,-2.8137,-2.8186,-2.8414,-2.9029,-2.9075,-2.9075,-2.9075,-2.9075,-2.9075,-2.9075,-2.9075,-2.9075,-2.9075,-2.9075,-2.9075,-2.9075,-2.9075,-2.9075,-2.9075,-2.9075,-2.9075,-0.4485,0.0,0.0,0.0,0.0,0.0,0.0,0.0,-0.5805,-0.639,0.0,0.0,0.0,0.0,0.0,0.0,0.0,0.0,0.0,0.0,0.0,0.0,0.0,0.0,0.0,0.0,0.0,0.0,-0.946,-0.9679,-0.9705,-1.016,-1.0707,-1.1281,-1.1692,-1.2116,-1.2736,-1.2666,-1.2789,-1.3164,-1.35,-1.3726,-1.3909,-1.4337,-1.4808,-1.526,-1.5624,-1.6056,-1.6505,-1.7441,-1.8068,-1.8445,-1.8939,-1.929,-1.9493,-1.969,-1.9655,-1.9598,-2.0284,-2.0387,-2.0335,-2.0904,-2.1003,-2.0974,-2.1302,-2.1463,-2.1714,-2.2273,-2.275,-2.322,-2.4189,-2.4664,-2.5005,-2.5591,-2.5742,-2.5974,-2.6855,-2.7196,-2.713,-2.663,-2.6563,-2.6683,-2.7115,-2.7181,-2.7181,-2.7181,-2.7181,-2.7181,-2.7181,-2.7181,-2.7372,-2.784,-2.789,-2.8171,-2.8732,-2.8826,-2.8889,-2.9091,-2.9075,-2.9075,-2.9075,-2.9075,-2.9075,-2.9075,-2.9075,-2.9075,-2.9075,-2.9075,-2.9075,-2.9075,-2.9075,-2.9075,-0.4549,-0.4545,-0.4601,-0.4856,0.0,0.0,-0.5413,-0.5498,0.0,0.0,0.0,0.0,0.0,0.0,0.0,0.0,0.0,0.0,0.0,0.0,0.0,0.0,0.0,0.0,0.0,0.0,0.0,-0.8798,-0.911,-0.9349,-0.9419,-0.9809,-1.0151,-1.0471,-1.0919,-1.1338,-1.1768,-1.2028,-1.2351,-1.272,-1.3086,-1.345,-1.37,-1.3881,-1.4359,-1.502,-1.5207,-1.5552,-1.6079,-1.6749,-1.7461,-1.8239,-1.8982,-1.9421,-1.9674,-1.9927,-1.9861,-1.9734,-2.0141,-2.0162,-2.0076,-2.0557,-2.0588,-2.0465,-2.0538,-2.0723,-2.0956,-2.15,-2.2176,-2.2911,-2.3553,-2.4019,-2.4482,-2.5092,-2.5258,-2.5481,-2.6136,-2.6136,-2.619,-2.6721,-2.6669,-2.6669,-2.7269,-2.6945,-2.6788,-2.7269,-2.7167,-2.7063,-2.7321,-2.7372,-2.7473,-2.7855,-2.7905,-2.8137,-2.8637,-2.8685,-2.8826,-2.9075,-2.9075,-2.9075,-2.9075,-2.9075,-2.9075,-2.9075,-2.9075,-2.9075,-2.9075,-2.9075,-2.9075,-2.9075,-2.9075,-2.9075,-0.4684,-0.4752,-0.4807,-0.5069,-0.4934,0.0,-0.5727,-0.5677,-0.5727,0.0,0.0,0.0,0.0,0.0,0.0,0.0,0.0,0.0,0.0,0.0,0.0,0.0,0.0,0.0,0.0,-0.8388,-0.8447,-0.8447,-0.8792,-0.9039,-0.9139,-0.9341,-0.9385,-0.9318,-1.0012,-1.0387,-1.0301,-1.1336,-1.1997,-1.2251,-1.2846,-1.3476,-1.407,-1.395,-1.4419,-1.5235,-1.5118,-1.5362,-1.5886,-1.6208,-1.7042,-1.8194,-1.91,-1.9581,-1.9698,-2.0216,-2.0171,-1.992,-1.992,-1.9778,-1.9696,-1.9849,-1.9778,-1.9636,-1.9838,-2.0193,-2.058,-2.0973,-2.1929,-2.2883,-2.3158,-2.3821,-2.4477,-2.4757,-2.4781,-2.4754,-2.4878,-2.4567,-2.4854,-2.6953,-2.6982,-2.6774,-2.7423,-2.6654,-2.6375,-2.7458,-2.7152,-2.6982,-2.7524,-2.7625,-2.7675,-2.7905,-2.7955,-2.8137,-2.8653,-2.8653,-2.8795,-2.9075,-2.9075,-2.9075,-2.9075,-2.9075,-2.9075,-2.9075,-2.9075,-2.9075,-2.9075,-2.9075,-2.9075,-2.9075,-2.9075,-2.9075,-0.4766,-0.4931,-0.5006,-0.481,-0.4933,0.0,-0.4947,-0.4834,-0.4973,0.0,0.0,0.0,0.0,0.0,0.0,0.0,0.0,0.0,0.0,0.0,0.0,0.0,0.0,0.0,0.0,-0.821,-0.8236,-0.8236,-0.8624,-0.8874,-0.8955,-0.8953,-0.9023,-0.9311,-0.9385,-0.9758,-1.037,-1.0697,-1.1219,-1.1897,-1.221,-1.2582,-1.3103,-1.3338,-1.3821,-1.4419,-1.4428,-1.4834,-1.5478,-1.5566,-1.6326,-1.7528,-1.7924,-1.8913,-2.0081,-2.007,-2.0595,-2.1342,-2.1342,-2.1269,-2.1269,-2.1269,-2.1183,-2.1035,-2.1035,-2.1047,-2.1109,-2.158,-2.1692,-2.1968,-2.3073,-2.3161,-2.3341,-2.463,-2.4569,-2.4491,-2.5411,-2.5188,-2.5101,-2.5969,-2.6054,-2.6176,-2.6774,-2.7086,-2.7357,-2.756,-2.7509,-2.7473,-2.7575,-2.7625,-2.7625,-2.7675,-2.7675,-2.7875,-2.8381,-2.8444,-2.8621,-2.9075,-2.9075,-2.9075,-2.9075,-2.9075,-2.9075,-2.9075,-2.9075,-2.9075,-2.9075,-2.9075,-2.9075,-2.9075,-2.9075,-2.9075,-0.482,-0.4974,-0.506,-0.4942,0.0,0.0,0.0,-0.5038,-0.5233,-0.6114,-0.6071,0.0,0.0,0.0,0.0,0.0,0.0,0.0,0.0,0.0,0.0,0.0,0.0,0.0,0.0,-0.8223,-0.8172,-0.8172,-0.8471,-0.8555,-0.8469,-0.8591,-0.8558,-0.8335,-0.8447,-0.8752,-0.9253,-0.9472,-1.0154,-1.121,-1.1723,-1.2232,-1.2693,-1.3228,-1.3747,-1.4231,-1.4359,-1.4883,-1.5642,-1.5642,-1.6131,-1.6863,-1.7311,-1.8137,-1.9109,-1.9354,-1.9878,-2.0534,-2.0534,-2.0729,-2.0911,-2.0911,-2.0838,-2.0766,-2.0644,-2.0705,-2.0815,-2.1044,-2.1257,-2.1708,-2.2703,-2.2917,-2.3184,-2.4302,-2.4323,-2.4233,-2.4811,-2.4747,-2.4625,-2.4924,-2.5203,-2.5591,-2.6176,-2.6014,-2.6176,-2.7034,-2.693,-2.6916,-2.7509,-2.7625,-2.7625,-2.7625,-2.7625,-2.7775,-2.8168,-2.8314,-2.8541,-2.8889,-2.9029,-2.9075,-2.9075,-2.9075,-2.9075,-2.9075,-2.9075,-2.9075,-2.9075,-2.9075,-2.9075,-2.9075,-2.9075,-2.9075,0.0,0.0,-0.5165,0.0,0.0,-0.5246,0.0,0.0,0.0,-0.657,0.0,0.0,0.0,0.0,0.0,0.0,0.0,0.0,0.0,0.0,0.0,0.0,0.0,0.0,0.0,-0.7943,-0.793,-0.804,-0.8089,-0.7974,-0.7679,-0.8101,-0.7993,-0.73,-0.7648,-0.7919,-0.8023,-0.839,-0.9131,-1.0299,-1.101,-1.1664,-1.2299,-1.294,-1.3553,-1.4046,-1.4409,-1.4993,-1.571,-1.571,-1.5951,-1.6347,-1.6884,-1.742,-1.8012,-1.8397,-1.8914,-1.9317,-1.9317,-1.961,-2.0028,-2.0028,-2.0087,-2.0111,-1.9948,-2.0111,-2.0274,-2.0274,-2.075,-2.1405,-2.204,-2.2514,-2.2929,-2.3584,-2.3694,-2.3681,-2.389,-2.3864,-2.3851,-2.4073,-2.4505,-2.4991,-2.5522,-2.4991,-2.4935,-2.6283,-2.6229,-2.6336,-2.7306,-2.7524,-2.7625,-2.7625,-2.7625,-2.7725,-2.7955,-2.8217,-2.8444,-2.8685,-2.8889,-2.9029,-2.9075,-2.9075,-2.9075,-2.9075,-2.9075,-2.9075,-2.9075,-2.9075,-2.9075,-2.9075,-2.9075,-2.9075,0.0,0.0,0.0,0.0,-0.5042,0.0,0.0,0.0,-0.5411,-0.5769,0.0,0.0,0.0,0.0,0.0,0.0,0.0,0.0,0.0,0.0,0.0,0.0,0.0,0.0,0.0,0.0,-0.7054,-0.7549,-0.7162,-0.6757,-0.6487,-0.71,-0.7332,-0.7144,-0.7639,-0.7853,-0.7724,-0.8213,-0.8677,-0.9167,-0.9472,-1.0261,-1.1437,-1.1817,-1.2524,-1.342,-1.3832,-1.4389,-1.5088,-1.5088,-1.543,-1.5999,-1.6165,-1.6869,-1.7798,-1.7761,-1.8275,-1.9022,-1.9022,-1.9317,-1.9666,-1.9666,-1.9963,-2.0274,-2.0111,-2.0111,-2.0111,-2.0111,-2.0044,-2.0128,-2.107,-2.1259,-2.1412,-2.2343,-2.2191,-2.2086,-2.3093,-2.2923,-2.2871,-2.3916,-2.4171,-2.439,-2.5005,-2.537,-2.5673,-2.5837,-2.6283,-2.6669,-2.6788,-2.7255,-2.7625,-2.7625,-2.7625,-2.7725,-2.7955,-2.802,-2.8235,-2.8685,-2.8732,-2.8826,-2.9075,-2.9075,-2.9075,-2.9075,-2.9075,-2.9075,-2.9075,-2.9075,-2.9075,-2.9075,-2.9075,-2.9075,0.0,0.0,0.0,0.0,0.0,0.0,-0.5421,0.0,-0.5747,0.0,0.0,0.0,0.0,0.0,0.0,0.0,0.0,0.0,0.0,0.0,0.0,0.0,0.0,0.0,0.0,0.0,0.0,0.0,0.0,-0.6865,-0.6487,-0.6929,-0.6897,-0.6228,-0.675,-0.7036,-0.7063,-0.7473,-0.8021,-0.878,-0.8829,-0.9228,-0.9904,-1.0777,-1.1408,-1.1865,-1.2798,-1.3593,-1.4294,-1.4534,-1.5023,-1.5642,-1.5874,-1.6399,-1.699,-1.6932,-1.7323,-1.7812,-1.7812,-1.8204,-1.8814,-1.942,-1.9871,-2.0216,-2.0216,-2.017,-2.0111,-2.0111,-2.0222,-2.0487,-2.1057,-2.136,-2.1696,-2.2239,-2.2204,-2.2139,-2.2609,-2.2585,-2.2559,-2.3001,-2.3093,-2.3204,-2.344,-2.4209,-2.4912,-2.5159,-2.5464,-2.5811,-2.6122,-2.639,-2.6549,-2.6549,-2.6549,-2.6562,-2.6621,-2.6713,-2.7094,-2.7797,-2.8514,-2.8982,-2.9091,-2.9075,-2.9075,-2.9075,-2.9075,-2.9075,-2.9075,-2.9075,-2.9075,-2.9075,-2.9075,-2.9075,-0.4316,0.0,0.0,0.0,0.0,0.0,0.0,0.0,0.0,0.0,0.0,0.0,0.0,0.0,0.0,0.0,0.0,0.0,0.0,0.0,0.0,0.0,0.0,0.0,0.0,0.0,0.0,0.0,0.0,0.0,-0.6147,-0.6429,-0.6258,-0.5592,-0.5977,-0.6159,-0.6204,-0.6534,-0.7133,-0.7889,-0.8043,-0.8302,-0.8777,-0.9836,-1.0446,-1.0778,-1.1906,-1.2727,-1.3408,-1.3755,-1.427,-1.4897,-1.531,-1.5656,-1.5971,-1.6275,-1.6564,-1.6751,-1.6751,-1.7137,-1.7881,-1.8783,-1.9326,-1.9619,-1.9722,-1.979,-1.9802,-1.9802,-2.0073,-2.0452,-2.0729,-2.1138,-2.1583,-2.1876,-2.1904,-2.1983,-2.214,-2.2126,-2.2232,-2.2389,-2.2415,-2.2376,-2.2339,-2.3044,-2.3712,-2.4,-2.4573,-2.5012,-2.5213,-2.5661,-2.5863,-2.5692,-2.5664,-2.5597,-2.551,-2.5637,-2.6065,-2.6872,-2.7951,-2.8568,-2.8568,-2.8742,-2.8837,-2.8898,-2.9073,-2.9167,-2.9167,-2.9183,-2.9183,-2.9167,-2.9075,-2.9075,0.0,0.0,0.0,-0.4594,0.0,0.0,0.0,0.0,-0.6993,0.0,0.0,0.0,0.0,0.0,-0.6784,-0.6466,-0.6473,0.0,0.0,0.0,0.0,0.0,0.0,0.0,0.0,0.0,0.0,0.0,0.0,0.0,-0.5031,-0.5093,-0.5324,-0.5604,-0.5605,-0.5449,-0.516,-0.5605,-0.5932,-0.6086,-0.6534,-0.7402,-0.8639,-0.8942,-0.9691,-1.0817,-1.1309,-1.1902,-1.2534,-1.2534,-1.2967,-1.3614,-1.4101,-1.4487,-1.4975,-1.6038,-1.6242,-1.604,-1.604,-1.6321,-1.6848,-1.7532,-1.803,-1.8379,-1.8379,-1.8661,-1.9047,-1.9047,-1.9206,-1.9522,-1.9758,-2.0067,-2.0335,-2.0664,-2.0751,-2.0908,-2.142,-2.1538,-2.1694,-2.231,-2.2415,-2.2339,-2.2135,-2.2313,-2.2452,-2.2441,-2.3823,-2.4584,-2.3947,-2.5214,-2.5953,-2.5383,-2.5309,-2.5309,-2.5328,-2.5328,-2.555,-2.6214,-2.6842,-2.7162,-2.7162,-2.7778,-2.817,-2.8335,-2.8971,-2.9305,-2.9305,-2.9412,-2.9412,-2.9305,-2.9013,-2.8967,0.0,0.0,-0.4038,-0.4113,0.0,0.0,0.0,0.0,0.0,0.0,0.0,0.0,0.0,0.0,-0.6815,-0.6633,-0.6415,-0.6236,0.0,0.0,0.0,0.0,0.0,0.0,0.0,0.0,0.0,0.0,0.0,0.0,0.0,-0.5355,-0.5381,-0.5162,-0.5767,-0.5733,-0.5105,-0.5819,-0.615,-0.5996,-0.6159,-0.6485,-0.7015,-0.7605,-0.824,-0.8911,-0.982,-1.0661,-1.1426,-1.1697,-1.2221,-1.2903,-1.3314,-1.37,-1.4141,-1.5189,-1.5823,-1.6094,-1.6541,-1.6718,-1.6872,-1.7413,-1.7788,-1.8007,-1.7941,-1.8333,-1.8839,-1.8614,-1.8827,-1.921,-1.946,-1.9617,-1.9859,-2.0746,-2.094,-2.1056,-2.1407,-2.1511,-2.1459,-2.1315,-2.1275,-2.1274,-2.1178,-2.1208,-2.1471,-2.2086,-2.2804,-2.3152,-2.2897,-2.3337,-2.374,-2.3917,-2.3931,-2.3978,-2.4103,-2.4538,-2.4865,-2.5047,-2.6087,-2.6689,-2.6689,-2.7158,-2.7446,-2.749,-2.8139,-2.8532,-2.8532,-2.9007,-2.9213,-2.9167,-2.8967,-2.9059,-0.369,-0.3735,0.0,-0.3854,-0.435,0.0,-0.5316,0.0,0.0,0.0,0.0,0.0,0.0,0.0,-0.6526,-0.6433,-0.6227,-0.6094,0.0,-0.608,0.0,0.0,0.0,0.0,0.0,0.0,-0.6047,-0.6221,0.0,0.0,0.0,0.0,-0.5341,-0.4973,-0.5467,-0.5465,-0.4893,-0.5393,-0.5618,-0.5567,-0.5727,-0.5941,-0.615,-0.6912,-0.745,-0.7818,-0.8659,-0.9461,-1.0188,-1.0614,-1.1243,-1.1913,-1.2457,-1.2833,-1.321,-1.4394,-1.527,-1.5879,-1.6262,-1.649,-1.6705,-1.7032,-1.7301,-1.7567,-1.7501,-1.7952,-1.8506,-1.8278,-1.856,-1.8999,-1.921,-1.9316,-1.9661,-2.0779,-2.1066,-2.1236,-2.1733,-2.1825,-2.1707,-2.138,-2.1315,-2.1315,-2.1315,-2.1315,-2.1353,-2.1555,-2.1995,-2.2234,-2.1983,-2.2326,-2.2565,-2.2698,-2.2724,-2.2814,-2.3131,-2.3792,-2.4209,-2.4268,-2.5218,-2.5812,-2.5812,-2.6392,-2.6704,-2.6788,-2.7454,-2.7803,-2.7759,-2.8247,-2.864,-2.891,-2.8817,-2.9096]}]]